<?xml version='1.0' encoding='UTF-8'?><gpx version="1.1" creator="JPX - https://github.com/jenetics/jpx" xmlns="http://www.topografix.com/GPX/1/1"><trk><trkseg><trkpt lat="43.4684627" lon="11.2119869"><ele>276.0</ele><time>2026-05-02T16:08:35.739Z</time></trkpt><trkpt lat="43.4685173" lon="11.2119104"><ele>276.0</ele><time>2026-05-02T16:08:38.738Z</time></trkpt><trkpt lat="43.4686357" lon="11.2119522"><ele>276.0</ele><time>2026-05-02T16:08:40.685Z</time></trkpt><trkpt lat="43.4687085" lon="11.2120215"><ele>276.0</ele><time>2026-05-02T16:09:15.687Z</time></trkpt><trkpt lat="43.4687828" lon="11.2120779"><ele>276.0</ele><time>2026-05-02T16:10:34.698Z</time></trkpt><trkpt lat="43.4688957" lon="11.2121461"><ele>276.6</ele><time>2026-05-02T16:10:36.688Z</time></trkpt><trkpt lat="43.4689607" lon="11.2121455"><ele>277.20000000000005</ele><time>2026-05-02T16:10:37.69Z</time></trkpt><trkpt lat="43.4690683" lon="11.2122049"><ele>277.79999999999995</ele><time>2026-05-02T16:10:39.686Z</time></trkpt><trkpt lat="43.4691367" lon="11.2123669"><ele>278.4</ele><time>2026-05-02T16:10:41.683Z</time></trkpt><trkpt lat="43.4691639" lon="11.2124845"><ele>279.0</ele><time>2026-05-02T16:10:42.687Z</time></trkpt><trkpt lat="43.4692064" lon="11.2126084"><ele>279.0</ele><time>2026-05-02T16:10:43.683Z</time></trkpt><trkpt lat="43.4692545" lon="11.2127377"><ele>279.0</ele><time>2026-05-02T16:10:44.697Z</time></trkpt><trkpt lat="43.4693442" lon="11.212836"><ele>279.0</ele><time>2026-05-02T16:10:45.697Z</time></trkpt><trkpt lat="43.4694526" lon="11.2129267"><ele>279.0</ele><time>2026-05-02T16:10:46.685Z</time></trkpt><trkpt lat="43.4695717" lon="11.2130258"><ele>279.0</ele><time>2026-05-02T16:10:47.684Z</time></trkpt><trkpt lat="43.4696952" lon="11.213114"><ele>279.0</ele><time>2026-05-02T16:10:48.689Z</time></trkpt><trkpt lat="43.4698154" lon="11.21318"><ele>279.0</ele><time>2026-05-02T16:10:49.679Z</time></trkpt><trkpt lat="43.4699296" lon="11.2132398"><ele>279.0</ele><time>2026-05-02T16:10:50.688Z</time></trkpt><trkpt lat="43.4700338" lon="11.2132896"><ele>279.0</ele><time>2026-05-02T16:10:51.685Z</time></trkpt><trkpt lat="43.4701251" lon="11.2133551"><ele>279.0</ele><time>2026-05-02T16:10:52.687Z</time></trkpt><trkpt lat="43.4702029" lon="11.2134281"><ele>279.0</ele><time>2026-05-02T16:10:53.701Z</time></trkpt><trkpt lat="43.4702762" lon="11.2135096"><ele>279.0</ele><time>2026-05-02T16:10:54.67Z</time></trkpt><trkpt lat="43.4703478" lon="11.2135905"><ele>279.0</ele><time>2026-05-02T16:10:55.676Z</time></trkpt><trkpt lat="43.4704272" lon="11.2136618"><ele>277.59999999999997</ele><time>2026-05-02T16:10:56.679Z</time></trkpt><trkpt lat="43.4705161" lon="11.213718"><ele>276.2</ele><time>2026-05-02T16:10:57.686Z</time></trkpt><trkpt lat="43.4706096" lon="11.2137646"><ele>274.79999999999995</ele><time>2026-05-02T16:10:58.679Z</time></trkpt><trkpt lat="43.4707047" lon="11.213817"><ele>273.4</ele><time>2026-05-02T16:10:59.681Z</time></trkpt><trkpt lat="43.4707961" lon="11.2138786"><ele>272.0</ele><time>2026-05-02T16:11:00.688Z</time></trkpt><trkpt lat="43.4708871" lon="11.2139359"><ele>272.0</ele><time>2026-05-02T16:11:01.685Z</time></trkpt><trkpt lat="43.4709762" lon="11.2139819"><ele>272.0</ele><time>2026-05-02T16:11:02.708Z</time></trkpt><trkpt lat="43.4710636" lon="11.2140198"><ele>272.0</ele><time>2026-05-02T16:11:03.685Z</time></trkpt><trkpt lat="43.4711502" lon="11.214055"><ele>272.0</ele><time>2026-05-02T16:11:04.673Z</time></trkpt><trkpt lat="43.4712337" lon="11.2141008"><ele>272.0</ele><time>2026-05-02T16:11:05.665Z</time></trkpt><trkpt lat="43.4713121" lon="11.2141662"><ele>275.0</ele><time>2026-05-02T16:11:06.658Z</time></trkpt><trkpt lat="43.4713873" lon="11.2142487"><ele>278.0</ele><time>2026-05-02T16:11:07.676Z</time></trkpt><trkpt lat="43.471453" lon="11.2143546"><ele>281.0</ele><time>2026-05-02T16:11:08.678Z</time></trkpt><trkpt lat="43.471523" lon="11.2144615"><ele>284.0</ele><time>2026-05-02T16:11:09.692Z</time></trkpt><trkpt lat="43.4716028" lon="11.2145556"><ele>287.0</ele><time>2026-05-02T16:11:10.693Z</time></trkpt><trkpt lat="43.4716925" lon="11.2146383"><ele>287.0</ele><time>2026-05-02T16:11:11.685Z</time></trkpt><trkpt lat="43.4717861" lon="11.2147162"><ele>287.0</ele><time>2026-05-02T16:11:12.695Z</time></trkpt><trkpt lat="43.4718815" lon="11.2147919"><ele>287.0</ele><time>2026-05-02T16:11:13.7Z</time></trkpt><trkpt lat="43.4719763" lon="11.2148647"><ele>287.0</ele><time>2026-05-02T16:11:14.685Z</time></trkpt><trkpt lat="43.4720678" lon="11.2149353"><ele>287.0</ele><time>2026-05-02T16:11:15.693Z</time></trkpt><trkpt lat="43.4721579" lon="11.2150053"><ele>290.8</ele><time>2026-05-02T16:11:16.675Z</time></trkpt><trkpt lat="43.4722453" lon="11.2150794"><ele>294.6</ele><time>2026-05-02T16:11:17.696Z</time></trkpt><trkpt lat="43.4723317" lon="11.2151525"><ele>298.40000000000003</ele><time>2026-05-02T16:11:18.689Z</time></trkpt><trkpt lat="43.472422" lon="11.2152184"><ele>302.2</ele><time>2026-05-02T16:11:19.693Z</time></trkpt><trkpt lat="43.4725164" lon="11.2152696"><ele>306.0</ele><time>2026-05-02T16:11:20.693Z</time></trkpt><trkpt lat="43.4726143" lon="11.2153137"><ele>306.0</ele><time>2026-05-02T16:11:21.684Z</time></trkpt><trkpt lat="43.4727124" lon="11.2153572"><ele>306.0</ele><time>2026-05-02T16:11:22.669Z</time></trkpt><trkpt lat="43.472808" lon="11.2154005"><ele>306.0</ele><time>2026-05-02T16:11:23.681Z</time></trkpt><trkpt lat="43.4728949" lon="11.2154556"><ele>306.0</ele><time>2026-05-02T16:11:24.689Z</time></trkpt><trkpt lat="43.4729742" lon="11.2155215"><ele>306.0</ele><time>2026-05-02T16:11:25.679Z</time></trkpt><trkpt lat="43.4730463" lon="11.2155965"><ele>308.0</ele><time>2026-05-02T16:11:26.69Z</time></trkpt><trkpt lat="43.473116" lon="11.2156781"><ele>310.0</ele><time>2026-05-02T16:11:27.699Z</time></trkpt><trkpt lat="43.4731855" lon="11.2157605"><ele>312.0</ele><time>2026-05-02T16:11:28.694Z</time></trkpt><trkpt lat="43.4732394" lon="11.215824"><ele>314.0</ele><time>2026-05-02T16:11:29.702Z</time></trkpt><trkpt lat="43.473311" lon="11.2159105"><ele>316.0</ele><time>2026-05-02T16:11:31.689Z</time></trkpt><trkpt lat="43.4733725" lon="11.2159796"><ele>318.0</ele><time>2026-05-02T16:11:34.691Z</time></trkpt><trkpt lat="43.4734788" lon="11.2160627"><ele>318.0</ele><time>2026-05-02T16:11:36.714Z</time></trkpt><trkpt lat="43.4735642" lon="11.2161236"><ele>318.0</ele><time>2026-05-02T16:11:37.687Z</time></trkpt><trkpt lat="43.4736614" lon="11.2162017"><ele>318.0</ele><time>2026-05-02T16:11:38.67Z</time></trkpt><trkpt lat="43.4737637" lon="11.2162937"><ele>318.0</ele><time>2026-05-02T16:11:39.676Z</time></trkpt><trkpt lat="43.4738736" lon="11.2163932"><ele>318.75</ele><time>2026-05-02T16:11:40.693Z</time></trkpt><trkpt lat="43.4739941" lon="11.2164874"><ele>319.5</ele><time>2026-05-02T16:11:41.678Z</time></trkpt><trkpt lat="43.4741287" lon="11.216568"><ele>320.25</ele><time>2026-05-02T16:11:42.682Z</time></trkpt><trkpt lat="43.4742731" lon="11.2166289"><ele>321.0</ele><time>2026-05-02T16:11:43.688Z</time></trkpt><trkpt lat="43.4744174" lon="11.2166771"><ele>321.0</ele><time>2026-05-02T16:11:44.689Z</time></trkpt><trkpt lat="43.4745518" lon="11.2167191"><ele>321.0</ele><time>2026-05-02T16:11:45.692Z</time></trkpt><trkpt lat="43.4746757" lon="11.2167537"><ele>321.0</ele><time>2026-05-02T16:11:46.68Z</time></trkpt><trkpt lat="43.4747929" lon="11.2167756"><ele>321.0</ele><time>2026-05-02T16:11:47.69Z</time></trkpt><trkpt lat="43.4749031" lon="11.2167742"><ele>320.40000000000003</ele><time>2026-05-02T16:11:48.691Z</time></trkpt><trkpt lat="43.4750068" lon="11.2167456"><ele>319.8</ele><time>2026-05-02T16:11:49.674Z</time></trkpt><trkpt lat="43.4750998" lon="11.2166799"><ele>319.20000000000005</ele><time>2026-05-02T16:11:50.693Z</time></trkpt><trkpt lat="43.4751741" lon="11.2165728"><ele>318.6</ele><time>2026-05-02T16:11:51.687Z</time></trkpt><trkpt lat="43.475224" lon="11.2164309"><ele>318.0</ele><time>2026-05-02T16:11:52.662Z</time></trkpt><trkpt lat="43.4752512" lon="11.2162638"><ele>316.0</ele><time>2026-05-02T16:11:53.683Z</time></trkpt><trkpt lat="43.4752584" lon="11.216087"><ele>314.0</ele><time>2026-05-02T16:11:54.695Z</time></trkpt><trkpt lat="43.4752559" lon="11.2159028"><ele>312.0</ele><time>2026-05-02T16:11:55.689Z</time></trkpt><trkpt lat="43.4752559" lon="11.2157121"><ele>310.0</ele><time>2026-05-02T16:11:56.688Z</time></trkpt><trkpt lat="43.4752705" lon="11.2155171"><ele>310.25</ele><time>2026-05-02T16:11:57.68Z</time></trkpt><trkpt lat="43.475304" lon="11.2153196"><ele>310.5</ele><time>2026-05-02T16:11:58.687Z</time></trkpt><trkpt lat="43.4753573" lon="11.2151272"><ele>310.75</ele><time>2026-05-02T16:11:59.674Z</time></trkpt><trkpt lat="43.4754247" lon="11.2149396"><ele>311.0</ele><time>2026-05-02T16:12:00.698Z</time></trkpt><trkpt lat="43.4754988" lon="11.2147617"><ele>311.0</ele><time>2026-05-02T16:12:01.69Z</time></trkpt><trkpt lat="43.4755733" lon="11.2145858"><ele>311.0</ele><time>2026-05-02T16:12:02.684Z</time></trkpt><trkpt lat="43.4756443" lon="11.2144159"><ele>311.0</ele><time>2026-05-02T16:12:03.686Z</time></trkpt><trkpt lat="43.4757141" lon="11.2142569"><ele>311.0</ele><time>2026-05-02T16:12:04.695Z</time></trkpt><trkpt lat="43.4757894" lon="11.214113"><ele>311.0</ele><time>2026-05-02T16:12:05.699Z</time></trkpt><trkpt lat="43.4758755" lon="11.2139921"><ele>311.0</ele><time>2026-05-02T16:12:06.703Z</time></trkpt><trkpt lat="43.4759735" lon="11.2139013"><ele>311.0</ele><time>2026-05-02T16:12:07.673Z</time></trkpt><trkpt lat="43.476086" lon="11.2138358"><ele>311.0</ele><time>2026-05-02T16:12:08.681Z</time></trkpt><trkpt lat="43.4762103" lon="11.2137955"><ele>309.75</ele><time>2026-05-02T16:12:09.668Z</time></trkpt><trkpt lat="43.4763442" lon="11.2137749"><ele>308.5</ele><time>2026-05-02T16:12:10.688Z</time></trkpt><trkpt lat="43.4764819" lon="11.2137411"><ele>307.25</ele><time>2026-05-02T16:12:11.69Z</time></trkpt><trkpt lat="43.4766055" lon="11.2136698"><ele>306.0</ele><time>2026-05-02T16:12:12.662Z</time></trkpt><trkpt lat="43.4767108" lon="11.2135485"><ele>306.0</ele><time>2026-05-02T16:12:13.681Z</time></trkpt><trkpt lat="43.47679" lon="11.2133915"><ele>306.0</ele><time>2026-05-02T16:12:14.701Z</time></trkpt><trkpt lat="43.4768368" lon="11.2132069"><ele>306.0</ele><time>2026-05-02T16:12:15.689Z</time></trkpt><trkpt lat="43.4768599" lon="11.2130047"><ele>306.0</ele><time>2026-05-02T16:12:16.695Z</time></trkpt><trkpt lat="43.4768589" lon="11.212791"><ele>304.6666666666667</ele><time>2026-05-02T16:12:17.699Z</time></trkpt><trkpt lat="43.47684" lon="11.2125702"><ele>303.33333333333337</ele><time>2026-05-02T16:12:18.698Z</time></trkpt><trkpt lat="43.4768117" lon="11.2123405"><ele>302.0</ele><time>2026-05-02T16:12:19.704Z</time></trkpt><trkpt lat="43.476783" lon="11.2121061"><ele>301.33333333333337</ele><time>2026-05-02T16:12:20.702Z</time></trkpt><trkpt lat="43.4767593" lon="11.2118728"><ele>300.6666666666667</ele><time>2026-05-02T16:12:21.698Z</time></trkpt><trkpt lat="43.4767473" lon="11.2116482"><ele>300.0</ele><time>2026-05-02T16:12:22.711Z</time></trkpt><trkpt lat="43.4767579" lon="11.21144"><ele>301.75</ele><time>2026-05-02T16:12:23.688Z</time></trkpt><trkpt lat="43.4767931" lon="11.2112424"><ele>303.5</ele><time>2026-05-02T16:12:24.702Z</time></trkpt><trkpt lat="43.4768533" lon="11.2110598"><ele>305.25</ele><time>2026-05-02T16:12:25.679Z</time></trkpt><trkpt lat="43.4769381" lon="11.2108842"><ele>307.0</ele><time>2026-05-02T16:12:26.693Z</time></trkpt><trkpt lat="43.4770447" lon="11.2107208"><ele>305.0</ele><time>2026-05-02T16:12:27.693Z</time></trkpt><trkpt lat="43.4771644" lon="11.2105624"><ele>303.0</ele><time>2026-05-02T16:12:28.676Z</time></trkpt><trkpt lat="43.477295" lon="11.210398"><ele>301.0</ele><time>2026-05-02T16:12:29.689Z</time></trkpt><trkpt lat="43.4774227" lon="11.2102224"><ele>301.0</ele><time>2026-05-02T16:12:30.675Z</time></trkpt><trkpt lat="43.4775434" lon="11.2100258"><ele>301.0</ele><time>2026-05-02T16:12:31.686Z</time></trkpt><trkpt lat="43.4776542" lon="11.209813"><ele>301.0</ele><time>2026-05-02T16:12:32.692Z</time></trkpt><trkpt lat="43.4777551" lon="11.2095977"><ele>300.0</ele><time>2026-05-02T16:12:33.705Z</time></trkpt><trkpt lat="43.4778445" lon="11.2093919"><ele>299.0</ele><time>2026-05-02T16:12:34.706Z</time></trkpt><trkpt lat="43.4779201" lon="11.2091897"><ele>298.0</ele><time>2026-05-02T16:12:35.707Z</time></trkpt><trkpt lat="43.4779829" lon="11.2089786"><ele>300.66666666666663</ele><time>2026-05-02T16:12:36.7Z</time></trkpt><trkpt lat="43.4780322" lon="11.2087552"><ele>303.3333333333333</ele><time>2026-05-02T16:12:37.688Z</time></trkpt><trkpt lat="43.478064" lon="11.2085249"><ele>306.0</ele><time>2026-05-02T16:12:38.676Z</time></trkpt><trkpt lat="43.4780772" lon="11.2082883"><ele>305.3333333333333</ele><time>2026-05-02T16:12:39.694Z</time></trkpt><trkpt lat="43.4780769" lon="11.2080522"><ele>304.66666666666663</ele><time>2026-05-02T16:12:40.674Z</time></trkpt><trkpt lat="43.4780712" lon="11.2078078"><ele>304.0</ele><time>2026-05-02T16:12:41.696Z</time></trkpt><trkpt lat="43.4780641" lon="11.2075642"><ele>302.3333333333333</ele><time>2026-05-02T16:12:42.693Z</time></trkpt><trkpt lat="43.4780554" lon="11.2073271"><ele>300.6666666666667</ele><time>2026-05-02T16:12:43.692Z</time></trkpt><trkpt lat="43.4780307" lon="11.2070945"><ele>299.0</ele><time>2026-05-02T16:12:44.702Z</time></trkpt><trkpt lat="43.477987" lon="11.2068628"><ele>297.6666666666667</ele><time>2026-05-02T16:12:45.682Z</time></trkpt><trkpt lat="43.4779322" lon="11.2066248"><ele>296.3333333333333</ele><time>2026-05-02T16:12:46.703Z</time></trkpt><trkpt lat="43.4778714" lon="11.2063978"><ele>295.0</ele><time>2026-05-02T16:12:47.68Z</time></trkpt><trkpt lat="43.4778037" lon="11.2061687"><ele>295.0</ele><time>2026-05-02T16:12:48.696Z</time></trkpt><trkpt lat="43.4777318" lon="11.2059447"><ele>295.0</ele><time>2026-05-02T16:12:49.693Z</time></trkpt><trkpt lat="43.4776517" lon="11.2057235"><ele>295.0</ele><time>2026-05-02T16:12:50.703Z</time></trkpt><trkpt lat="43.4775707" lon="11.205507"><ele>295.3333333333333</ele><time>2026-05-02T16:12:51.696Z</time></trkpt><trkpt lat="43.4774897" lon="11.2052944"><ele>295.6666666666667</ele><time>2026-05-02T16:12:52.69Z</time></trkpt><trkpt lat="43.4774122" lon="11.2050901"><ele>296.0</ele><time>2026-05-02T16:12:53.692Z</time></trkpt><trkpt lat="43.4773418" lon="11.2048956"><ele>295.5</ele><time>2026-05-02T16:12:54.684Z</time></trkpt><trkpt lat="43.4772828" lon="11.2047049"><ele>295.0</ele><time>2026-05-02T16:12:55.698Z</time></trkpt><trkpt lat="43.4772441" lon="11.2045174"><ele>294.5</ele><time>2026-05-02T16:12:56.695Z</time></trkpt><trkpt lat="43.4772303" lon="11.2043307"><ele>294.0</ele><time>2026-05-02T16:12:57.696Z</time></trkpt><trkpt lat="43.4772428" lon="11.2041445"><ele>296.0</ele><time>2026-05-02T16:12:58.688Z</time></trkpt><trkpt lat="43.47728" lon="11.2039629"><ele>298.0</ele><time>2026-05-02T16:12:59.7Z</time></trkpt><trkpt lat="43.4773374" lon="11.2038021"><ele>300.0</ele><time>2026-05-02T16:13:00.676Z</time></trkpt><trkpt lat="43.4774279" lon="11.2036567"><ele>302.0</ele><time>2026-05-02T16:13:01.703Z</time></trkpt><trkpt lat="43.4775358" lon="11.2035345"><ele>302.0</ele><time>2026-05-02T16:13:02.689Z</time></trkpt><trkpt lat="43.4776578" lon="11.2034433"><ele>302.0</ele><time>2026-05-02T16:13:03.702Z</time></trkpt><trkpt lat="43.4777921" lon="11.2033856"><ele>302.0</ele><time>2026-05-02T16:13:04.696Z</time></trkpt><trkpt lat="43.4779344" lon="11.203363"><ele>302.0</ele><time>2026-05-02T16:13:05.673Z</time></trkpt><trkpt lat="43.4780861" lon="11.2033753"><ele>302.6666666666667</ele><time>2026-05-02T16:13:06.687Z</time></trkpt><trkpt lat="43.4782404" lon="11.2034212"><ele>303.3333333333333</ele><time>2026-05-02T16:13:07.699Z</time></trkpt><trkpt lat="43.4783938" lon="11.2034838"><ele>304.0</ele><time>2026-05-02T16:13:08.708Z</time></trkpt><trkpt lat="43.4785401" lon="11.2035776"><ele>304.0</ele><time>2026-05-02T16:13:09.701Z</time></trkpt><trkpt lat="43.4786759" lon="11.2036701"><ele>304.0</ele><time>2026-05-02T16:13:10.672Z</time></trkpt><trkpt lat="43.4788056" lon="11.20374"><ele>304.0</ele><time>2026-05-02T16:13:11.689Z</time></trkpt><trkpt lat="43.4789311" lon="11.2037726"><ele>304.0</ele><time>2026-05-02T16:13:12.668Z</time></trkpt><trkpt lat="43.4790569" lon="11.2037641"><ele>303.0</ele><time>2026-05-02T16:13:13.685Z</time></trkpt><trkpt lat="43.4791813" lon="11.2037378"><ele>302.0</ele><time>2026-05-02T16:13:14.684Z</time></trkpt><trkpt lat="43.4792876" lon="11.2036571"><ele>301.0</ele><time>2026-05-02T16:13:15.689Z</time></trkpt><trkpt lat="43.4793717" lon="11.2035434"><ele>300.0</ele><time>2026-05-02T16:13:16.675Z</time></trkpt><trkpt lat="43.4794242" lon="11.2033998"><ele>300.0</ele><time>2026-05-02T16:13:17.673Z</time></trkpt><trkpt lat="43.4794384" lon="11.2032386"><ele>300.0</ele><time>2026-05-02T16:13:18.682Z</time></trkpt><trkpt lat="43.4794253" lon="11.2030806"><ele>300.0</ele><time>2026-05-02T16:13:19.688Z</time></trkpt><trkpt lat="43.4793818" lon="11.202922"><ele>300.0</ele><time>2026-05-02T16:13:20.678Z</time></trkpt><trkpt lat="43.4793209" lon="11.2027543"><ele>300.75</ele><time>2026-05-02T16:13:21.694Z</time></trkpt><trkpt lat="43.4792599" lon="11.2025842"><ele>301.5</ele><time>2026-05-02T16:13:22.678Z</time></trkpt><trkpt lat="43.4792154" lon="11.2024123"><ele>302.25</ele><time>2026-05-02T16:13:23.706Z</time></trkpt><trkpt lat="43.4792109" lon="11.2022642"><ele>303.0</ele><time>2026-05-02T16:13:24.675Z</time></trkpt><trkpt lat="43.4792481" lon="11.2021265"><ele>303.75</ele><time>2026-05-02T16:13:25.694Z</time></trkpt><trkpt lat="43.4793147" lon="11.2020106"><ele>304.5</ele><time>2026-05-02T16:13:26.661Z</time></trkpt><trkpt lat="43.4794137" lon="11.201921"><ele>305.25</ele><time>2026-05-02T16:13:27.683Z</time></trkpt><trkpt lat="43.4795286" lon="11.201865"><ele>306.0</ele><time>2026-05-02T16:13:28.678Z</time></trkpt><trkpt lat="43.4796496" lon="11.2018218"><ele>304.25</ele><time>2026-05-02T16:13:29.686Z</time></trkpt><trkpt lat="43.4797683" lon="11.2017706"><ele>302.5</ele><time>2026-05-02T16:13:30.688Z</time></trkpt><trkpt lat="43.4798652" lon="11.201676"><ele>300.75</ele><time>2026-05-02T16:13:31.66Z</time></trkpt><trkpt lat="43.4799339" lon="11.2015478"><ele>299.0</ele><time>2026-05-02T16:13:32.664Z</time></trkpt><trkpt lat="43.479969" lon="11.2013907"><ele>298.25</ele><time>2026-05-02T16:13:33.681Z</time></trkpt><trkpt lat="43.4799821" lon="11.2012282"><ele>297.5</ele><time>2026-05-02T16:13:34.665Z</time></trkpt><trkpt lat="43.4799472" lon="11.2010511"><ele>296.75</ele><time>2026-05-02T16:13:35.682Z</time></trkpt><trkpt lat="43.479891" lon="11.2008713"><ele>296.0</ele><time>2026-05-02T16:13:36.673Z</time></trkpt><trkpt lat="43.4798184" lon="11.2006932"><ele>296.25</ele><time>2026-05-02T16:13:37.674Z</time></trkpt><trkpt lat="43.47976" lon="11.2005221"><ele>296.5</ele><time>2026-05-02T16:13:38.677Z</time></trkpt><trkpt lat="43.4797271" lon="11.2003565"><ele>296.75</ele><time>2026-05-02T16:13:39.672Z</time></trkpt><trkpt lat="43.479732" lon="11.2001983"><ele>297.0</ele><time>2026-05-02T16:13:40.689Z</time></trkpt><trkpt lat="43.4797754" lon="11.2000555"><ele>297.0</ele><time>2026-05-02T16:13:41.679Z</time></trkpt><trkpt lat="43.47985" lon="11.1999143"><ele>297.0</ele><time>2026-05-02T16:13:42.676Z</time></trkpt><trkpt lat="43.4799431" lon="11.1997739"><ele>297.0</ele><time>2026-05-02T16:13:43.685Z</time></trkpt><trkpt lat="43.4800424" lon="11.1996297"><ele>297.0</ele><time>2026-05-02T16:13:44.675Z</time></trkpt><trkpt lat="43.4801296" lon="11.1994782"><ele>297.25</ele><time>2026-05-02T16:13:45.7Z</time></trkpt><trkpt lat="43.4801907" lon="11.1993181"><ele>297.5</ele><time>2026-05-02T16:13:46.691Z</time></trkpt><trkpt lat="43.4802372" lon="11.1991461"><ele>297.75</ele><time>2026-05-02T16:13:47.691Z</time></trkpt><trkpt lat="43.4802719" lon="11.1989643"><ele>298.0</ele><time>2026-05-02T16:13:48.698Z</time></trkpt><trkpt lat="43.4803063" lon="11.1987792"><ele>298.0</ele><time>2026-05-02T16:13:49.701Z</time></trkpt><trkpt lat="43.4803401" lon="11.1985933"><ele>298.0</ele><time>2026-05-02T16:13:50.688Z</time></trkpt><trkpt lat="43.4803767" lon="11.1984042"><ele>298.0</ele><time>2026-05-02T16:13:51.692Z</time></trkpt><trkpt lat="43.4804219" lon="11.1982163"><ele>298.0</ele><time>2026-05-02T16:13:52.693Z</time></trkpt><trkpt lat="43.4804777" lon="11.1980339"><ele>297.75</ele><time>2026-05-02T16:13:53.676Z</time></trkpt><trkpt lat="43.4805502" lon="11.1978617"><ele>297.5</ele><time>2026-05-02T16:13:54.694Z</time></trkpt><trkpt lat="43.4806399" lon="11.197712"><ele>297.25</ele><time>2026-05-02T16:13:55.685Z</time></trkpt><trkpt lat="43.4807455" lon="11.1975853"><ele>297.0</ele><time>2026-05-02T16:13:56.695Z</time></trkpt><trkpt lat="43.4808635" lon="11.1974875"><ele>297.0</ele><time>2026-05-02T16:13:57.697Z</time></trkpt><trkpt lat="43.4809881" lon="11.1974119"><ele>297.0</ele><time>2026-05-02T16:13:58.705Z</time></trkpt><trkpt lat="43.4811122" lon="11.1973475"><ele>297.0</ele><time>2026-05-02T16:13:59.678Z</time></trkpt><trkpt lat="43.4812325" lon="11.1972806"><ele>297.0</ele><time>2026-05-02T16:14:00.694Z</time></trkpt><trkpt lat="43.4813399" lon="11.1972123"><ele>295.8</ele><time>2026-05-02T16:14:01.698Z</time></trkpt><trkpt lat="43.4814364" lon="11.1971324"><ele>294.6</ele><time>2026-05-02T16:14:02.697Z</time></trkpt><trkpt lat="43.4815145" lon="11.197036"><ele>293.40000000000003</ele><time>2026-05-02T16:14:03.686Z</time></trkpt><trkpt lat="43.4815688" lon="11.1969231"><ele>292.2</ele><time>2026-05-02T16:14:04.685Z</time></trkpt><trkpt lat="43.4815968" lon="11.1967925"><ele>291.0</ele><time>2026-05-02T16:14:05.69Z</time></trkpt><trkpt lat="43.4815977" lon="11.196653"><ele>291.0</ele><time>2026-05-02T16:14:06.678Z</time></trkpt><trkpt lat="43.4815621" lon="11.1965061"><ele>291.0</ele><time>2026-05-02T16:14:07.69Z</time></trkpt><trkpt lat="43.4815007" lon="11.1963627"><ele>291.0</ele><time>2026-05-02T16:14:08.702Z</time></trkpt><trkpt lat="43.4814289" lon="11.1962196"><ele>291.0</ele><time>2026-05-02T16:14:09.693Z</time></trkpt><trkpt lat="43.4813504" lon="11.1960688"><ele>290.6666666666667</ele><time>2026-05-02T16:14:10.692Z</time></trkpt><trkpt lat="43.4812689" lon="11.1959055"><ele>290.33333333333337</ele><time>2026-05-02T16:14:11.692Z</time></trkpt><trkpt lat="43.481191" lon="11.1957266"><ele>290.0</ele><time>2026-05-02T16:14:12.699Z</time></trkpt><trkpt lat="43.48112" lon="11.1955344"><ele>286.0</ele><time>2026-05-02T16:14:13.696Z</time></trkpt><trkpt lat="43.4810569" lon="11.195331"><ele>282.0</ele><time>2026-05-02T16:14:14.702Z</time></trkpt><trkpt lat="43.4810039" lon="11.1951235"><ele>278.0</ele><time>2026-05-02T16:14:15.685Z</time></trkpt><trkpt lat="43.4809569" lon="11.1949107"><ele>278.0</ele><time>2026-05-02T16:14:16.686Z</time></trkpt><trkpt lat="43.4809121" lon="11.1946957"><ele>278.0</ele><time>2026-05-02T16:14:17.69Z</time></trkpt><trkpt lat="43.4808707" lon="11.1944833"><ele>278.0</ele><time>2026-05-02T16:14:18.677Z</time></trkpt><trkpt lat="43.4808341" lon="11.194275"><ele>278.0</ele><time>2026-05-02T16:14:19.677Z</time></trkpt><trkpt lat="43.4808078" lon="11.1940676"><ele>278.0</ele><time>2026-05-02T16:14:20.684Z</time></trkpt><trkpt lat="43.4807967" lon="11.1938585"><ele>278.0</ele><time>2026-05-02T16:14:21.683Z</time></trkpt><trkpt lat="43.4808001" lon="11.1936493"><ele>278.0</ele><time>2026-05-02T16:14:22.684Z</time></trkpt><trkpt lat="43.4808087" lon="11.1934484"><ele>278.0</ele><time>2026-05-02T16:14:23.679Z</time></trkpt><trkpt lat="43.4808051" lon="11.1932572"><ele>278.0</ele><time>2026-05-02T16:14:24.677Z</time></trkpt><trkpt lat="43.4807796" lon="11.1930697"><ele>278.0</ele><time>2026-05-02T16:14:25.678Z</time></trkpt><trkpt lat="43.4807326" lon="11.1928827"><ele>280.6666666666667</ele><time>2026-05-02T16:14:26.683Z</time></trkpt><trkpt lat="43.4806688" lon="11.1927"><ele>283.3333333333333</ele><time>2026-05-02T16:14:27.681Z</time></trkpt><trkpt lat="43.4805886" lon="11.1925202"><ele>286.0</ele><time>2026-05-02T16:14:28.685Z</time></trkpt><trkpt lat="43.4805086" lon="11.1923377"><ele>288.0</ele><time>2026-05-02T16:14:29.682Z</time></trkpt><trkpt lat="43.480442" lon="11.1921429"><ele>290.0</ele><time>2026-05-02T16:14:30.682Z</time></trkpt><trkpt lat="43.4803959" lon="11.1919387"><ele>292.0</ele><time>2026-05-02T16:14:31.678Z</time></trkpt><trkpt lat="43.4803643" lon="11.1917282"><ele>283.0</ele><time>2026-05-02T16:14:32.689Z</time></trkpt><trkpt lat="43.4803335" lon="11.1915195"><ele>274.0</ele><time>2026-05-02T16:14:33.685Z</time></trkpt><trkpt lat="43.4802908" lon="11.1913158"><ele>265.0</ele><time>2026-05-02T16:14:34.677Z</time></trkpt><trkpt lat="43.4802305" lon="11.1911158"><ele>265.0</ele><time>2026-05-02T16:14:35.681Z</time></trkpt><trkpt lat="43.4801548" lon="11.1909237"><ele>265.0</ele><time>2026-05-02T16:14:36.677Z</time></trkpt><trkpt lat="43.4800667" lon="11.1907374"><ele>265.0</ele><time>2026-05-02T16:14:37.681Z</time></trkpt><trkpt lat="43.4799722" lon="11.1905555"><ele>267.0</ele><time>2026-05-02T16:14:38.687Z</time></trkpt><trkpt lat="43.4798777" lon="11.1903815"><ele>269.0</ele><time>2026-05-02T16:14:39.676Z</time></trkpt><trkpt lat="43.4797865" lon="11.1902139"><ele>271.0</ele><time>2026-05-02T16:14:40.685Z</time></trkpt><trkpt lat="43.4797005" lon="11.1900534"><ele>271.0</ele><time>2026-05-02T16:14:41.69Z</time></trkpt><trkpt lat="43.4796197" lon="11.1899048"><ele>271.0</ele><time>2026-05-02T16:14:42.678Z</time></trkpt><trkpt lat="43.4795348" lon="11.1897696"><ele>271.0</ele><time>2026-05-02T16:14:43.684Z</time></trkpt><trkpt lat="43.4794357" lon="11.1896616"><ele>271.0</ele><time>2026-05-02T16:14:44.675Z</time></trkpt><trkpt lat="43.479318" lon="11.1895986"><ele>271.0</ele><time>2026-05-02T16:14:45.673Z</time></trkpt><trkpt lat="43.479186" lon="11.1895805"><ele>271.0</ele><time>2026-05-02T16:14:46.688Z</time></trkpt><trkpt lat="43.4790491" lon="11.1895966"><ele>271.0</ele><time>2026-05-02T16:14:47.679Z</time></trkpt><trkpt lat="43.4789063" lon="11.1896431"><ele>271.0</ele><time>2026-05-02T16:14:48.679Z</time></trkpt><trkpt lat="43.4787636" lon="11.1896997"><ele>271.0</ele><time>2026-05-02T16:14:49.683Z</time></trkpt><trkpt lat="43.4786276" lon="11.1897361"><ele>271.0</ele><time>2026-05-02T16:14:50.682Z</time></trkpt><trkpt lat="43.4784949" lon="11.1897329"><ele>271.0</ele><time>2026-05-02T16:14:51.686Z</time></trkpt><trkpt lat="43.4783635" lon="11.1896956"><ele>271.0</ele><time>2026-05-02T16:14:52.679Z</time></trkpt><trkpt lat="43.4782332" lon="11.1896075"><ele>271.0</ele><time>2026-05-02T16:14:53.682Z</time></trkpt><trkpt lat="43.4781038" lon="11.1894953"><ele>271.0</ele><time>2026-05-02T16:14:54.689Z</time></trkpt><trkpt lat="43.47797" lon="11.1893951"><ele>271.0</ele><time>2026-05-02T16:14:55.673Z</time></trkpt><trkpt lat="43.4778179" lon="11.1893243"><ele>267.66666666666663</ele><time>2026-05-02T16:14:56.679Z</time></trkpt><trkpt lat="43.4776556" lon="11.1892835"><ele>264.3333333333333</ele><time>2026-05-02T16:14:57.683Z</time></trkpt><trkpt lat="43.4774985" lon="11.1892561"><ele>261.0</ele><time>2026-05-02T16:14:58.689Z</time></trkpt><trkpt lat="43.4773547" lon="11.189236"><ele>261.0</ele><time>2026-05-02T16:14:59.676Z</time></trkpt><trkpt lat="43.4772209" lon="11.1892125"><ele>261.0</ele><time>2026-05-02T16:15:00.694Z</time></trkpt><trkpt lat="43.4771012" lon="11.1891787"><ele>261.0</ele><time>2026-05-02T16:15:01.682Z</time></trkpt><trkpt lat="43.4769973" lon="11.189113"><ele>261.0</ele><time>2026-05-02T16:15:02.691Z</time></trkpt><trkpt lat="43.4769239" lon="11.1890174"><ele>261.2</ele><time>2026-05-02T16:15:03.683Z</time></trkpt><trkpt lat="43.4768844" lon="11.1888976"><ele>261.40000000000003</ele><time>2026-05-02T16:15:04.676Z</time></trkpt><trkpt lat="43.4768891" lon="11.188765"><ele>261.6</ele><time>2026-05-02T16:15:05.681Z</time></trkpt><trkpt lat="43.4769287" lon="11.1886379"><ele>261.8</ele><time>2026-05-02T16:15:06.684Z</time></trkpt><trkpt lat="43.4770146" lon="11.188539"><ele>262.0</ele><time>2026-05-02T16:15:07.686Z</time></trkpt><trkpt lat="43.4771218" lon="11.1884794"><ele>262.0</ele><time>2026-05-02T16:15:08.689Z</time></trkpt><trkpt lat="43.4772446" lon="11.1884562"><ele>262.0</ele><time>2026-05-02T16:15:09.693Z</time></trkpt><trkpt lat="43.4773746" lon="11.1884817"><ele>262.0</ele><time>2026-05-02T16:15:10.681Z</time></trkpt><trkpt lat="43.4775136" lon="11.1885218"><ele>262.0</ele><time>2026-05-02T16:15:11.688Z</time></trkpt><trkpt lat="43.4776567" lon="11.1885497"><ele>262.0</ele><time>2026-05-02T16:15:12.692Z</time></trkpt><trkpt lat="43.4777945" lon="11.1885566"><ele>262.0</ele><time>2026-05-02T16:15:13.694Z</time></trkpt><trkpt lat="43.4779176" lon="11.1885344"><ele>262.0</ele><time>2026-05-02T16:15:14.689Z</time></trkpt><trkpt lat="43.4780342" lon="11.188489"><ele>262.0</ele><time>2026-05-02T16:15:15.675Z</time></trkpt><trkpt lat="43.4781261" lon="11.1883954"><ele>264.25</ele><time>2026-05-02T16:15:16.68Z</time></trkpt><trkpt lat="43.4782114" lon="11.1882808"><ele>266.5</ele><time>2026-05-02T16:15:17.685Z</time></trkpt><trkpt lat="43.4782541" lon="11.1881332"><ele>268.75</ele><time>2026-05-02T16:15:18.677Z</time></trkpt><trkpt lat="43.4782609" lon="11.1879745"><ele>271.0</ele><time>2026-05-02T16:15:19.681Z</time></trkpt><trkpt lat="43.478241" lon="11.1878208"><ele>271.0</ele><time>2026-05-02T16:15:20.681Z</time></trkpt><trkpt lat="43.478182" lon="11.1876805"><ele>271.0</ele><time>2026-05-02T16:15:21.676Z</time></trkpt><trkpt lat="43.4781083" lon="11.187548"><ele>271.0</ele><time>2026-05-02T16:15:22.679Z</time></trkpt><trkpt lat="43.4780047" lon="11.187454"><ele>271.0</ele><time>2026-05-02T16:15:23.676Z</time></trkpt><trkpt lat="43.4779002" lon="11.1873669"><ele>267.25</ele><time>2026-05-02T16:15:24.673Z</time></trkpt><trkpt lat="43.4777939" lon="11.1872748"><ele>263.5</ele><time>2026-05-02T16:15:25.682Z</time></trkpt><trkpt lat="43.4776975" lon="11.1871752"><ele>259.75</ele><time>2026-05-02T16:15:26.703Z</time></trkpt><trkpt lat="43.4776265" lon="11.1870586"><ele>256.0</ele><time>2026-05-02T16:15:27.684Z</time></trkpt><trkpt lat="43.4775803" lon="11.1869268"><ele>256.0</ele><time>2026-05-02T16:15:28.684Z</time></trkpt><trkpt lat="43.4775665" lon="11.1867833"><ele>256.0</ele><time>2026-05-02T16:15:29.693Z</time></trkpt><trkpt lat="43.4775895" lon="11.1866411"><ele>256.0</ele><time>2026-05-02T16:15:30.692Z</time></trkpt><trkpt lat="43.477638" lon="11.1865033"><ele>256.0</ele><time>2026-05-02T16:15:31.68Z</time></trkpt><trkpt lat="43.4777036" lon="11.1863628"><ele>256.0</ele><time>2026-05-02T16:15:32.686Z</time></trkpt><trkpt lat="43.4777739" lon="11.1862192"><ele>255.75</ele><time>2026-05-02T16:15:33.686Z</time></trkpt><trkpt lat="43.4778271" lon="11.1860676"><ele>255.5</ele><time>2026-05-02T16:15:34.678Z</time></trkpt><trkpt lat="43.4778477" lon="11.1859086"><ele>255.25</ele><time>2026-05-02T16:15:35.682Z</time></trkpt><trkpt lat="43.4778242" lon="11.1857528"><ele>255.0</ele><time>2026-05-02T16:15:36.68Z</time></trkpt><trkpt lat="43.4777624" lon="11.1856108"><ele>255.0</ele><time>2026-05-02T16:15:37.675Z</time></trkpt><trkpt lat="43.4776703" lon="11.1854703"><ele>255.0</ele><time>2026-05-02T16:15:38.683Z</time></trkpt><trkpt lat="43.4775539" lon="11.1853351"><ele>255.0</ele><time>2026-05-02T16:15:39.675Z</time></trkpt><trkpt lat="43.4774323" lon="11.1851896"><ele>255.0</ele><time>2026-05-02T16:15:40.685Z</time></trkpt><trkpt lat="43.4773102" lon="11.1850332"><ele>255.0</ele><time>2026-05-02T16:15:41.686Z</time></trkpt><trkpt lat="43.4771819" lon="11.1848637"><ele>255.0</ele><time>2026-05-02T16:15:42.678Z</time></trkpt><trkpt lat="43.4770486" lon="11.1846873"><ele>252.0</ele><time>2026-05-02T16:15:43.675Z</time></trkpt><trkpt lat="43.4769145" lon="11.1845102"><ele>249.0</ele><time>2026-05-02T16:15:44.685Z</time></trkpt><trkpt lat="43.4767852" lon="11.1843412"><ele>246.0</ele><time>2026-05-02T16:15:45.685Z</time></trkpt><trkpt lat="43.4766617" lon="11.1841823"><ele>246.0</ele><time>2026-05-02T16:15:46.681Z</time></trkpt><trkpt lat="43.4765453" lon="11.184025"><ele>246.0</ele><time>2026-05-02T16:15:47.677Z</time></trkpt><trkpt lat="43.4764403" lon="11.1838599"><ele>246.0</ele><time>2026-05-02T16:15:48.68Z</time></trkpt><trkpt lat="43.476353" lon="11.1836762"><ele>245.33333333333331</ele><time>2026-05-02T16:15:49.682Z</time></trkpt><trkpt lat="43.4762717" lon="11.183492"><ele>244.66666666666666</ele><time>2026-05-02T16:15:50.667Z</time></trkpt><trkpt lat="43.4762295" lon="11.1832737"><ele>244.0</ele><time>2026-05-02T16:15:51.685Z</time></trkpt><trkpt lat="43.4761978" lon="11.1830453"><ele>243.66666666666666</ele><time>2026-05-02T16:15:52.689Z</time></trkpt><trkpt lat="43.4761704" lon="11.1828102"><ele>243.33333333333331</ele><time>2026-05-02T16:15:53.685Z</time></trkpt><trkpt lat="43.4761452" lon="11.1825718"><ele>243.0</ele><time>2026-05-02T16:15:54.681Z</time></trkpt><trkpt lat="43.4761169" lon="11.182337"><ele>243.66666666666669</ele><time>2026-05-02T16:15:55.686Z</time></trkpt><trkpt lat="43.4760757" lon="11.1821075"><ele>244.33333333333334</ele><time>2026-05-02T16:15:56.694Z</time></trkpt><trkpt lat="43.4760167" lon="11.1818821"><ele>245.0</ele><time>2026-05-02T16:15:57.69Z</time></trkpt><trkpt lat="43.4759507" lon="11.1816684"><ele>244.75</ele><time>2026-05-02T16:15:58.699Z</time></trkpt><trkpt lat="43.4758904" lon="11.1814672"><ele>244.5</ele><time>2026-05-02T16:15:59.713Z</time></trkpt><trkpt lat="43.4758447" lon="11.1812758"><ele>244.25</ele><time>2026-05-02T16:16:00.698Z</time></trkpt><trkpt lat="43.4758197" lon="11.1810854"><ele>244.0</ele><time>2026-05-02T16:16:01.696Z</time></trkpt><trkpt lat="43.4758192" lon="11.180893"><ele>244.0</ele><time>2026-05-02T16:16:02.69Z</time></trkpt><trkpt lat="43.4758481" lon="11.1807018"><ele>244.0</ele><time>2026-05-02T16:16:03.677Z</time></trkpt><trkpt lat="43.4758805" lon="11.1805061"><ele>244.0</ele><time>2026-05-02T16:16:04.696Z</time></trkpt><trkpt lat="43.4759292" lon="11.1803137"><ele>244.0</ele><time>2026-05-02T16:16:05.695Z</time></trkpt><trkpt lat="43.4759822" lon="11.180113"><ele>243.0</ele><time>2026-05-02T16:16:06.688Z</time></trkpt><trkpt lat="43.4760286" lon="11.1799005"><ele>242.0</ele><time>2026-05-02T16:16:07.689Z</time></trkpt><trkpt lat="43.4760694" lon="11.1796782"><ele>241.0</ele><time>2026-05-02T16:16:08.691Z</time></trkpt><trkpt lat="43.4761066" lon="11.1794517"><ele>237.66666666666666</ele><time>2026-05-02T16:16:09.699Z</time></trkpt><trkpt lat="43.4761359" lon="11.1792252"><ele>234.33333333333331</ele><time>2026-05-02T16:16:10.699Z</time></trkpt><trkpt lat="43.4761649" lon="11.1789963"><ele>231.0</ele><time>2026-05-02T16:16:11.682Z</time></trkpt><trkpt lat="43.4761958" lon="11.1787625"><ele>232.33333333333331</ele><time>2026-05-02T16:16:12.707Z</time></trkpt><trkpt lat="43.4762268" lon="11.1785362"><ele>233.66666666666666</ele><time>2026-05-02T16:16:13.687Z</time></trkpt><trkpt lat="43.4762529" lon="11.1783097"><ele>235.0</ele><time>2026-05-02T16:16:14.699Z</time></trkpt><trkpt lat="43.4762802" lon="11.1780864"><ele>235.0</ele><time>2026-05-02T16:16:15.704Z</time></trkpt><trkpt lat="43.4763081" lon="11.1778628"><ele>235.0</ele><time>2026-05-02T16:16:16.701Z</time></trkpt><trkpt lat="43.4763377" lon="11.1776413"><ele>235.0</ele><time>2026-05-02T16:16:17.689Z</time></trkpt><trkpt lat="43.4763654" lon="11.177417"><ele>234.0</ele><time>2026-05-02T16:16:18.694Z</time></trkpt><trkpt lat="43.4763942" lon="11.177192"><ele>233.0</ele><time>2026-05-02T16:16:19.698Z</time></trkpt><trkpt lat="43.4764208" lon="11.1769705"><ele>232.0</ele><time>2026-05-02T16:16:20.693Z</time></trkpt><trkpt lat="43.4764482" lon="11.1767518"><ele>232.0</ele><time>2026-05-02T16:16:21.689Z</time></trkpt><trkpt lat="43.4764719" lon="11.1765323"><ele>232.0</ele><time>2026-05-02T16:16:22.707Z</time></trkpt><trkpt lat="43.476489" lon="11.1763215"><ele>232.0</ele><time>2026-05-02T16:16:23.695Z</time></trkpt><trkpt lat="43.4764934" lon="11.1761111"><ele>231.33333333333331</ele><time>2026-05-02T16:16:24.696Z</time></trkpt><trkpt lat="43.4764847" lon="11.1759008"><ele>230.66666666666669</ele><time>2026-05-02T16:16:25.688Z</time></trkpt><trkpt lat="43.4764621" lon="11.175694"><ele>230.0</ele><time>2026-05-02T16:16:26.669Z</time></trkpt><trkpt lat="43.476435" lon="11.1754882"><ele>228.75</ele><time>2026-05-02T16:16:27.691Z</time></trkpt><trkpt lat="43.4764015" lon="11.1752953"><ele>227.5</ele><time>2026-05-02T16:16:28.677Z</time></trkpt><trkpt lat="43.4763554" lon="11.1751128"><ele>226.25</ele><time>2026-05-02T16:16:29.691Z</time></trkpt><trkpt lat="43.476306" lon="11.1749414"><ele>225.0</ele><time>2026-05-02T16:16:30.68Z</time></trkpt><trkpt lat="43.4762274" lon="11.1747769"><ele>225.0</ele><time>2026-05-02T16:16:31.685Z</time></trkpt><trkpt lat="43.4761212" lon="11.1746284"><ele>225.0</ele><time>2026-05-02T16:16:32.69Z</time></trkpt><trkpt lat="43.4760028" lon="11.1744826"><ele>225.0</ele><time>2026-05-02T16:16:33.679Z</time></trkpt><trkpt lat="43.4758845" lon="11.174326"><ele>225.0</ele><time>2026-05-02T16:16:34.683Z</time></trkpt><trkpt lat="43.4757604" lon="11.1741712"><ele>225.0</ele><time>2026-05-02T16:16:35.696Z</time></trkpt><trkpt lat="43.4756421" lon="11.1740218"><ele>225.0</ele><time>2026-05-02T16:16:36.681Z</time></trkpt><trkpt lat="43.4755329" lon="11.1738715"><ele>225.75</ele><time>2026-05-02T16:16:37.703Z</time></trkpt><trkpt lat="43.4754399" lon="11.1737198"><ele>226.5</ele><time>2026-05-02T16:16:38.692Z</time></trkpt><trkpt lat="43.4753648" lon="11.1735547"><ele>227.25</ele><time>2026-05-02T16:16:39.694Z</time></trkpt><trkpt lat="43.475311" lon="11.1733777"><ele>228.0</ele><time>2026-05-02T16:16:40.685Z</time></trkpt><trkpt lat="43.4752763" lon="11.1731871"><ele>223.5</ele><time>2026-05-02T16:16:41.689Z</time></trkpt><trkpt lat="43.4752535" lon="11.172986"><ele>219.0</ele><time>2026-05-02T16:16:42.706Z</time></trkpt><trkpt lat="43.4752372" lon="11.1727874"><ele>214.5</ele><time>2026-05-02T16:16:43.688Z</time></trkpt><trkpt lat="43.4752284" lon="11.1725946"><ele>210.0</ele><time>2026-05-02T16:16:44.688Z</time></trkpt><trkpt lat="43.4752413" lon="11.172411"><ele>210.0</ele><time>2026-05-02T16:16:45.678Z</time></trkpt><trkpt lat="43.4752825" lon="11.1722431"><ele>210.0</ele><time>2026-05-02T16:16:46.686Z</time></trkpt><trkpt lat="43.4753577" lon="11.1721102"><ele>210.0</ele><time>2026-05-02T16:16:47.677Z</time></trkpt><trkpt lat="43.4754538" lon="11.1720152"><ele>210.0</ele><time>2026-05-02T16:16:48.683Z</time></trkpt><trkpt lat="43.475559" lon="11.1719344"><ele>210.0</ele><time>2026-05-02T16:16:49.673Z</time></trkpt><trkpt lat="43.4756932" lon="11.1718951"><ele>210.0</ele><time>2026-05-02T16:16:50.681Z</time></trkpt><trkpt lat="43.4758246" lon="11.1718594"><ele>210.0</ele><time>2026-05-02T16:16:51.683Z</time></trkpt><trkpt lat="43.47594" lon="11.1718072"><ele>210.0</ele><time>2026-05-02T16:16:52.684Z</time></trkpt><trkpt lat="43.4760388" lon="11.1717181"><ele>210.0</ele><time>2026-05-02T16:16:53.68Z</time></trkpt><trkpt lat="43.4761088" lon="11.1715892"><ele>210.0</ele><time>2026-05-02T16:16:54.677Z</time></trkpt><trkpt lat="43.476148" lon="11.1714382"><ele>210.0</ele><time>2026-05-02T16:16:55.679Z</time></trkpt><trkpt lat="43.4761515" lon="11.1712804"><ele>210.0</ele><time>2026-05-02T16:16:56.685Z</time></trkpt><trkpt lat="43.4761168" lon="11.1711277"><ele>210.5</ele><time>2026-05-02T16:16:57.68Z</time></trkpt><trkpt lat="43.4760477" lon="11.170998"><ele>211.0</ele><time>2026-05-02T16:16:58.678Z</time></trkpt><trkpt lat="43.4759422" lon="11.1709004"><ele>211.5</ele><time>2026-05-02T16:16:59.666Z</time></trkpt><trkpt lat="43.4758212" lon="11.1708286"><ele>212.0</ele><time>2026-05-02T16:17:00.677Z</time></trkpt><trkpt lat="43.4756918" lon="11.1707667"><ele>212.0</ele><time>2026-05-02T16:17:01.682Z</time></trkpt><trkpt lat="43.4755619" lon="11.1707044"><ele>212.0</ele><time>2026-05-02T16:17:02.683Z</time></trkpt><trkpt lat="43.4754629" lon="11.1705998"><ele>212.0</ele><time>2026-05-02T16:17:03.689Z</time></trkpt><trkpt lat="43.4753844" lon="11.1704649"><ele>212.0</ele><time>2026-05-02T16:17:04.682Z</time></trkpt><trkpt lat="43.4753162" lon="11.1703049"><ele>206.66666666666669</ele><time>2026-05-02T16:17:05.668Z</time></trkpt><trkpt lat="43.4752818" lon="11.170099"><ele>201.33333333333331</ele><time>2026-05-02T16:17:06.678Z</time></trkpt><trkpt lat="43.4752567" lon="11.1698897"><ele>196.0</ele><time>2026-05-02T16:17:07.682Z</time></trkpt><trkpt lat="43.47525" lon="11.1696767"><ele>194.75</ele><time>2026-05-02T16:17:08.683Z</time></trkpt><trkpt lat="43.4752664" lon="11.1694676"><ele>193.5</ele><time>2026-05-02T16:17:09.68Z</time></trkpt><trkpt lat="43.4752882" lon="11.1692705"><ele>192.25</ele><time>2026-05-02T16:17:10.703Z</time></trkpt><trkpt lat="43.4753208" lon="11.1690941"><ele>191.0</ele><time>2026-05-02T16:17:11.689Z</time></trkpt><trkpt lat="43.4753667" lon="11.1689311"><ele>192.25</ele><time>2026-05-02T16:17:12.697Z</time></trkpt><trkpt lat="43.4754314" lon="11.1687958"><ele>193.5</ele><time>2026-05-02T16:17:13.699Z</time></trkpt><trkpt lat="43.4754997" lon="11.1686746"><ele>194.75</ele><time>2026-05-02T16:17:14.697Z</time></trkpt><trkpt lat="43.4756124" lon="11.1685914"><ele>196.0</ele><time>2026-05-02T16:17:15.695Z</time></trkpt><trkpt lat="43.4757369" lon="11.1685444"><ele>196.0</ele><time>2026-05-02T16:17:16.69Z</time></trkpt><trkpt lat="43.4758711" lon="11.1685214"><ele>196.0</ele><time>2026-05-02T16:17:17.693Z</time></trkpt><trkpt lat="43.4760003" lon="11.168506"><ele>196.0</ele><time>2026-05-02T16:17:18.692Z</time></trkpt><trkpt lat="43.4761162" lon="11.1684725"><ele>196.0</ele><time>2026-05-02T16:17:19.698Z</time></trkpt><trkpt lat="43.4762101" lon="11.1684014"><ele>195.60000000000002</ele><time>2026-05-02T16:17:20.675Z</time></trkpt><trkpt lat="43.4762768" lon="11.1682922"><ele>195.2</ele><time>2026-05-02T16:17:21.688Z</time></trkpt><trkpt lat="43.4763066" lon="11.1681662"><ele>194.8</ele><time>2026-05-02T16:17:22.685Z</time></trkpt><trkpt lat="43.4763015" lon="11.1680341"><ele>194.39999999999998</ele><time>2026-05-02T16:17:23.682Z</time></trkpt><trkpt lat="43.4762456" lon="11.167908"><ele>194.0</ele><time>2026-05-02T16:17:24.678Z</time></trkpt><trkpt lat="43.476128" lon="11.1677979"><ele>194.0</ele><time>2026-05-02T16:17:25.676Z</time></trkpt><trkpt lat="43.476016" lon="11.1676928"><ele>194.0</ele><time>2026-05-02T16:17:26.685Z</time></trkpt><trkpt lat="43.4758646" lon="11.1676162"><ele>194.0</ele><time>2026-05-02T16:17:27.678Z</time></trkpt><trkpt lat="43.4757024" lon="11.167544"><ele>194.0</ele><time>2026-05-02T16:17:28.679Z</time></trkpt><trkpt lat="43.4755418" lon="11.1674509"><ele>194.0</ele><time>2026-05-02T16:17:29.681Z</time></trkpt><trkpt lat="43.4753955" lon="11.1673388"><ele>194.0</ele><time>2026-05-02T16:17:30.681Z</time></trkpt><trkpt lat="43.4752698" lon="11.1671894"><ele>190.33333333333334</ele><time>2026-05-02T16:17:31.68Z</time></trkpt><trkpt lat="43.4751592" lon="11.1670152"><ele>186.66666666666669</ele><time>2026-05-02T16:17:32.678Z</time></trkpt><trkpt lat="43.475071" lon="11.166817"><ele>183.0</ele><time>2026-05-02T16:17:33.682Z</time></trkpt><trkpt lat="43.4750063" lon="11.1665973"><ele>183.66666666666666</ele><time>2026-05-02T16:17:34.684Z</time></trkpt><trkpt lat="43.4749613" lon="11.1663655"><ele>184.33333333333331</ele><time>2026-05-02T16:17:35.705Z</time></trkpt><trkpt lat="43.4749316" lon="11.1661289"><ele>185.0</ele><time>2026-05-02T16:17:36.687Z</time></trkpt><trkpt lat="43.4749028" lon="11.1658834"><ele>184.66666666666666</ele><time>2026-05-02T16:17:37.691Z</time></trkpt><trkpt lat="43.4748715" lon="11.165637"><ele>184.33333333333334</ele><time>2026-05-02T16:17:38.682Z</time></trkpt><trkpt lat="43.4748423" lon="11.165388"><ele>184.0</ele><time>2026-05-02T16:17:39.692Z</time></trkpt><trkpt lat="43.4748202" lon="11.1651392"><ele>184.0</ele><time>2026-05-02T16:17:40.672Z</time></trkpt><trkpt lat="43.4748095" lon="11.1648857"><ele>184.0</ele><time>2026-05-02T16:17:41.674Z</time></trkpt><trkpt lat="43.474815" lon="11.1646361"><ele>184.0</ele><time>2026-05-02T16:17:42.678Z</time></trkpt><trkpt lat="43.4748378" lon="11.1643898"><ele>182.66666666666669</ele><time>2026-05-02T16:17:43.675Z</time></trkpt><trkpt lat="43.4748706" lon="11.1641442"><ele>181.33333333333334</ele><time>2026-05-02T16:17:44.686Z</time></trkpt><trkpt lat="43.4748998" lon="11.1638999"><ele>180.0</ele><time>2026-05-02T16:17:45.685Z</time></trkpt><trkpt lat="43.4749182" lon="11.1636538"><ele>178.66666666666666</ele><time>2026-05-02T16:17:46.682Z</time></trkpt><trkpt lat="43.4749248" lon="11.1634049"><ele>177.33333333333331</ele><time>2026-05-02T16:17:47.69Z</time></trkpt><trkpt lat="43.4749284" lon="11.1631591"><ele>176.0</ele><time>2026-05-02T16:17:48.683Z</time></trkpt><trkpt lat="43.474922" lon="11.16291"><ele>174.66666666666666</ele><time>2026-05-02T16:17:49.68Z</time></trkpt><trkpt lat="43.4749095" lon="11.162669"><ele>173.33333333333334</ele><time>2026-05-02T16:17:50.673Z</time></trkpt><trkpt lat="43.4748948" lon="11.1624344"><ele>172.0</ele><time>2026-05-02T16:17:51.676Z</time></trkpt><trkpt lat="43.4748773" lon="11.162206"><ele>171.25</ele><time>2026-05-02T16:17:52.679Z</time></trkpt><trkpt lat="43.4748633" lon="11.1619923"><ele>170.5</ele><time>2026-05-02T16:17:53.678Z</time></trkpt><trkpt lat="43.4748567" lon="11.1617967"><ele>169.75</ele><time>2026-05-02T16:17:54.68Z</time></trkpt><trkpt lat="43.4748618" lon="11.1616112"><ele>169.0</ele><time>2026-05-02T16:17:55.701Z</time></trkpt><trkpt lat="43.4748869" lon="11.1614375"><ele>168.0</ele><time>2026-05-02T16:17:56.686Z</time></trkpt><trkpt lat="43.4749268" lon="11.1612676"><ele>167.0</ele><time>2026-05-02T16:17:57.679Z</time></trkpt><trkpt lat="43.4749811" lon="11.1611016"><ele>166.0</ele><time>2026-05-02T16:17:58.69Z</time></trkpt><trkpt lat="43.4750161" lon="11.1609266"><ele>165.0</ele><time>2026-05-02T16:17:59.687Z</time></trkpt><trkpt lat="43.4750236" lon="11.1607411"><ele>164.33333333333334</ele><time>2026-05-02T16:18:00.696Z</time></trkpt><trkpt lat="43.4749896" lon="11.1605466"><ele>163.66666666666669</ele><time>2026-05-02T16:18:01.688Z</time></trkpt><trkpt lat="43.4749426" lon="11.1603368"><ele>163.0</ele><time>2026-05-02T16:18:02.679Z</time></trkpt><trkpt lat="43.4748925" lon="11.1601152"><ele>163.0</ele><time>2026-05-02T16:18:03.691Z</time></trkpt><trkpt lat="43.4748499" lon="11.1598973"><ele>163.0</ele><time>2026-05-02T16:18:04.692Z</time></trkpt><trkpt lat="43.4748184" lon="11.1596872"><ele>163.0</ele><time>2026-05-02T16:18:05.678Z</time></trkpt><trkpt lat="43.4747977" lon="11.159476"><ele>161.66666666666669</ele><time>2026-05-02T16:18:06.681Z</time></trkpt><trkpt lat="43.4747875" lon="11.1592587"><ele>160.33333333333334</ele><time>2026-05-02T16:18:07.684Z</time></trkpt><trkpt lat="43.4747901" lon="11.1590349"><ele>159.0</ele><time>2026-05-02T16:18:08.688Z</time></trkpt><trkpt lat="43.4748032" lon="11.1588065"><ele>157.0</ele><time>2026-05-02T16:18:09.686Z</time></trkpt><trkpt lat="43.4748178" lon="11.1585769"><ele>155.0</ele><time>2026-05-02T16:18:10.675Z</time></trkpt><trkpt lat="43.4748316" lon="11.158358"><ele>153.0</ele><time>2026-05-02T16:18:11.663Z</time></trkpt><trkpt lat="43.4748525" lon="11.1581402"><ele>151.0</ele><time>2026-05-02T16:18:12.68Z</time></trkpt><trkpt lat="43.4748807" lon="11.1579258"><ele>149.0</ele><time>2026-05-02T16:18:13.679Z</time></trkpt><trkpt lat="43.4749206" lon="11.1577144"><ele>147.0</ele><time>2026-05-02T16:18:14.686Z</time></trkpt><trkpt lat="43.4749681" lon="11.1575091"><ele>145.33333333333334</ele><time>2026-05-02T16:18:15.688Z</time></trkpt><trkpt lat="43.4750309" lon="11.1573094"><ele>143.66666666666669</ele><time>2026-05-02T16:18:16.679Z</time></trkpt><trkpt lat="43.4751047" lon="11.1571046"><ele>142.0</ele><time>2026-05-02T16:18:17.69Z</time></trkpt><trkpt lat="43.4751764" lon="11.1569025"><ele>142.0</ele><time>2026-05-02T16:18:18.7Z</time></trkpt><trkpt lat="43.4752433" lon="11.1567071"><ele>142.0</ele><time>2026-05-02T16:18:19.691Z</time></trkpt><trkpt lat="43.4753063" lon="11.1565209"><ele>142.0</ele><time>2026-05-02T16:18:20.674Z</time></trkpt><trkpt lat="43.4753665" lon="11.1563385"><ele>141.75</ele><time>2026-05-02T16:18:21.697Z</time></trkpt><trkpt lat="43.4754145" lon="11.1561633"><ele>141.5</ele><time>2026-05-02T16:18:22.695Z</time></trkpt><trkpt lat="43.4754406" lon="11.1559875"><ele>141.25</ele><time>2026-05-02T16:18:23.687Z</time></trkpt><trkpt lat="43.4754371" lon="11.155808"><ele>141.0</ele><time>2026-05-02T16:18:24.697Z</time></trkpt><trkpt lat="43.4754035" lon="11.1556309"><ele>141.0</ele><time>2026-05-02T16:18:25.69Z</time></trkpt><trkpt lat="43.4753257" lon="11.155463"><ele>141.0</ele><time>2026-05-02T16:18:26.686Z</time></trkpt><trkpt lat="43.475229" lon="11.1553082"><ele>141.0</ele><time>2026-05-02T16:18:27.686Z</time></trkpt><trkpt lat="43.4751131" lon="11.1551629"><ele>141.0</ele><time>2026-05-02T16:18:28.693Z</time></trkpt><trkpt lat="43.474996" lon="11.155022"><ele>141.0</ele><time>2026-05-02T16:18:29.697Z</time></trkpt><trkpt lat="43.4748903" lon="11.1548838"><ele>141.0</ele><time>2026-05-02T16:18:30.683Z</time></trkpt><trkpt lat="43.4747974" lon="11.1547416"><ele>141.0</ele><time>2026-05-02T16:18:31.678Z</time></trkpt><trkpt lat="43.4747235" lon="11.1545876"><ele>141.0</ele><time>2026-05-02T16:18:32.685Z</time></trkpt><trkpt lat="43.4746692" lon="11.1544191"><ele>141.5</ele><time>2026-05-02T16:18:33.675Z</time></trkpt><trkpt lat="43.4746287" lon="11.1542319"><ele>142.0</ele><time>2026-05-02T16:18:34.683Z</time></trkpt><trkpt lat="43.4746" lon="11.1540393"><ele>142.5</ele><time>2026-05-02T16:18:35.68Z</time></trkpt><trkpt lat="43.4745816" lon="11.1538535"><ele>143.0</ele><time>2026-05-02T16:18:36.668Z</time></trkpt><trkpt lat="43.4745791" lon="11.1536787"><ele>141.25</ele><time>2026-05-02T16:18:37.685Z</time></trkpt><trkpt lat="43.4745857" lon="11.1535192"><ele>139.5</ele><time>2026-05-02T16:18:38.686Z</time></trkpt><trkpt lat="43.4746377" lon="11.1533719"><ele>137.75</ele><time>2026-05-02T16:18:39.677Z</time></trkpt><trkpt lat="43.4747249" lon="11.1532698"><ele>136.0</ele><time>2026-05-02T16:18:40.702Z</time></trkpt><trkpt lat="43.4748264" lon="11.1531947"><ele>133.5</ele><time>2026-05-02T16:18:41.666Z</time></trkpt><trkpt lat="43.4749518" lon="11.1531302"><ele>131.0</ele><time>2026-05-02T16:18:42.683Z</time></trkpt><trkpt lat="43.4750936" lon="11.1530573"><ele>128.5</ele><time>2026-05-02T16:18:43.699Z</time></trkpt><trkpt lat="43.4752424" lon="11.15297"><ele>126.0</ele><time>2026-05-02T16:18:44.677Z</time></trkpt><trkpt lat="43.4753893" lon="11.1528803"><ele>127.25</ele><time>2026-05-02T16:18:45.68Z</time></trkpt><trkpt lat="43.4755281" lon="11.152797"><ele>128.5</ele><time>2026-05-02T16:18:46.695Z</time></trkpt><trkpt lat="43.4756609" lon="11.1527175"><ele>129.75</ele><time>2026-05-02T16:18:47.698Z</time></trkpt><trkpt lat="43.4757846" lon="11.1526396"><ele>131.0</ele><time>2026-05-02T16:18:48.664Z</time></trkpt><trkpt lat="43.4759003" lon="11.1525614"><ele>131.0</ele><time>2026-05-02T16:18:49.69Z</time></trkpt><trkpt lat="43.4759989" lon="11.1524757"><ele>131.0</ele><time>2026-05-02T16:18:50.681Z</time></trkpt><trkpt lat="43.4760775" lon="11.152367"><ele>131.0</ele><time>2026-05-02T16:18:51.697Z</time></trkpt><trkpt lat="43.4761317" lon="11.1522408"><ele>131.0</ele><time>2026-05-02T16:18:52.682Z</time></trkpt><trkpt lat="43.4761701" lon="11.1520983"><ele>131.0</ele><time>2026-05-02T16:18:53.689Z</time></trkpt><trkpt lat="43.4761611" lon="11.1519412"><ele>129.25</ele><time>2026-05-02T16:18:54.679Z</time></trkpt><trkpt lat="43.4761464" lon="11.15178"><ele>127.5</ele><time>2026-05-02T16:18:55.666Z</time></trkpt><trkpt lat="43.4760972" lon="11.1515976"><ele>125.75</ele><time>2026-05-02T16:18:56.684Z</time></trkpt><trkpt lat="43.4760358" lon="11.1514037"><ele>124.0</ele><time>2026-05-02T16:18:57.671Z</time></trkpt><trkpt lat="43.4759563" lon="11.1512095"><ele>123.66666666666667</ele><time>2026-05-02T16:18:58.679Z</time></trkpt><trkpt lat="43.4758655" lon="11.1510254"><ele>123.33333333333334</ele><time>2026-05-02T16:18:59.664Z</time></trkpt><trkpt lat="43.4757765" lon="11.1508503"><ele>123.0</ele><time>2026-05-02T16:19:00.685Z</time></trkpt><trkpt lat="43.4756971" lon="11.1506886"><ele>123.0</ele><time>2026-05-02T16:19:01.666Z</time></trkpt><trkpt lat="43.4756266" lon="11.1505251"><ele>123.0</ele><time>2026-05-02T16:19:02.682Z</time></trkpt><trkpt lat="43.4755656" lon="11.150369"><ele>123.0</ele><time>2026-05-02T16:19:03.666Z</time></trkpt><trkpt lat="43.4755101" lon="11.1502065"><ele>123.0</ele><time>2026-05-02T16:19:04.674Z</time></trkpt><trkpt lat="43.4754581" lon="11.1500424"><ele>119.25</ele><time>2026-05-02T16:19:05.692Z</time></trkpt><trkpt lat="43.4754206" lon="11.1498753"><ele>115.5</ele><time>2026-05-02T16:19:06.683Z</time></trkpt><trkpt lat="43.475403" lon="11.149704"><ele>111.75</ele><time>2026-05-02T16:19:07.691Z</time></trkpt><trkpt lat="43.4754044" lon="11.1495234"><ele>108.0</ele><time>2026-05-02T16:19:08.686Z</time></trkpt><trkpt lat="43.4754187" lon="11.1493319"><ele>108.25</ele><time>2026-05-02T16:19:09.689Z</time></trkpt><trkpt lat="43.4754414" lon="11.1491365"><ele>108.5</ele><time>2026-05-02T16:19:10.684Z</time></trkpt><trkpt lat="43.4754711" lon="11.1489386"><ele>108.75</ele><time>2026-05-02T16:19:11.685Z</time></trkpt><trkpt lat="43.4755002" lon="11.1487439"><ele>109.0</ele><time>2026-05-02T16:19:12.676Z</time></trkpt><trkpt lat="43.4755467" lon="11.1485576"><ele>109.0</ele><time>2026-05-02T16:19:13.683Z</time></trkpt><trkpt lat="43.4756185" lon="11.1483833"><ele>109.0</ele><time>2026-05-02T16:19:14.683Z</time></trkpt><trkpt lat="43.4757055" lon="11.1482251"><ele>109.0</ele><time>2026-05-02T16:19:15.691Z</time></trkpt><trkpt lat="43.4758018" lon="11.1480957"><ele>109.0</ele><time>2026-05-02T16:19:16.687Z</time></trkpt><trkpt lat="43.475894" lon="11.1479811"><ele>108.0</ele><time>2026-05-02T16:19:17.669Z</time></trkpt><trkpt lat="43.4759797" lon="11.1478673"><ele>107.0</ele><time>2026-05-02T16:19:18.682Z</time></trkpt><trkpt lat="43.4760474" lon="11.1477638"><ele>106.0</ele><time>2026-05-02T16:19:19.694Z</time></trkpt><trkpt lat="43.4761071" lon="11.1476674"><ele>105.0</ele><time>2026-05-02T16:19:20.682Z</time></trkpt><trkpt lat="43.4761657" lon="11.147573"><ele>104.0</ele><time>2026-05-02T16:19:21.675Z</time></trkpt><trkpt lat="43.4762222" lon="11.1474783"><ele>103.99999999999999</ele><time>2026-05-02T16:19:22.695Z</time></trkpt><trkpt lat="43.4762683" lon="11.1473808"><ele>104.0</ele><time>2026-05-02T16:19:23.686Z</time></trkpt><trkpt lat="43.4763047" lon="11.1472922"><ele>104.0</ele><time>2026-05-02T16:19:24.682Z</time></trkpt><trkpt lat="43.4763519" lon="11.1471651"><ele>104.0</ele><time>2026-05-02T16:19:26.696Z</time></trkpt><trkpt lat="43.4764011" lon="11.1470806"><ele>103.99999999999999</ele><time>2026-05-02T16:19:29.679Z</time></trkpt><trkpt lat="43.4764886" lon="11.1470199"><ele>104.0</ele><time>2026-05-02T16:19:34.69Z</time></trkpt><trkpt lat="43.4765575" lon="11.1470058"><ele>103.5</ele><time>2026-05-02T16:19:35.687Z</time></trkpt><trkpt lat="43.4766519" lon="11.147031"><ele>103.0</ele><time>2026-05-02T16:19:36.682Z</time></trkpt><trkpt lat="43.4767594" lon="11.1470616"><ele>102.5</ele><time>2026-05-02T16:19:37.689Z</time></trkpt><trkpt lat="43.4768754" lon="11.1470957"><ele>102.0</ele><time>2026-05-02T16:19:38.687Z</time></trkpt><trkpt lat="43.4770013" lon="11.1471245"><ele>102.0</ele><time>2026-05-02T16:19:39.684Z</time></trkpt><trkpt lat="43.4771328" lon="11.1471543"><ele>102.0</ele><time>2026-05-02T16:19:40.694Z</time></trkpt><trkpt lat="43.4772611" lon="11.1471809"><ele>102.0</ele><time>2026-05-02T16:19:41.688Z</time></trkpt><trkpt lat="43.4773761" lon="11.1472092"><ele>102.0</ele><time>2026-05-02T16:19:42.682Z</time></trkpt><trkpt lat="43.4774797" lon="11.1472324"><ele>102.0</ele><time>2026-05-02T16:19:43.687Z</time></trkpt><trkpt lat="43.477579" lon="11.1472573"><ele>102.0</ele><time>2026-05-02T16:19:44.728Z</time></trkpt><trkpt lat="43.4776712" lon="11.1472799"><ele>102.0</ele><time>2026-05-02T16:19:45.699Z</time></trkpt><trkpt lat="43.4777581" lon="11.1473008"><ele>102.0</ele><time>2026-05-02T16:19:46.701Z</time></trkpt><trkpt lat="43.4778377" lon="11.1473197"><ele>102.0</ele><time>2026-05-02T16:19:47.689Z</time></trkpt><trkpt lat="43.4779094" lon="11.1473379"><ele>102.0</ele><time>2026-05-02T16:19:48.7Z</time></trkpt><trkpt lat="43.4779816" lon="11.1473618"><ele>103.6</ele><time>2026-05-02T16:19:49.678Z</time></trkpt><trkpt lat="43.4780619" lon="11.1473903"><ele>105.19999999999999</ele><time>2026-05-02T16:19:50.684Z</time></trkpt><trkpt lat="43.4781481" lon="11.1474109"><ele>106.8</ele><time>2026-05-02T16:19:51.687Z</time></trkpt><trkpt lat="43.4782357" lon="11.1474119"><ele>108.4</ele><time>2026-05-02T16:19:52.687Z</time></trkpt><trkpt lat="43.4783282" lon="11.1474017"><ele>110.0</ele><time>2026-05-02T16:19:53.684Z</time></trkpt><trkpt lat="43.4784328" lon="11.1473962"><ele>110.0</ele><time>2026-05-02T16:19:54.668Z</time></trkpt><trkpt lat="43.4785505" lon="11.1473998"><ele>110.0</ele><time>2026-05-02T16:19:55.667Z</time></trkpt><trkpt lat="43.4786788" lon="11.1474112"><ele>110.0</ele><time>2026-05-02T16:19:56.67Z</time></trkpt><trkpt lat="43.4788075" lon="11.1474256"><ele>110.0</ele><time>2026-05-02T16:19:57.674Z</time></trkpt><trkpt lat="43.4789228" lon="11.1474406"><ele>111.4</ele><time>2026-05-02T16:19:58.675Z</time></trkpt><trkpt lat="43.4790288" lon="11.1474533"><ele>112.8</ele><time>2026-05-02T16:19:59.677Z</time></trkpt><trkpt lat="43.479131" lon="11.1474651"><ele>114.19999999999999</ele><time>2026-05-02T16:20:00.688Z</time></trkpt><trkpt lat="43.4792343" lon="11.1474779"><ele>115.6</ele><time>2026-05-02T16:20:01.695Z</time></trkpt><trkpt lat="43.4793399" lon="11.1474996"><ele>117.0</ele><time>2026-05-02T16:20:02.69Z</time></trkpt><trkpt lat="43.4794424" lon="11.147516"><ele>117.0</ele><time>2026-05-02T16:20:03.694Z</time></trkpt><trkpt lat="43.4795457" lon="11.1475228"><ele>116.99999999999999</ele><time>2026-05-02T16:20:04.695Z</time></trkpt><trkpt lat="43.4796519" lon="11.1475303"><ele>116.99999999999999</ele><time>2026-05-02T16:20:05.705Z</time></trkpt><trkpt lat="43.4797559" lon="11.1475377"><ele>117.0</ele><time>2026-05-02T16:20:06.689Z</time></trkpt><trkpt lat="43.4798593" lon="11.1475416"><ele>117.0</ele><time>2026-05-02T16:20:07.684Z</time></trkpt><trkpt lat="43.4799593" lon="11.1475475"><ele>118.39999999999999</ele><time>2026-05-02T16:20:08.689Z</time></trkpt><trkpt lat="43.4800546" lon="11.1475537"><ele>119.79999999999998</ele><time>2026-05-02T16:20:09.696Z</time></trkpt><trkpt lat="43.480148" lon="11.1475646"><ele>121.2</ele><time>2026-05-02T16:20:10.678Z</time></trkpt><trkpt lat="43.4802382" lon="11.1475761"><ele>122.6</ele><time>2026-05-02T16:20:11.677Z</time></trkpt><trkpt lat="43.4803323" lon="11.1476046"><ele>124.0</ele><time>2026-05-02T16:20:12.673Z</time></trkpt><trkpt lat="43.480431" lon="11.1476443"><ele>123.0</ele><time>2026-05-02T16:20:13.692Z</time></trkpt><trkpt lat="43.4805365" lon="11.1476803"><ele>122.0</ele><time>2026-05-02T16:20:14.685Z</time></trkpt><trkpt lat="43.4806539" lon="11.1477252"><ele>121.0</ele><time>2026-05-02T16:20:15.695Z</time></trkpt><trkpt lat="43.4807758" lon="11.1477783"><ele>120.0</ele><time>2026-05-02T16:20:16.683Z</time></trkpt><trkpt lat="43.4809091" lon="11.1478376"><ele>120.0</ele><time>2026-05-02T16:20:17.685Z</time></trkpt><trkpt lat="43.4810465" lon="11.1478998"><ele>120.0</ele><time>2026-05-02T16:20:18.679Z</time></trkpt><trkpt lat="43.4811917" lon="11.1479686"><ele>120.0</ele><time>2026-05-02T16:20:19.68Z</time></trkpt><trkpt lat="43.4813359" lon="11.1480449"><ele>120.33333333333334</ele><time>2026-05-02T16:20:20.69Z</time></trkpt><trkpt lat="43.4814811" lon="11.1481183"><ele>120.66666666666667</ele><time>2026-05-02T16:20:21.694Z</time></trkpt><trkpt lat="43.4816266" lon="11.1481943"><ele>121.0</ele><time>2026-05-02T16:20:22.686Z</time></trkpt><trkpt lat="43.4817717" lon="11.1482719"><ele>121.0</ele><time>2026-05-02T16:20:23.687Z</time></trkpt><trkpt lat="43.4819153" lon="11.148349"><ele>121.0</ele><time>2026-05-02T16:20:24.676Z</time></trkpt><trkpt lat="43.4820611" lon="11.148422"><ele>121.0</ele><time>2026-05-02T16:20:25.675Z</time></trkpt><trkpt lat="43.4822127" lon="11.1485049"><ele>118.66666666666667</ele><time>2026-05-02T16:20:26.681Z</time></trkpt><trkpt lat="43.4823607" lon="11.1485981"><ele>116.33333333333334</ele><time>2026-05-02T16:20:27.691Z</time></trkpt><trkpt lat="43.4825029" lon="11.1486838"><ele>114.0</ele><time>2026-05-02T16:20:28.689Z</time></trkpt><trkpt lat="43.4826495" lon="11.148756"><ele>114.0</ele><time>2026-05-02T16:20:29.671Z</time></trkpt><trkpt lat="43.4827921" lon="11.1488347"><ele>114.0</ele><time>2026-05-02T16:20:30.678Z</time></trkpt><trkpt lat="43.4829474" lon="11.1489014"><ele>114.0</ele><time>2026-05-02T16:20:31.672Z</time></trkpt><trkpt lat="43.4830897" lon="11.1489712"><ele>113.0</ele><time>2026-05-02T16:20:32.695Z</time></trkpt><trkpt lat="43.483229" lon="11.1490299"><ele>112.0</ele><time>2026-05-02T16:20:33.689Z</time></trkpt><trkpt lat="43.4833661" lon="11.1490894"><ele>111.0</ele><time>2026-05-02T16:20:34.683Z</time></trkpt><trkpt lat="43.4834952" lon="11.1491563"><ele>110.0</ele><time>2026-05-02T16:20:35.679Z</time></trkpt><trkpt lat="43.4836238" lon="11.1492298"><ele>110.0</ele><time>2026-05-02T16:20:36.687Z</time></trkpt><trkpt lat="43.4837442" lon="11.1493203"><ele>110.0</ele><time>2026-05-02T16:20:37.671Z</time></trkpt><trkpt lat="43.4838579" lon="11.1494202"><ele>110.0</ele><time>2026-05-02T16:20:38.686Z</time></trkpt><trkpt lat="43.4839525" lon="11.1495706"><ele>110.0</ele><time>2026-05-02T16:20:39.677Z</time></trkpt><trkpt lat="43.4840501" lon="11.1497105"><ele>110.0</ele><time>2026-05-02T16:20:40.679Z</time></trkpt><trkpt lat="43.4841445" lon="11.1498394"><ele>110.0</ele><time>2026-05-02T16:20:41.68Z</time></trkpt><trkpt lat="43.4842422" lon="11.1499514"><ele>110.0</ele><time>2026-05-02T16:20:42.688Z</time></trkpt><trkpt lat="43.4843463" lon="11.1500381"><ele>110.0</ele><time>2026-05-02T16:20:43.678Z</time></trkpt><trkpt lat="43.4844577" lon="11.1500955"><ele>110.5</ele><time>2026-05-02T16:20:44.683Z</time></trkpt><trkpt lat="43.4845804" lon="11.1501312"><ele>111.0</ele><time>2026-05-02T16:20:45.692Z</time></trkpt><trkpt lat="43.484705" lon="11.1501603"><ele>111.5</ele><time>2026-05-02T16:20:46.689Z</time></trkpt><trkpt lat="43.4848376" lon="11.1501906"><ele>112.0</ele><time>2026-05-02T16:20:47.681Z</time></trkpt><trkpt lat="43.484973" lon="11.1502232"><ele>110.75</ele><time>2026-05-02T16:20:48.686Z</time></trkpt><trkpt lat="43.4851089" lon="11.1502557"><ele>109.5</ele><time>2026-05-02T16:20:49.686Z</time></trkpt><trkpt lat="43.4852429" lon="11.1502842"><ele>108.25</ele><time>2026-05-02T16:20:50.69Z</time></trkpt><trkpt lat="43.4853719" lon="11.1503123"><ele>107.0</ele><time>2026-05-02T16:20:51.682Z</time></trkpt><trkpt lat="43.4854926" lon="11.1503375"><ele>107.0</ele><time>2026-05-02T16:20:52.671Z</time></trkpt><trkpt lat="43.4856042" lon="11.1503653"><ele>106.99999999999999</ele><time>2026-05-02T16:20:53.685Z</time></trkpt><trkpt lat="43.4857069" lon="11.150394"><ele>106.99999999999999</ele><time>2026-05-02T16:20:54.682Z</time></trkpt><trkpt lat="43.4857972" lon="11.150427"><ele>107.0</ele><time>2026-05-02T16:20:55.666Z</time></trkpt><trkpt lat="43.4858718" lon="11.1504698"><ele>107.0</ele><time>2026-05-02T16:20:56.669Z</time></trkpt><trkpt lat="43.4859295" lon="11.1505197"><ele>107.0</ele><time>2026-05-02T16:20:57.689Z</time></trkpt><trkpt lat="43.4859781" lon="11.1505764"><ele>106.99999999999999</ele><time>2026-05-02T16:20:58.684Z</time></trkpt><trkpt lat="43.4860267" lon="11.150654"><ele>106.99999999999999</ele><time>2026-05-02T16:20:59.686Z</time></trkpt><trkpt lat="43.4860754" lon="11.1507571"><ele>107.0</ele><time>2026-05-02T16:21:00.691Z</time></trkpt><trkpt lat="43.4861191" lon="11.1508942"><ele>107.0</ele><time>2026-05-02T16:21:01.687Z</time></trkpt><trkpt lat="43.4861501" lon="11.1510575"><ele>107.0</ele><time>2026-05-02T16:21:02.693Z</time></trkpt><trkpt lat="43.4861595" lon="11.1512414"><ele>107.0</ele><time>2026-05-02T16:21:03.677Z</time></trkpt><trkpt lat="43.4861406" lon="11.1514378"><ele>107.0</ele><time>2026-05-02T16:21:04.671Z</time></trkpt><trkpt lat="43.4860907" lon="11.1516364"><ele>107.0</ele><time>2026-05-02T16:21:05.693Z</time></trkpt><trkpt lat="43.4860143" lon="11.1518298"><ele>107.0</ele><time>2026-05-02T16:21:06.682Z</time></trkpt><trkpt lat="43.4859113" lon="11.1520049"><ele>107.0</ele><time>2026-05-02T16:21:07.699Z</time></trkpt><trkpt lat="43.4857835" lon="11.1521594"><ele>107.0</ele><time>2026-05-02T16:21:08.686Z</time></trkpt><trkpt lat="43.4856373" lon="11.1522856"><ele>107.66666666666666</ele><time>2026-05-02T16:21:09.678Z</time></trkpt><trkpt lat="43.4854792" lon="11.1523755"><ele>108.33333333333334</ele><time>2026-05-02T16:21:10.682Z</time></trkpt><trkpt lat="43.4853118" lon="11.1524266"><ele>109.0</ele><time>2026-05-02T16:21:11.691Z</time></trkpt><trkpt lat="43.4851434" lon="11.1524394"><ele>109.33333333333334</ele><time>2026-05-02T16:21:12.684Z</time></trkpt><trkpt lat="43.4849801" lon="11.1524135"><ele>109.66666666666666</ele><time>2026-05-02T16:21:13.682Z</time></trkpt><trkpt lat="43.4848257" lon="11.1523499"><ele>110.0</ele><time>2026-05-02T16:21:14.685Z</time></trkpt><trkpt lat="43.4846755" lon="11.1522515"><ele>110.33333333333333</ele><time>2026-05-02T16:21:15.691Z</time></trkpt><trkpt lat="43.4845243" lon="11.1521224"><ele>110.66666666666666</ele><time>2026-05-02T16:21:16.686Z</time></trkpt><trkpt lat="43.4843675" lon="11.151975"><ele>111.0</ele><time>2026-05-02T16:21:17.686Z</time></trkpt><trkpt lat="43.484203" lon="11.1518172"><ele>111.0</ele><time>2026-05-02T16:21:18.677Z</time></trkpt><trkpt lat="43.484029" lon="11.1516537"><ele>111.0</ele><time>2026-05-02T16:21:19.685Z</time></trkpt><trkpt lat="43.483849" lon="11.1514866"><ele>111.0</ele><time>2026-05-02T16:21:20.688Z</time></trkpt><trkpt lat="43.4836627" lon="11.1513163"><ele>115.0</ele><time>2026-05-02T16:21:21.688Z</time></trkpt><trkpt lat="43.4834729" lon="11.1511401"><ele>119.0</ele><time>2026-05-02T16:21:22.684Z</time></trkpt><trkpt lat="43.4832793" lon="11.1509582"><ele>119.0</ele><time>2026-05-02T16:21:23.681Z</time></trkpt><trkpt lat="43.4830831" lon="11.1507742"><ele>119.0</ele><time>2026-05-02T16:21:24.686Z</time></trkpt><trkpt lat="43.4828808" lon="11.1505948"><ele>120.5</ele><time>2026-05-02T16:21:25.681Z</time></trkpt><trkpt lat="43.4826694" lon="11.1504298"><ele>122.0</ele><time>2026-05-02T16:21:26.681Z</time></trkpt><trkpt lat="43.4824496" lon="11.1502838"><ele>122.0</ele><time>2026-05-02T16:21:27.69Z</time></trkpt><trkpt lat="43.4822231" lon="11.1501553"><ele>122.0</ele><time>2026-05-02T16:21:28.683Z</time></trkpt><trkpt lat="43.481991" lon="11.1500429"><ele>123.0</ele><time>2026-05-02T16:21:29.678Z</time></trkpt><trkpt lat="43.4817541" lon="11.1499468"><ele>124.0</ele><time>2026-05-02T16:21:30.69Z</time></trkpt><trkpt lat="43.4815137" lon="11.1498681"><ele>124.0</ele><time>2026-05-02T16:21:31.665Z</time></trkpt><trkpt lat="43.4812699" lon="11.1498063"><ele>124.0</ele><time>2026-05-02T16:21:32.668Z</time></trkpt><trkpt lat="43.4810226" lon="11.1497612"><ele>125.5</ele><time>2026-05-02T16:21:33.678Z</time></trkpt><trkpt lat="43.4807693" lon="11.1497239"><ele>127.0</ele><time>2026-05-02T16:21:34.659Z</time></trkpt><trkpt lat="43.480513" lon="11.1497152"><ele>122.0</ele><time>2026-05-02T16:21:35.689Z</time></trkpt><trkpt lat="43.4802571" lon="11.1497386"><ele>117.0</ele><time>2026-05-02T16:21:36.672Z</time></trkpt><trkpt lat="43.4800027" lon="11.1497751"><ele>117.0</ele><time>2026-05-02T16:21:37.679Z</time></trkpt><trkpt lat="43.4797519" lon="11.1498303"><ele>117.0</ele><time>2026-05-02T16:21:38.68Z</time></trkpt><trkpt lat="43.4795049" lon="11.149905"><ele>118.5</ele><time>2026-05-02T16:21:39.682Z</time></trkpt><trkpt lat="43.4792623" lon="11.1499975"><ele>120.0</ele><time>2026-05-02T16:21:40.683Z</time></trkpt><trkpt lat="43.4790222" lon="11.1501081"><ele>120.0</ele><time>2026-05-02T16:21:41.669Z</time></trkpt><trkpt lat="43.4787839" lon="11.1502345"><ele>120.0</ele><time>2026-05-02T16:21:42.675Z</time></trkpt><trkpt lat="43.4785501" lon="11.1503679"><ele>123.5</ele><time>2026-05-02T16:21:43.682Z</time></trkpt><trkpt lat="43.4783188" lon="11.1505041"><ele>127.0</ele><time>2026-05-02T16:21:44.678Z</time></trkpt><trkpt lat="43.4780854" lon="11.1506361"><ele>130.0</ele><time>2026-05-02T16:21:45.681Z</time></trkpt><trkpt lat="43.4778513" lon="11.1507671"><ele>133.0</ele><time>2026-05-02T16:21:46.675Z</time></trkpt><trkpt lat="43.4776214" lon="11.1508943"><ele>133.0</ele><time>2026-05-02T16:21:47.686Z</time></trkpt><trkpt lat="43.4774034" lon="11.1510104"><ele>133.0</ele><time>2026-05-02T16:21:48.674Z</time></trkpt><trkpt lat="43.4771933" lon="11.1511228"><ele>133.0</ele><time>2026-05-02T16:21:49.682Z</time></trkpt><trkpt lat="43.4769939" lon="11.1512321"><ele>133.0</ele><time>2026-05-02T16:21:50.678Z</time></trkpt><trkpt lat="43.4768023" lon="11.1513393"><ele>133.0</ele><time>2026-05-02T16:21:51.688Z</time></trkpt><trkpt lat="43.4766203" lon="11.1514442"><ele>133.0</ele><time>2026-05-02T16:21:52.684Z</time></trkpt><trkpt lat="43.4764402" lon="11.1515477"><ele>133.0</ele><time>2026-05-02T16:21:53.688Z</time></trkpt><trkpt lat="43.4762548" lon="11.1516492"><ele>133.0</ele><time>2026-05-02T16:21:54.682Z</time></trkpt><trkpt lat="43.4760613" lon="11.1517463"><ele>130.0</ele><time>2026-05-02T16:21:55.686Z</time></trkpt><trkpt lat="43.4758624" lon="11.1518351"><ele>127.0</ele><time>2026-05-02T16:21:56.692Z</time></trkpt><trkpt lat="43.4756587" lon="11.1519117"><ele>124.0</ele><time>2026-05-02T16:21:57.689Z</time></trkpt><trkpt lat="43.4754481" lon="11.1519718"><ele>122.0</ele><time>2026-05-02T16:21:58.696Z</time></trkpt><trkpt lat="43.4752343" lon="11.152017"><ele>120.0</ele><time>2026-05-02T16:21:59.688Z</time></trkpt><trkpt lat="43.4750226" lon="11.1520566"><ele>118.0</ele><time>2026-05-02T16:22:00.691Z</time></trkpt><trkpt lat="43.4748215" lon="11.1521011"><ele>118.0</ele><time>2026-05-02T16:22:01.682Z</time></trkpt><trkpt lat="43.4746278" lon="11.1521541"><ele>118.0</ele><time>2026-05-02T16:22:02.68Z</time></trkpt><trkpt lat="43.4744444" lon="11.1522187"><ele>118.0</ele><time>2026-05-02T16:22:03.667Z</time></trkpt><trkpt lat="43.4742658" lon="11.1522905"><ele>116.66666666666667</ele><time>2026-05-02T16:22:04.685Z</time></trkpt><trkpt lat="43.474096" lon="11.1523663"><ele>115.33333333333334</ele><time>2026-05-02T16:22:05.689Z</time></trkpt><trkpt lat="43.4739318" lon="11.1524439"><ele>114.0</ele><time>2026-05-02T16:22:06.691Z</time></trkpt><trkpt lat="43.4737727" lon="11.152522"><ele>112.0</ele><time>2026-05-02T16:22:07.681Z</time></trkpt><trkpt lat="43.4736164" lon="11.1525992"><ele>110.0</ele><time>2026-05-02T16:22:08.683Z</time></trkpt><trkpt lat="43.4734632" lon="11.1526721"><ele>108.0</ele><time>2026-05-02T16:22:09.683Z</time></trkpt><trkpt lat="43.4733097" lon="11.1527443"><ele>108.0</ele><time>2026-05-02T16:22:10.684Z</time></trkpt><trkpt lat="43.4731493" lon="11.1528201"><ele>108.0</ele><time>2026-05-02T16:22:11.686Z</time></trkpt><trkpt lat="43.4729805" lon="11.1529027"><ele>108.0</ele><time>2026-05-02T16:22:12.694Z</time></trkpt><trkpt lat="43.4728061" lon="11.1529883"><ele>108.66666666666666</ele><time>2026-05-02T16:22:13.686Z</time></trkpt><trkpt lat="43.4726244" lon="11.1530774"><ele>109.33333333333333</ele><time>2026-05-02T16:22:14.687Z</time></trkpt><trkpt lat="43.4724367" lon="11.1531685"><ele>110.0</ele><time>2026-05-02T16:22:15.699Z</time></trkpt><trkpt lat="43.4722448" lon="11.1532606"><ele>108.66666666666666</ele><time>2026-05-02T16:22:16.708Z</time></trkpt><trkpt lat="43.4720494" lon="11.1533541"><ele>107.33333333333334</ele><time>2026-05-02T16:22:17.704Z</time></trkpt><trkpt lat="43.4718502" lon="11.1534496"><ele>106.0</ele><time>2026-05-02T16:22:18.688Z</time></trkpt><trkpt lat="43.4716449" lon="11.153549"><ele>106.0</ele><time>2026-05-02T16:22:19.707Z</time></trkpt><trkpt lat="43.4714402" lon="11.1536512"><ele>106.0</ele><time>2026-05-02T16:22:20.69Z</time></trkpt><trkpt lat="43.4712318" lon="11.1537619"><ele>106.0</ele><time>2026-05-02T16:22:21.694Z</time></trkpt><trkpt lat="43.471025" lon="11.1538823"><ele>106.0</ele><time>2026-05-02T16:22:22.703Z</time></trkpt><trkpt lat="43.4708227" lon="11.1540158"><ele>106.0</ele><time>2026-05-02T16:22:23.684Z</time></trkpt><trkpt lat="43.4706191" lon="11.1541653"><ele>105.0</ele><time>2026-05-02T16:22:24.688Z</time></trkpt><trkpt lat="43.4704191" lon="11.1543287"><ele>104.0</ele><time>2026-05-02T16:22:25.691Z</time></trkpt><trkpt lat="43.4702216" lon="11.1545026"><ele>104.0</ele><time>2026-05-02T16:22:26.695Z</time></trkpt><trkpt lat="43.4700279" lon="11.1546853"><ele>104.0</ele><time>2026-05-02T16:22:27.685Z</time></trkpt><trkpt lat="43.4698367" lon="11.1548779"><ele>103.5</ele><time>2026-05-02T16:22:28.688Z</time></trkpt><trkpt lat="43.46965" lon="11.1550764"><ele>103.0</ele><time>2026-05-02T16:22:29.682Z</time></trkpt><trkpt lat="43.4694678" lon="11.1552863"><ele>103.0</ele><time>2026-05-02T16:22:30.692Z</time></trkpt><trkpt lat="43.4692949" lon="11.1555054"><ele>103.0</ele><time>2026-05-02T16:22:31.679Z</time></trkpt><trkpt lat="43.4691269" lon="11.1557345"><ele>103.0</ele><time>2026-05-02T16:22:32.683Z</time></trkpt><trkpt lat="43.4689667" lon="11.15597"><ele>103.0</ele><time>2026-05-02T16:22:33.682Z</time></trkpt><trkpt lat="43.4688133" lon="11.1562149"><ele>103.0</ele><time>2026-05-02T16:22:34.703Z</time></trkpt><trkpt lat="43.4686709" lon="11.1564641"><ele>103.0</ele><time>2026-05-02T16:22:35.691Z</time></trkpt><trkpt lat="43.4685338" lon="11.1567222"><ele>103.0</ele><time>2026-05-02T16:22:36.695Z</time></trkpt><trkpt lat="43.4684036" lon="11.1569849"><ele>103.0</ele><time>2026-05-02T16:22:37.677Z</time></trkpt><trkpt lat="43.4682757" lon="11.1572564"><ele>104.0</ele><time>2026-05-02T16:22:38.687Z</time></trkpt><trkpt lat="43.4681499" lon="11.1575263"><ele>105.0</ele><time>2026-05-02T16:22:39.686Z</time></trkpt><trkpt lat="43.4680229" lon="11.1577956"><ele>103.5</ele><time>2026-05-02T16:22:40.692Z</time></trkpt><trkpt lat="43.4678961" lon="11.1580633"><ele>102.0</ele><time>2026-05-02T16:22:41.688Z</time></trkpt><trkpt lat="43.467769" lon="11.1583322"><ele>101.5</ele><time>2026-05-02T16:22:42.699Z</time></trkpt><trkpt lat="43.467644" lon="11.1585994"><ele>101.0</ele><time>2026-05-02T16:22:43.689Z</time></trkpt><trkpt lat="43.4675202" lon="11.1588691"><ele>101.0</ele><time>2026-05-02T16:22:44.693Z</time></trkpt><trkpt lat="43.4673971" lon="11.1591366"><ele>101.0</ele><time>2026-05-02T16:22:45.696Z</time></trkpt><trkpt lat="43.4672727" lon="11.1594032"><ele>101.0</ele><time>2026-05-02T16:22:46.709Z</time></trkpt><trkpt lat="43.4671471" lon="11.1596632"><ele>101.0</ele><time>2026-05-02T16:22:47.692Z</time></trkpt><trkpt lat="43.4670147" lon="11.1599207"><ele>102.0</ele><time>2026-05-02T16:22:48.701Z</time></trkpt><trkpt lat="43.4668767" lon="11.1601712"><ele>103.0</ele><time>2026-05-02T16:22:49.71Z</time></trkpt><trkpt lat="43.4667334" lon="11.1604136"><ele>103.0</ele><time>2026-05-02T16:22:50.691Z</time></trkpt><trkpt lat="43.4665815" lon="11.1606534"><ele>103.0</ele><time>2026-05-02T16:22:51.708Z</time></trkpt><trkpt lat="43.4664237" lon="11.160885"><ele>103.5</ele><time>2026-05-02T16:22:52.716Z</time></trkpt><trkpt lat="43.46626" lon="11.1611082"><ele>104.0</ele><time>2026-05-02T16:22:53.694Z</time></trkpt><trkpt lat="43.4660878" lon="11.161326"><ele>106.5</ele><time>2026-05-02T16:22:54.687Z</time></trkpt><trkpt lat="43.4659087" lon="11.161536"><ele>109.0</ele><time>2026-05-02T16:22:55.69Z</time></trkpt><trkpt lat="43.4657224" lon="11.1617355"><ele>109.0</ele><time>2026-05-02T16:22:56.695Z</time></trkpt><trkpt lat="43.4655297" lon="11.1619229"><ele>109.0</ele><time>2026-05-02T16:22:57.692Z</time></trkpt><trkpt lat="43.4653317" lon="11.1620998"><ele>108.5</ele><time>2026-05-02T16:22:58.69Z</time></trkpt><trkpt lat="43.4651297" lon="11.1622658"><ele>108.0</ele><time>2026-05-02T16:22:59.672Z</time></trkpt><trkpt lat="43.4649196" lon="11.1624217"><ele>108.0</ele><time>2026-05-02T16:23:00.683Z</time></trkpt><trkpt lat="43.4647092" lon="11.1625674"><ele>108.0</ele><time>2026-05-02T16:23:01.673Z</time></trkpt><trkpt lat="43.4644935" lon="11.1627047"><ele>107.5</ele><time>2026-05-02T16:23:02.699Z</time></trkpt><trkpt lat="43.4642787" lon="11.1628303"><ele>107.0</ele><time>2026-05-02T16:23:03.691Z</time></trkpt><trkpt lat="43.4640605" lon="11.1629461"><ele>107.0</ele><time>2026-05-02T16:23:04.682Z</time></trkpt><trkpt lat="43.4638378" lon="11.1630485"><ele>107.0</ele><time>2026-05-02T16:23:05.68Z</time></trkpt><trkpt lat="43.4636124" lon="11.1631389"><ele>108.0</ele><time>2026-05-02T16:23:06.684Z</time></trkpt><trkpt lat="43.4633845" lon="11.1632188"><ele>109.0</ele><time>2026-05-02T16:23:07.688Z</time></trkpt><trkpt lat="43.4631542" lon="11.1632884"><ele>109.0</ele><time>2026-05-02T16:23:08.688Z</time></trkpt><trkpt lat="43.4629226" lon="11.1633441"><ele>109.0</ele><time>2026-05-02T16:23:09.683Z</time></trkpt><trkpt lat="43.462686" lon="11.1633801"><ele>109.0</ele><time>2026-05-02T16:23:10.672Z</time></trkpt><trkpt lat="43.4624444" lon="11.1634027"><ele>109.0</ele><time>2026-05-02T16:23:11.694Z</time></trkpt><trkpt lat="43.4622084" lon="11.1634176"><ele>107.5</ele><time>2026-05-02T16:23:12.689Z</time></trkpt><trkpt lat="43.4619697" lon="11.163427"><ele>106.0</ele><time>2026-05-02T16:23:13.689Z</time></trkpt><trkpt lat="43.4617306" lon="11.1634376"><ele>106.0</ele><time>2026-05-02T16:23:14.684Z</time></trkpt><trkpt lat="43.4614912" lon="11.1634531"><ele>106.0</ele><time>2026-05-02T16:23:15.684Z</time></trkpt><trkpt lat="43.4612513" lon="11.1634712"><ele>107.5</ele><time>2026-05-02T16:23:16.697Z</time></trkpt><trkpt lat="43.4610125" lon="11.1634792"><ele>109.0</ele><time>2026-05-02T16:23:17.701Z</time></trkpt><trkpt lat="43.4607728" lon="11.16348"><ele>109.0</ele><time>2026-05-02T16:23:18.695Z</time></trkpt><trkpt lat="43.460534" lon="11.1634636"><ele>109.0</ele><time>2026-05-02T16:23:19.691Z</time></trkpt><trkpt lat="43.4602996" lon="11.1634266"><ele>108.0</ele><time>2026-05-02T16:23:20.696Z</time></trkpt><trkpt lat="43.4600664" lon="11.1633706"><ele>107.0</ele><time>2026-05-02T16:23:21.68Z</time></trkpt><trkpt lat="43.4598322" lon="11.1632999"><ele>107.5</ele><time>2026-05-02T16:23:22.689Z</time></trkpt><trkpt lat="43.4596014" lon="11.1632108"><ele>108.0</ele><time>2026-05-02T16:23:23.712Z</time></trkpt><trkpt lat="43.4593789" lon="11.1631129"><ele>108.0</ele><time>2026-05-02T16:23:24.674Z</time></trkpt><trkpt lat="43.4591538" lon="11.1629961"><ele>108.0</ele><time>2026-05-02T16:23:25.704Z</time></trkpt><trkpt lat="43.4589363" lon="11.1628748"><ele>106.0</ele><time>2026-05-02T16:23:26.675Z</time></trkpt><trkpt lat="43.4587276" lon="11.1627255"><ele>104.0</ele><time>2026-05-02T16:23:27.69Z</time></trkpt><trkpt lat="43.4585285" lon="11.16256"><ele>104.0</ele><time>2026-05-02T16:23:28.661Z</time></trkpt><trkpt lat="43.4583331" lon="11.1623791"><ele>104.0</ele><time>2026-05-02T16:23:29.672Z</time></trkpt><trkpt lat="43.4581457" lon="11.1621848"><ele>104.5</ele><time>2026-05-02T16:23:30.683Z</time></trkpt><trkpt lat="43.4579687" lon="11.1619811"><ele>105.0</ele><time>2026-05-02T16:23:31.672Z</time></trkpt><trkpt lat="43.4577969" lon="11.1617641"><ele>106.5</ele><time>2026-05-02T16:23:32.673Z</time></trkpt><trkpt lat="43.4576304" lon="11.1615386"><ele>108.0</ele><time>2026-05-02T16:23:33.691Z</time></trkpt><trkpt lat="43.4574677" lon="11.1613147"><ele>108.0</ele><time>2026-05-02T16:23:34.676Z</time></trkpt><trkpt lat="43.457306" lon="11.1610889"><ele>108.0</ele><time>2026-05-02T16:23:35.673Z</time></trkpt><trkpt lat="43.4571467" lon="11.1608691"><ele>108.33333333333334</ele><time>2026-05-02T16:23:36.682Z</time></trkpt><trkpt lat="43.4569927" lon="11.1606567"><ele>108.66666666666667</ele><time>2026-05-02T16:23:37.685Z</time></trkpt><trkpt lat="43.456842" lon="11.160449"><ele>109.0</ele><time>2026-05-02T16:23:38.673Z</time></trkpt><trkpt lat="43.4566914" lon="11.1602419"><ele>109.0</ele><time>2026-05-02T16:23:39.679Z</time></trkpt><trkpt lat="43.4565434" lon="11.1600338"><ele>109.0</ele><time>2026-05-02T16:23:40.691Z</time></trkpt><trkpt lat="43.4563962" lon="11.159828"><ele>109.0</ele><time>2026-05-02T16:23:41.683Z</time></trkpt><trkpt lat="43.4562477" lon="11.1596214"><ele>109.0</ele><time>2026-05-02T16:23:42.684Z</time></trkpt><trkpt lat="43.4560985" lon="11.1594172"><ele>109.0</ele><time>2026-05-02T16:23:43.707Z</time></trkpt><trkpt lat="43.4559565" lon="11.1592205"><ele>109.0</ele><time>2026-05-02T16:23:44.678Z</time></trkpt><trkpt lat="43.4558123" lon="11.1590291"><ele>109.0</ele><time>2026-05-02T16:23:45.682Z</time></trkpt><trkpt lat="43.4556707" lon="11.1588346"><ele>109.0</ele><time>2026-05-02T16:23:46.681Z</time></trkpt><trkpt lat="43.4555232" lon="11.1586354"><ele>109.0</ele><time>2026-05-02T16:23:47.69Z</time></trkpt><trkpt lat="43.4553752" lon="11.1584333"><ele>108.66666666666667</ele><time>2026-05-02T16:23:48.692Z</time></trkpt><trkpt lat="43.4552246" lon="11.1582279"><ele>108.33333333333334</ele><time>2026-05-02T16:23:49.697Z</time></trkpt><trkpt lat="43.4550703" lon="11.1580159"><ele>108.0</ele><time>2026-05-02T16:23:50.71Z</time></trkpt><trkpt lat="43.4549147" lon="11.1578055"><ele>108.0</ele><time>2026-05-02T16:23:51.685Z</time></trkpt><trkpt lat="43.4547568" lon="11.1575915"><ele>108.0</ele><time>2026-05-02T16:23:52.671Z</time></trkpt><trkpt lat="43.4545954" lon="11.1573731"><ele>108.0</ele><time>2026-05-02T16:23:53.695Z</time></trkpt><trkpt lat="43.4544353" lon="11.1571548"><ele>109.0</ele><time>2026-05-02T16:23:54.689Z</time></trkpt><trkpt lat="43.4542722" lon="11.1569348"><ele>110.0</ele><time>2026-05-02T16:23:55.68Z</time></trkpt><trkpt lat="43.4541071" lon="11.1567075"><ele>110.5</ele><time>2026-05-02T16:23:56.687Z</time></trkpt><trkpt lat="43.4539402" lon="11.1564784"><ele>111.0</ele><time>2026-05-02T16:23:57.693Z</time></trkpt><trkpt lat="43.453769" lon="11.1562537"><ele>111.0</ele><time>2026-05-02T16:23:58.684Z</time></trkpt><trkpt lat="43.4535873" lon="11.1560345"><ele>111.0</ele><time>2026-05-02T16:23:59.717Z</time></trkpt><trkpt lat="43.4534003" lon="11.1558343"><ele>110.0</ele><time>2026-05-02T16:24:00.673Z</time></trkpt><trkpt lat="43.4531988" lon="11.1556391"><ele>109.0</ele><time>2026-05-02T16:24:01.689Z</time></trkpt><trkpt lat="43.452993" lon="11.1554571"><ele>110.0</ele><time>2026-05-02T16:24:02.688Z</time></trkpt><trkpt lat="43.4527807" lon="11.1552863"><ele>111.0</ele><time>2026-05-02T16:24:03.681Z</time></trkpt><trkpt lat="43.4525635" lon="11.1551253"><ele>111.0</ele><time>2026-05-02T16:24:04.678Z</time></trkpt><trkpt lat="43.4523421" lon="11.1549779"><ele>111.0</ele><time>2026-05-02T16:24:05.681Z</time></trkpt><trkpt lat="43.4521166" lon="11.1548432"><ele>111.0</ele><time>2026-05-02T16:24:06.676Z</time></trkpt><trkpt lat="43.4518871" lon="11.1547151"><ele>111.0</ele><time>2026-05-02T16:24:07.683Z</time></trkpt><trkpt lat="43.4516561" lon="11.1545914"><ele>111.0</ele><time>2026-05-02T16:24:08.683Z</time></trkpt><trkpt lat="43.451424" lon="11.1544695"><ele>111.0</ele><time>2026-05-02T16:24:09.678Z</time></trkpt><trkpt lat="43.4511904" lon="11.1543468"><ele>116.0</ele><time>2026-05-02T16:24:10.678Z</time></trkpt><trkpt lat="43.450956" lon="11.1542223"><ele>121.0</ele><time>2026-05-02T16:24:11.677Z</time></trkpt><trkpt lat="43.4507192" lon="11.1540969"><ele>122.5</ele><time>2026-05-02T16:24:12.696Z</time></trkpt><trkpt lat="43.4504846" lon="11.153974"><ele>124.0</ele><time>2026-05-02T16:24:13.681Z</time></trkpt><trkpt lat="43.450249" lon="11.1538506"><ele>124.0</ele><time>2026-05-02T16:24:14.667Z</time></trkpt><trkpt lat="43.4500132" lon="11.1537247"><ele>124.0</ele><time>2026-05-02T16:24:15.679Z</time></trkpt><trkpt lat="43.4497798" lon="11.1535954"><ele>122.5</ele><time>2026-05-02T16:24:16.687Z</time></trkpt><trkpt lat="43.4495443" lon="11.1534552"><ele>121.0</ele><time>2026-05-02T16:24:17.742Z</time></trkpt><trkpt lat="43.4493209" lon="11.1533093"><ele>116.5</ele><time>2026-05-02T16:24:18.672Z</time></trkpt><trkpt lat="43.4490881" lon="11.1531465"><ele>112.0</ele><time>2026-05-02T16:24:19.693Z</time></trkpt><trkpt lat="43.4488626" lon="11.1529792"><ele>113.0</ele><time>2026-05-02T16:24:20.668Z</time></trkpt><trkpt lat="43.4486353" lon="11.1528011"><ele>114.0</ele><time>2026-05-02T16:24:21.687Z</time></trkpt><trkpt lat="43.4484153" lon="11.1526186"><ele>114.0</ele><time>2026-05-02T16:24:22.683Z</time></trkpt><trkpt lat="43.4482008" lon="11.1524254"><ele>114.0</ele><time>2026-05-02T16:24:23.689Z</time></trkpt><trkpt lat="43.4479931" lon="11.1522234"><ele>115.5</ele><time>2026-05-02T16:24:24.681Z</time></trkpt><trkpt lat="43.4477868" lon="11.1520117"><ele>117.0</ele><time>2026-05-02T16:24:25.694Z</time></trkpt><trkpt lat="43.4475837" lon="11.1517956"><ele>117.0</ele><time>2026-05-02T16:24:26.684Z</time></trkpt><trkpt lat="43.4473803" lon="11.1515764"><ele>117.0</ele><time>2026-05-02T16:24:27.676Z</time></trkpt><trkpt lat="43.4471766" lon="11.1513582"><ele>119.0</ele><time>2026-05-02T16:24:28.676Z</time></trkpt><trkpt lat="43.4469727" lon="11.1511436"><ele>121.0</ele><time>2026-05-02T16:24:29.686Z</time></trkpt><trkpt lat="43.4467685" lon="11.1509384"><ele>121.0</ele><time>2026-05-02T16:24:30.68Z</time></trkpt><trkpt lat="43.4465571" lon="11.1507487"><ele>121.0</ele><time>2026-05-02T16:24:31.681Z</time></trkpt><trkpt lat="43.4463384" lon="11.1505785"><ele>125.0</ele><time>2026-05-02T16:24:32.677Z</time></trkpt><trkpt lat="43.4461145" lon="11.1504277"><ele>129.0</ele><time>2026-05-02T16:24:33.679Z</time></trkpt><trkpt lat="43.445889" lon="11.1502997"><ele>129.0</ele><time>2026-05-02T16:24:34.68Z</time></trkpt><trkpt lat="43.4456649" lon="11.1501921"><ele>129.0</ele><time>2026-05-02T16:24:35.684Z</time></trkpt><trkpt lat="43.4454409" lon="11.1501048"><ele>127.5</ele><time>2026-05-02T16:24:36.67Z</time></trkpt><trkpt lat="43.4452076" lon="11.1500337"><ele>126.0</ele><time>2026-05-02T16:24:37.671Z</time></trkpt><trkpt lat="43.4449662" lon="11.1499751"><ele>126.0</ele><time>2026-05-02T16:24:38.69Z</time></trkpt><trkpt lat="43.4447218" lon="11.1499298"><ele>126.0</ele><time>2026-05-02T16:24:39.678Z</time></trkpt><trkpt lat="43.4444704" lon="11.1499005"><ele>127.0</ele><time>2026-05-02T16:24:40.679Z</time></trkpt><trkpt lat="43.4442185" lon="11.1498871"><ele>128.0</ele><time>2026-05-02T16:24:41.672Z</time></trkpt><trkpt lat="43.4439642" lon="11.149886"><ele>130.0</ele><time>2026-05-02T16:24:42.686Z</time></trkpt><trkpt lat="43.4437127" lon="11.1498949"><ele>132.0</ele><time>2026-05-02T16:24:43.677Z</time></trkpt><trkpt lat="43.4434607" lon="11.1499125"><ele>132.0</ele><time>2026-05-02T16:24:44.667Z</time></trkpt><trkpt lat="43.4432031" lon="11.1499181"><ele>132.0</ele><time>2026-05-02T16:24:45.701Z</time></trkpt><trkpt lat="43.4429543" lon="11.1499086"><ele>134.5</ele><time>2026-05-02T16:24:46.67Z</time></trkpt><trkpt lat="43.4426994" lon="11.1498998"><ele>137.0</ele><time>2026-05-02T16:24:47.684Z</time></trkpt><trkpt lat="43.4424479" lon="11.1498998"><ele>137.0</ele><time>2026-05-02T16:24:48.699Z</time></trkpt><trkpt lat="43.4422015" lon="11.1499066"><ele>137.0</ele><time>2026-05-02T16:24:49.686Z</time></trkpt><trkpt lat="43.4419555" lon="11.1499174"><ele>140.0</ele><time>2026-05-02T16:24:50.684Z</time></trkpt><trkpt lat="43.4417097" lon="11.1499264"><ele>143.0</ele><time>2026-05-02T16:24:51.673Z</time></trkpt><trkpt lat="43.4414626" lon="11.1499322"><ele>144.5</ele><time>2026-05-02T16:24:52.673Z</time></trkpt><trkpt lat="43.4412145" lon="11.1499275"><ele>146.0</ele><time>2026-05-02T16:24:53.688Z</time></trkpt><trkpt lat="43.4409693" lon="11.1499037"><ele>153.0</ele><time>2026-05-02T16:24:54.679Z</time></trkpt><trkpt lat="43.4407226" lon="11.1498575"><ele>160.0</ele><time>2026-05-02T16:24:55.687Z</time></trkpt><trkpt lat="43.4404806" lon="11.1497935"><ele>160.0</ele><time>2026-05-02T16:24:56.681Z</time></trkpt><trkpt lat="43.4402415" lon="11.1497139"><ele>160.0</ele><time>2026-05-02T16:24:57.681Z</time></trkpt><trkpt lat="43.4400096" lon="11.1496172"><ele>160.0</ele><time>2026-05-02T16:24:58.694Z</time></trkpt><trkpt lat="43.4397898" lon="11.1495039"><ele>160.0</ele><time>2026-05-02T16:24:59.681Z</time></trkpt><trkpt lat="43.4395744" lon="11.1493753"><ele>160.0</ele><time>2026-05-02T16:25:00.68Z</time></trkpt><trkpt lat="43.4393661" lon="11.1492328"><ele>160.0</ele><time>2026-05-02T16:25:01.673Z</time></trkpt><trkpt lat="43.4391624" lon="11.1490758"><ele>161.0</ele><time>2026-05-02T16:25:02.67Z</time></trkpt><trkpt lat="43.4389627" lon="11.1489032"><ele>162.0</ele><time>2026-05-02T16:25:03.692Z</time></trkpt><trkpt lat="43.4387717" lon="11.1487183"><ele>162.0</ele><time>2026-05-02T16:25:04.68Z</time></trkpt><trkpt lat="43.4385847" lon="11.1485196"><ele>162.0</ele><time>2026-05-02T16:25:05.665Z</time></trkpt><trkpt lat="43.4384" lon="11.148312"><ele>160.0</ele><time>2026-05-02T16:25:06.677Z</time></trkpt><trkpt lat="43.4382215" lon="11.1481062"><ele>158.0</ele><time>2026-05-02T16:25:07.684Z</time></trkpt><trkpt lat="43.4380426" lon="11.1479072"><ele>159.5</ele><time>2026-05-02T16:25:08.687Z</time></trkpt><trkpt lat="43.4378568" lon="11.1477121"><ele>161.0</ele><time>2026-05-02T16:25:09.681Z</time></trkpt><trkpt lat="43.4376612" lon="11.1475224"><ele>157.5</ele><time>2026-05-02T16:25:10.677Z</time></trkpt><trkpt lat="43.4374539" lon="11.1473465"><ele>154.0</ele><time>2026-05-02T16:25:11.685Z</time></trkpt><trkpt lat="43.4372391" lon="11.1471873"><ele>153.5</ele><time>2026-05-02T16:25:12.671Z</time></trkpt><trkpt lat="43.4370138" lon="11.1470382"><ele>153.0</ele><time>2026-05-02T16:25:13.7Z</time></trkpt><trkpt lat="43.4367883" lon="11.146903"><ele>153.0</ele><time>2026-05-02T16:25:14.68Z</time></trkpt><trkpt lat="43.4365547" lon="11.1467729"><ele>153.0</ele><time>2026-05-02T16:25:15.702Z</time></trkpt><trkpt lat="43.4363237" lon="11.1466505"><ele>148.5</ele><time>2026-05-02T16:25:16.681Z</time></trkpt><trkpt lat="43.4360886" lon="11.1465297"><ele>144.0</ele><time>2026-05-02T16:25:17.674Z</time></trkpt><trkpt lat="43.4358505" lon="11.1464072"><ele>144.0</ele><time>2026-05-02T16:25:18.687Z</time></trkpt><trkpt lat="43.4356136" lon="11.1462833"><ele>144.0</ele><time>2026-05-02T16:25:19.666Z</time></trkpt><trkpt lat="43.4353703" lon="11.1461548"><ele>142.0</ele><time>2026-05-02T16:25:20.679Z</time></trkpt><trkpt lat="43.435126" lon="11.1460304"><ele>140.0</ele><time>2026-05-02T16:25:21.676Z</time></trkpt><trkpt lat="43.4348782" lon="11.1459043"><ele>139.5</ele><time>2026-05-02T16:25:22.683Z</time></trkpt><trkpt lat="43.4346306" lon="11.1457768"><ele>139.0</ele><time>2026-05-02T16:25:23.673Z</time></trkpt><trkpt lat="43.4343809" lon="11.1456478"><ele>133.5</ele><time>2026-05-02T16:25:24.676Z</time></trkpt><trkpt lat="43.4341306" lon="11.1455198"><ele>128.0</ele><time>2026-05-02T16:25:25.685Z</time></trkpt><trkpt lat="43.4338825" lon="11.1453933"><ele>131.0</ele><time>2026-05-02T16:25:26.669Z</time></trkpt><trkpt lat="43.4336317" lon="11.1452653"><ele>134.0</ele><time>2026-05-02T16:25:27.677Z</time></trkpt><trkpt lat="43.4333822" lon="11.1451389"><ele>134.0</ele><time>2026-05-02T16:25:28.68Z</time></trkpt><trkpt lat="43.4331342" lon="11.1450132"><ele>134.0</ele><time>2026-05-02T16:25:29.681Z</time></trkpt><trkpt lat="43.4328907" lon="11.1448899"><ele>139.0</ele><time>2026-05-02T16:25:30.661Z</time></trkpt><trkpt lat="43.4326453" lon="11.1447675"><ele>144.0</ele><time>2026-05-02T16:25:31.673Z</time></trkpt><trkpt lat="43.4324038" lon="11.144651"><ele>144.0</ele><time>2026-05-02T16:25:32.679Z</time></trkpt><trkpt lat="43.4321627" lon="11.1445405"><ele>144.0</ele><time>2026-05-02T16:25:33.687Z</time></trkpt><trkpt lat="43.4319209" lon="11.1444459"><ele>144.0</ele><time>2026-05-02T16:25:34.678Z</time></trkpt><trkpt lat="43.4316728" lon="11.1443722"><ele>144.0</ele><time>2026-05-02T16:25:35.676Z</time></trkpt><trkpt lat="43.4314197" lon="11.1443204"><ele>145.5</ele><time>2026-05-02T16:25:36.678Z</time></trkpt><trkpt lat="43.4311639" lon="11.1442881"><ele>147.0</ele><time>2026-05-02T16:25:37.676Z</time></trkpt><trkpt lat="43.4309056" lon="11.1442734"><ele>147.0</ele><time>2026-05-02T16:25:38.684Z</time></trkpt><trkpt lat="43.4306476" lon="11.144272"><ele>147.0</ele><time>2026-05-02T16:25:39.686Z</time></trkpt><trkpt lat="43.4303894" lon="11.1442768"><ele>150.0</ele><time>2026-05-02T16:25:40.677Z</time></trkpt><trkpt lat="43.4301297" lon="11.1442831"><ele>153.0</ele><time>2026-05-02T16:25:41.676Z</time></trkpt><trkpt lat="43.4298699" lon="11.1442882"><ele>155.0</ele><time>2026-05-02T16:25:42.682Z</time></trkpt><trkpt lat="43.4296124" lon="11.1442921"><ele>157.0</ele><time>2026-05-02T16:25:43.681Z</time></trkpt><trkpt lat="43.4293571" lon="11.1442963"><ele>157.0</ele><time>2026-05-02T16:25:44.681Z</time></trkpt><trkpt lat="43.4291048" lon="11.1443012"><ele>157.0</ele><time>2026-05-02T16:25:45.681Z</time></trkpt><trkpt lat="43.4288549" lon="11.1443065"><ele>158.5</ele><time>2026-05-02T16:25:46.675Z</time></trkpt><trkpt lat="43.4286067" lon="11.144311"><ele>160.0</ele><time>2026-05-02T16:25:47.665Z</time></trkpt><trkpt lat="43.4283586" lon="11.1443157"><ele>160.0</ele><time>2026-05-02T16:25:48.664Z</time></trkpt><trkpt lat="43.42811" lon="11.1443227"><ele>160.0</ele><time>2026-05-02T16:25:49.69Z</time></trkpt><trkpt lat="43.427868" lon="11.1443335"><ele>161.0</ele><time>2026-05-02T16:25:50.671Z</time></trkpt><trkpt lat="43.4276238" lon="11.1443506"><ele>162.0</ele><time>2026-05-02T16:25:51.67Z</time></trkpt><trkpt lat="43.4273807" lon="11.1443803"><ele>163.5</ele><time>2026-05-02T16:25:52.677Z</time></trkpt><trkpt lat="43.4271402" lon="11.1444241"><ele>165.0</ele><time>2026-05-02T16:25:53.679Z</time></trkpt><trkpt lat="43.4269019" lon="11.1444791"><ele>165.0</ele><time>2026-05-02T16:25:54.668Z</time></trkpt><trkpt lat="43.4266637" lon="11.1445563"><ele>165.0</ele><time>2026-05-02T16:25:55.673Z</time></trkpt><trkpt lat="43.4264282" lon="11.1446422"><ele>167.5</ele><time>2026-05-02T16:25:56.672Z</time></trkpt><trkpt lat="43.4261943" lon="11.1447399"><ele>170.0</ele><time>2026-05-02T16:25:57.674Z</time></trkpt><trkpt lat="43.4259642" lon="11.1448504"><ele>166.0</ele><time>2026-05-02T16:25:58.663Z</time></trkpt><trkpt lat="43.4257353" lon="11.1449762"><ele>162.0</ele><time>2026-05-02T16:25:59.683Z</time></trkpt><trkpt lat="43.4255145" lon="11.1451139"><ele>166.0</ele><time>2026-05-02T16:26:00.67Z</time></trkpt><trkpt lat="43.425297" lon="11.1452701"><ele>170.0</ele><time>2026-05-02T16:26:01.688Z</time></trkpt><trkpt lat="43.4250892" lon="11.1454385"><ele>170.0</ele><time>2026-05-02T16:26:02.678Z</time></trkpt><trkpt lat="43.4248867" lon="11.1456196"><ele>170.0</ele><time>2026-05-02T16:26:03.678Z</time></trkpt><trkpt lat="43.4246911" lon="11.1458116"><ele>172.5</ele><time>2026-05-02T16:26:04.673Z</time></trkpt><trkpt lat="43.4245032" lon="11.1460165"><ele>175.0</ele><time>2026-05-02T16:26:05.67Z</time></trkpt><trkpt lat="43.4243221" lon="11.1462331"><ele>175.0</ele><time>2026-05-02T16:26:06.681Z</time></trkpt><trkpt lat="43.4241518" lon="11.1464587"><ele>175.0</ele><time>2026-05-02T16:26:07.662Z</time></trkpt><trkpt lat="43.4239838" lon="11.1466954"><ele>174.0</ele><time>2026-05-02T16:26:08.684Z</time></trkpt><trkpt lat="43.4238236" lon="11.1469293"><ele>173.0</ele><time>2026-05-02T16:26:09.672Z</time></trkpt><trkpt lat="43.4236663" lon="11.1471595"><ele>175.33333333333331</ele><time>2026-05-02T16:26:10.669Z</time></trkpt><trkpt lat="43.4235118" lon="11.1473829"><ele>177.66666666666666</ele><time>2026-05-02T16:26:11.66Z</time></trkpt><trkpt lat="43.4233565" lon="11.1476064"><ele>180.0</ele><time>2026-05-02T16:26:12.671Z</time></trkpt><trkpt lat="43.4232026" lon="11.1478275"><ele>180.0</ele><time>2026-05-02T16:26:13.658Z</time></trkpt><trkpt lat="43.4230459" lon="11.148052"><ele>180.0</ele><time>2026-05-02T16:26:14.686Z</time></trkpt><trkpt lat="43.4228914" lon="11.1482735"><ele>180.0</ele><time>2026-05-02T16:26:15.701Z</time></trkpt><trkpt lat="43.4227393" lon="11.1484929"><ele>182.66666666666666</ele><time>2026-05-02T16:26:16.673Z</time></trkpt><trkpt lat="43.4225848" lon="11.1487167"><ele>185.33333333333331</ele><time>2026-05-02T16:26:17.679Z</time></trkpt><trkpt lat="43.4224314" lon="11.1489413"><ele>188.0</ele><time>2026-05-02T16:26:18.697Z</time></trkpt><trkpt lat="43.4222804" lon="11.1491662"><ele>193.5</ele><time>2026-05-02T16:26:19.694Z</time></trkpt><trkpt lat="43.4221296" lon="11.1493964"><ele>199.0</ele><time>2026-05-02T16:26:20.694Z</time></trkpt><trkpt lat="43.421977" lon="11.1496277"><ele>199.0</ele><time>2026-05-02T16:26:21.696Z</time></trkpt><trkpt lat="43.4218231" lon="11.1498575"><ele>199.0</ele><time>2026-05-02T16:26:22.696Z</time></trkpt><trkpt lat="43.4216675" lon="11.150085"><ele>199.5</ele><time>2026-05-02T16:26:23.681Z</time></trkpt><trkpt lat="43.4215059" lon="11.1503074"><ele>200.0</ele><time>2026-05-02T16:26:24.673Z</time></trkpt><trkpt lat="43.421341" lon="11.1505286"><ele>204.0</ele><time>2026-05-02T16:26:25.674Z</time></trkpt><trkpt lat="43.4211772" lon="11.1507498"><ele>208.0</ele><time>2026-05-02T16:26:26.664Z</time></trkpt><trkpt lat="43.421013" lon="11.1509783"><ele>208.0</ele><time>2026-05-02T16:26:27.686Z</time></trkpt><trkpt lat="43.4208524" lon="11.1512044"><ele>208.0</ele><time>2026-05-02T16:26:28.679Z</time></trkpt><trkpt lat="43.4206895" lon="11.1514338"><ele>207.5</ele><time>2026-05-02T16:26:29.695Z</time></trkpt><trkpt lat="43.4205295" lon="11.1516605"><ele>207.0</ele><time>2026-05-02T16:26:30.686Z</time></trkpt><trkpt lat="43.4203681" lon="11.1518888"><ele>211.5</ele><time>2026-05-02T16:26:31.698Z</time></trkpt><trkpt lat="43.4202097" lon="11.1521126"><ele>216.0</ele><time>2026-05-02T16:26:32.687Z</time></trkpt><trkpt lat="43.4200516" lon="11.1523388"><ele>215.5</ele><time>2026-05-02T16:26:33.683Z</time></trkpt><trkpt lat="43.4198941" lon="11.1525652"><ele>215.0</ele><time>2026-05-02T16:26:34.684Z</time></trkpt><trkpt lat="43.4197398" lon="11.1527909"><ele>217.33333333333334</ele><time>2026-05-02T16:26:35.686Z</time></trkpt><trkpt lat="43.4195876" lon="11.153015"><ele>219.66666666666669</ele><time>2026-05-02T16:26:36.666Z</time></trkpt><trkpt lat="43.4194345" lon="11.1532429"><ele>222.0</ele><time>2026-05-02T16:26:37.668Z</time></trkpt><trkpt lat="43.4192823" lon="11.1534722"><ele>222.0</ele><time>2026-05-02T16:26:38.68Z</time></trkpt><trkpt lat="43.4191292" lon="11.1536981"><ele>222.0</ele><time>2026-05-02T16:26:39.679Z</time></trkpt><trkpt lat="43.4189734" lon="11.1539231"><ele>225.0</ele><time>2026-05-02T16:26:40.677Z</time></trkpt><trkpt lat="43.4188171" lon="11.154149"><ele>228.0</ele><time>2026-05-02T16:26:41.685Z</time></trkpt><trkpt lat="43.4186603" lon="11.1543739"><ele>228.0</ele><time>2026-05-02T16:26:42.685Z</time></trkpt><trkpt lat="43.4185027" lon="11.1546"><ele>228.0</ele><time>2026-05-02T16:26:43.69Z</time></trkpt><trkpt lat="43.4183456" lon="11.1548262"><ele>228.5</ele><time>2026-05-02T16:26:44.691Z</time></trkpt><trkpt lat="43.4181893" lon="11.1550523"><ele>229.0</ele><time>2026-05-02T16:26:45.675Z</time></trkpt><trkpt lat="43.4180307" lon="11.1552809"><ele>230.5</ele><time>2026-05-02T16:26:46.678Z</time></trkpt><trkpt lat="43.4178715" lon="11.1555079"><ele>232.0</ele><time>2026-05-02T16:26:47.682Z</time></trkpt><trkpt lat="43.4177123" lon="11.1557352"><ele>232.0</ele><time>2026-05-02T16:26:48.678Z</time></trkpt><trkpt lat="43.4175525" lon="11.1559642"><ele>232.0</ele><time>2026-05-02T16:26:49.681Z</time></trkpt><trkpt lat="43.4173943" lon="11.1561937"><ele>232.0</ele><time>2026-05-02T16:26:50.674Z</time></trkpt><trkpt lat="43.4172364" lon="11.156425"><ele>232.0</ele><time>2026-05-02T16:26:51.664Z</time></trkpt><trkpt lat="43.4170762" lon="11.1566588"><ele>233.0</ele><time>2026-05-02T16:26:52.68Z</time></trkpt><trkpt lat="43.416916" lon="11.1568904"><ele>234.0</ele><time>2026-05-02T16:26:53.68Z</time></trkpt><trkpt lat="43.4167539" lon="11.1571221"><ele>234.0</ele><time>2026-05-02T16:26:54.673Z</time></trkpt><trkpt lat="43.4165905" lon="11.157356"><ele>234.0</ele><time>2026-05-02T16:26:55.67Z</time></trkpt><trkpt lat="43.4164265" lon="11.157591"><ele>233.5</ele><time>2026-05-02T16:26:56.666Z</time></trkpt><trkpt lat="43.4162605" lon="11.1578288"><ele>233.0</ele><time>2026-05-02T16:26:57.682Z</time></trkpt><trkpt lat="43.4160952" lon="11.1580655"><ele>232.0</ele><time>2026-05-02T16:26:58.675Z</time></trkpt><trkpt lat="43.4159287" lon="11.1583059"><ele>231.0</ele><time>2026-05-02T16:26:59.681Z</time></trkpt><trkpt lat="43.4157618" lon="11.1585469"><ele>231.0</ele><time>2026-05-02T16:27:00.681Z</time></trkpt><trkpt lat="43.4155928" lon="11.1587898"><ele>231.0</ele><time>2026-05-02T16:27:01.682Z</time></trkpt><trkpt lat="43.4154235" lon="11.1590329"><ele>230.5</ele><time>2026-05-02T16:27:02.667Z</time></trkpt><trkpt lat="43.4152513" lon="11.1592802"><ele>230.0</ele><time>2026-05-02T16:27:03.672Z</time></trkpt><trkpt lat="43.4150795" lon="11.1595277"><ele>230.0</ele><time>2026-05-02T16:27:04.673Z</time></trkpt><trkpt lat="43.4149099" lon="11.1597724"><ele>230.0</ele><time>2026-05-02T16:27:05.678Z</time></trkpt><trkpt lat="43.4147438" lon="11.1600111"><ele>229.5</ele><time>2026-05-02T16:27:06.685Z</time></trkpt><trkpt lat="43.4145835" lon="11.1602406"><ele>229.0</ele><time>2026-05-02T16:27:07.672Z</time></trkpt><trkpt lat="43.4144249" lon="11.1604662"><ele>229.0</ele><time>2026-05-02T16:27:08.691Z</time></trkpt><trkpt lat="43.4142736" lon="11.1606769"><ele>229.0</ele><time>2026-05-02T16:27:09.698Z</time></trkpt><trkpt lat="43.4141298" lon="11.1608856"><ele>229.0</ele><time>2026-05-02T16:27:10.691Z</time></trkpt><trkpt lat="43.4139877" lon="11.1610857"><ele>228.66666666666666</ele><time>2026-05-02T16:27:11.687Z</time></trkpt><trkpt lat="43.4138443" lon="11.1612743"><ele>228.33333333333331</ele><time>2026-05-02T16:27:12.686Z</time></trkpt><trkpt lat="43.4137081" lon="11.1614712"><ele>228.0</ele><time>2026-05-02T16:27:13.682Z</time></trkpt><trkpt lat="43.4135672" lon="11.1616737"><ele>228.0</ele><time>2026-05-02T16:27:14.688Z</time></trkpt><trkpt lat="43.413424" lon="11.1618811"><ele>228.0</ele><time>2026-05-02T16:27:15.7Z</time></trkpt><trkpt lat="43.4132804" lon="11.1620899"><ele>228.0</ele><time>2026-05-02T16:27:16.693Z</time></trkpt><trkpt lat="43.4131339" lon="11.1623028"><ele>227.66666666666669</ele><time>2026-05-02T16:27:17.693Z</time></trkpt><trkpt lat="43.4129856" lon="11.1625168"><ele>227.33333333333334</ele><time>2026-05-02T16:27:18.692Z</time></trkpt><trkpt lat="43.4128373" lon="11.1627305"><ele>227.0</ele><time>2026-05-02T16:27:19.678Z</time></trkpt><trkpt lat="43.4126868" lon="11.1629478"><ele>227.0</ele><time>2026-05-02T16:27:20.683Z</time></trkpt><trkpt lat="43.4125344" lon="11.1631687"><ele>227.0</ele><time>2026-05-02T16:27:21.701Z</time></trkpt><trkpt lat="43.4123818" lon="11.1633904"><ele>227.0</ele><time>2026-05-02T16:27:22.698Z</time></trkpt><trkpt lat="43.4122283" lon="11.1636157"><ele>226.5</ele><time>2026-05-02T16:27:23.688Z</time></trkpt><trkpt lat="43.4120726" lon="11.1638449"><ele>226.0</ele><time>2026-05-02T16:27:24.69Z</time></trkpt><trkpt lat="43.4119177" lon="11.1640776"><ele>226.0</ele><time>2026-05-02T16:27:25.692Z</time></trkpt><trkpt lat="43.4117649" lon="11.1643171"><ele>226.0</ele><time>2026-05-02T16:27:26.688Z</time></trkpt><trkpt lat="43.4116167" lon="11.1645623"><ele>226.0</ele><time>2026-05-02T16:27:27.667Z</time></trkpt><trkpt lat="43.4114714" lon="11.1648202"><ele>226.0</ele><time>2026-05-02T16:27:28.684Z</time></trkpt><trkpt lat="43.4113316" lon="11.1650836"><ele>226.0</ele><time>2026-05-02T16:27:29.704Z</time></trkpt><trkpt lat="43.4111988" lon="11.1653496"><ele>226.0</ele><time>2026-05-02T16:27:30.678Z</time></trkpt><trkpt lat="43.4110691" lon="11.1656278"><ele>226.5</ele><time>2026-05-02T16:27:31.693Z</time></trkpt><trkpt lat="43.4109462" lon="11.1659086"><ele>227.0</ele><time>2026-05-02T16:27:32.674Z</time></trkpt><trkpt lat="43.4108257" lon="11.1661979"><ele>227.0</ele><time>2026-05-02T16:27:33.676Z</time></trkpt><trkpt lat="43.4107106" lon="11.1664927"><ele>227.0</ele><time>2026-05-02T16:27:34.677Z</time></trkpt><trkpt lat="43.4106008" lon="11.1667927"><ele>227.0</ele><time>2026-05-02T16:27:35.688Z</time></trkpt><trkpt lat="43.4104964" lon="11.1670973"><ele>227.0</ele><time>2026-05-02T16:27:36.696Z</time></trkpt><trkpt lat="43.410396" lon="11.1674041"><ele>227.0</ele><time>2026-05-02T16:27:37.692Z</time></trkpt><trkpt lat="43.4102999" lon="11.1677115"><ele>227.0</ele><time>2026-05-02T16:27:38.684Z</time></trkpt><trkpt lat="43.4102076" lon="11.1680173"><ele>226.0</ele><time>2026-05-02T16:27:39.701Z</time></trkpt><trkpt lat="43.4101204" lon="11.1683152"><ele>225.0</ele><time>2026-05-02T16:27:40.691Z</time></trkpt><trkpt lat="43.4100338" lon="11.1686107"><ele>225.0</ele><time>2026-05-02T16:27:41.694Z</time></trkpt><trkpt lat="43.4099499" lon="11.1688989"><ele>225.0</ele><time>2026-05-02T16:27:42.668Z</time></trkpt><trkpt lat="43.4098648" lon="11.1691892"><ele>224.66666666666669</ele><time>2026-05-02T16:27:43.683Z</time></trkpt><trkpt lat="43.4097802" lon="11.1694731"><ele>224.33333333333334</ele><time>2026-05-02T16:27:44.69Z</time></trkpt><trkpt lat="43.4096967" lon="11.169754"><ele>224.0</ele><time>2026-05-02T16:27:45.687Z</time></trkpt><trkpt lat="43.4096142" lon="11.170033"><ele>224.0</ele><time>2026-05-02T16:27:46.672Z</time></trkpt><trkpt lat="43.4095321" lon="11.170315"><ele>224.0</ele><time>2026-05-02T16:27:47.684Z</time></trkpt><trkpt lat="43.4094514" lon="11.1705956"><ele>224.0</ele><time>2026-05-02T16:27:48.687Z</time></trkpt><trkpt lat="43.4093697" lon="11.1708771"><ele>224.0</ele><time>2026-05-02T16:27:49.699Z</time></trkpt><trkpt lat="43.409288" lon="11.1711574"><ele>224.0</ele><time>2026-05-02T16:27:50.693Z</time></trkpt><trkpt lat="43.4092061" lon="11.1714395"><ele>224.0</ele><time>2026-05-02T16:27:51.704Z</time></trkpt><trkpt lat="43.409125" lon="11.1717164"><ele>224.0</ele><time>2026-05-02T16:27:52.68Z</time></trkpt><trkpt lat="43.4090431" lon="11.1719959"><ele>224.0</ele><time>2026-05-02T16:27:53.694Z</time></trkpt><trkpt lat="43.408964" lon="11.1722639"><ele>224.0</ele><time>2026-05-02T16:27:54.672Z</time></trkpt><trkpt lat="43.4088844" lon="11.1725246"><ele>223.66666666666669</ele><time>2026-05-02T16:27:55.696Z</time></trkpt><trkpt lat="43.4088095" lon="11.1727666"><ele>223.33333333333331</ele><time>2026-05-02T16:27:56.689Z</time></trkpt><trkpt lat="43.4087382" lon="11.1729932"><ele>223.0</ele><time>2026-05-02T16:27:57.698Z</time></trkpt><trkpt lat="43.408674" lon="11.1731989"><ele>223.0</ele><time>2026-05-02T16:27:58.69Z</time></trkpt><trkpt lat="43.4086167" lon="11.1733846"><ele>223.0</ele><time>2026-05-02T16:27:59.689Z</time></trkpt><trkpt lat="43.4085664" lon="11.1735507"><ele>223.0</ele><time>2026-05-02T16:28:00.702Z</time></trkpt><trkpt lat="43.4085225" lon="11.1736944"><ele>223.0</ele><time>2026-05-02T16:28:01.705Z</time></trkpt><trkpt lat="43.4084844" lon="11.1738175"><ele>222.99999999999997</ele><time>2026-05-02T16:28:02.712Z</time></trkpt><trkpt lat="43.408452" lon="11.1739196"><ele>223.0</ele><time>2026-05-02T16:28:03.692Z</time></trkpt><trkpt lat="43.4084249" lon="11.1740042"><ele>223.0</ele><time>2026-05-02T16:28:04.695Z</time></trkpt><trkpt lat="43.4083876" lon="11.1741196"><ele>223.0</ele><time>2026-05-02T16:28:06.692Z</time></trkpt><trkpt lat="43.4083571" lon="11.1742506"><ele>222.99999999999997</ele><time>2026-05-02T16:28:38.68Z</time></trkpt><trkpt lat="43.4083373" lon="11.1743567"><ele>223.0</ele><time>2026-05-02T16:28:39.676Z</time></trkpt><trkpt lat="43.408305" lon="11.1745045"><ele>223.66666666666666</ele><time>2026-05-02T16:28:40.681Z</time></trkpt><trkpt lat="43.4082563" lon="11.174685"><ele>224.33333333333331</ele><time>2026-05-02T16:28:41.672Z</time></trkpt><trkpt lat="43.4081956" lon="11.1748932"><ele>225.0</ele><time>2026-05-02T16:28:42.694Z</time></trkpt><trkpt lat="43.4081281" lon="11.1751263"><ele>225.66666666666669</ele><time>2026-05-02T16:28:43.684Z</time></trkpt><trkpt lat="43.4080547" lon="11.1753826"><ele>226.33333333333334</ele><time>2026-05-02T16:28:44.681Z</time></trkpt><trkpt lat="43.4079745" lon="11.1756644"><ele>227.0</ele><time>2026-05-02T16:28:45.679Z</time></trkpt><trkpt lat="43.4078861" lon="11.175972"><ele>223.0</ele><time>2026-05-02T16:28:46.676Z</time></trkpt><trkpt lat="43.4077893" lon="11.1763045"><ele>219.0</ele><time>2026-05-02T16:28:47.677Z</time></trkpt><trkpt lat="43.4076857" lon="11.1766559"><ele>219.0</ele><time>2026-05-02T16:28:48.682Z</time></trkpt><trkpt lat="43.4075754" lon="11.1770231"><ele>219.0</ele><time>2026-05-02T16:28:49.677Z</time></trkpt><trkpt lat="43.4074585" lon="11.1774025"><ele>220.5</ele><time>2026-05-02T16:28:50.669Z</time></trkpt><trkpt lat="43.4073339" lon="11.177791"><ele>222.0</ele><time>2026-05-02T16:28:51.687Z</time></trkpt><trkpt lat="43.4071995" lon="11.1781846"><ele>219.0</ele><time>2026-05-02T16:28:52.681Z</time></trkpt><trkpt lat="43.4070587" lon="11.1785716"><ele>216.0</ele><time>2026-05-02T16:28:53.674Z</time></trkpt><trkpt lat="43.4069167" lon="11.1789391"><ele>217.0</ele><time>2026-05-02T16:28:54.676Z</time></trkpt><trkpt lat="43.406775" lon="11.1792897"><ele>218.0</ele><time>2026-05-02T16:28:55.687Z</time></trkpt><trkpt lat="43.4066312" lon="11.1796295"><ele>219.5</ele><time>2026-05-02T16:28:56.667Z</time></trkpt><trkpt lat="43.4064828" lon="11.1799621"><ele>221.0</ele><time>2026-05-02T16:28:57.686Z</time></trkpt><trkpt lat="43.4063298" lon="11.1802873"><ele>222.0</ele><time>2026-05-02T16:28:58.679Z</time></trkpt><trkpt lat="43.4061762" lon="11.1806079"><ele>223.0</ele><time>2026-05-02T16:28:59.68Z</time></trkpt><trkpt lat="43.4060231" lon="11.1809261"><ele>223.0</ele><time>2026-05-02T16:29:00.677Z</time></trkpt><trkpt lat="43.4058719" lon="11.1812446"><ele>223.0</ele><time>2026-05-02T16:29:01.685Z</time></trkpt><trkpt lat="43.4057224" lon="11.1815597"><ele>223.5</ele><time>2026-05-02T16:29:02.675Z</time></trkpt><trkpt lat="43.4055721" lon="11.1818761"><ele>224.0</ele><time>2026-05-02T16:29:03.672Z</time></trkpt><trkpt lat="43.4054214" lon="11.1821918"><ele>223.0</ele><time>2026-05-02T16:29:04.676Z</time></trkpt><trkpt lat="43.4052701" lon="11.1825071"><ele>222.0</ele><time>2026-05-02T16:29:05.693Z</time></trkpt><trkpt lat="43.4051202" lon="11.182818"><ele>222.0</ele><time>2026-05-02T16:29:06.682Z</time></trkpt><trkpt lat="43.4049695" lon="11.1831301"><ele>222.0</ele><time>2026-05-02T16:29:07.675Z</time></trkpt><trkpt lat="43.4048183" lon="11.1834435"><ele>220.5</ele><time>2026-05-02T16:29:08.678Z</time></trkpt><trkpt lat="43.4046669" lon="11.1837561"><ele>219.0</ele><time>2026-05-02T16:29:09.67Z</time></trkpt><trkpt lat="43.4045142" lon="11.1840706"><ele>218.0</ele><time>2026-05-02T16:29:10.663Z</time></trkpt><trkpt lat="43.4043607" lon="11.1843871"><ele>217.0</ele><time>2026-05-02T16:29:11.666Z</time></trkpt><trkpt lat="43.4042068" lon="11.1847044"><ele>215.5</ele><time>2026-05-02T16:29:12.678Z</time></trkpt><trkpt lat="43.4040535" lon="11.1850199"><ele>214.0</ele><time>2026-05-02T16:29:13.669Z</time></trkpt><trkpt lat="43.4038985" lon="11.1853394"><ele>213.5</ele><time>2026-05-02T16:29:14.68Z</time></trkpt><trkpt lat="43.403745" lon="11.1856579"><ele>213.0</ele><time>2026-05-02T16:29:15.668Z</time></trkpt><trkpt lat="43.40359" lon="11.185981"><ele>213.0</ele><time>2026-05-02T16:29:16.667Z</time></trkpt><trkpt lat="43.4034346" lon="11.1863059"><ele>213.0</ele><time>2026-05-02T16:29:17.672Z</time></trkpt><trkpt lat="43.4032791" lon="11.1866294"><ele>212.5</ele><time>2026-05-02T16:29:18.673Z</time></trkpt><trkpt lat="43.4031237" lon="11.1869518"><ele>212.0</ele><time>2026-05-02T16:29:19.673Z</time></trkpt><trkpt lat="43.4029692" lon="11.1872715"><ele>211.0</ele><time>2026-05-02T16:29:20.682Z</time></trkpt><trkpt lat="43.4028209" lon="11.1875775"><ele>210.0</ele><time>2026-05-02T16:29:21.678Z</time></trkpt><trkpt lat="43.4026784" lon="11.1878701"><ele>210.0</ele><time>2026-05-02T16:29:22.684Z</time></trkpt><trkpt lat="43.4025405" lon="11.188152"><ele>210.0</ele><time>2026-05-02T16:29:23.664Z</time></trkpt><trkpt lat="43.4024004" lon="11.1884392"><ele>210.5</ele><time>2026-05-02T16:29:24.661Z</time></trkpt><trkpt lat="43.4022582" lon="11.1887332"><ele>211.0</ele><time>2026-05-02T16:29:25.664Z</time></trkpt><trkpt lat="43.4021138" lon="11.1890338"><ele>210.0</ele><time>2026-05-02T16:29:26.68Z</time></trkpt><trkpt lat="43.4019698" lon="11.189333"><ele>209.0</ele><time>2026-05-02T16:29:27.649Z</time></trkpt><trkpt lat="43.4018195" lon="11.1896433"><ele>209.0</ele><time>2026-05-02T16:29:28.674Z</time></trkpt><trkpt lat="43.4016693" lon="11.1899522"><ele>209.0</ele><time>2026-05-02T16:29:29.683Z</time></trkpt><trkpt lat="43.4015199" lon="11.190262"><ele>209.0</ele><time>2026-05-02T16:29:30.668Z</time></trkpt><trkpt lat="43.4013685" lon="11.1905774"><ele>209.0</ele><time>2026-05-02T16:29:31.672Z</time></trkpt><trkpt lat="43.4012169" lon="11.1908929"><ele>209.5</ele><time>2026-05-02T16:29:32.685Z</time></trkpt><trkpt lat="43.4010674" lon="11.1912022"><ele>210.0</ele><time>2026-05-02T16:29:33.658Z</time></trkpt><trkpt lat="43.4009147" lon="11.1915169"><ele>210.0</ele><time>2026-05-02T16:29:34.668Z</time></trkpt><trkpt lat="43.4007641" lon="11.1918273"><ele>210.0</ele><time>2026-05-02T16:29:35.665Z</time></trkpt><trkpt lat="43.4006139" lon="11.1921378"><ele>209.5</ele><time>2026-05-02T16:29:36.671Z</time></trkpt><trkpt lat="43.4004645" lon="11.1924479"><ele>209.0</ele><time>2026-05-02T16:29:37.678Z</time></trkpt><trkpt lat="43.4003158" lon="11.1927569"><ele>209.0</ele><time>2026-05-02T16:29:38.676Z</time></trkpt><trkpt lat="43.4001667" lon="11.1930668"><ele>209.0</ele><time>2026-05-02T16:29:39.678Z</time></trkpt><trkpt lat="43.4000187" lon="11.193375"><ele>209.5</ele><time>2026-05-02T16:29:40.661Z</time></trkpt><trkpt lat="43.3998684" lon="11.1936877"><ele>210.0</ele><time>2026-05-02T16:29:41.68Z</time></trkpt><trkpt lat="43.3997199" lon="11.1939956"><ele>209.0</ele><time>2026-05-02T16:29:42.679Z</time></trkpt><trkpt lat="43.399572" lon="11.1943014"><ele>208.0</ele><time>2026-05-02T16:29:43.671Z</time></trkpt><trkpt lat="43.3994241" lon="11.1946077"><ele>209.0</ele><time>2026-05-02T16:29:44.682Z</time></trkpt><trkpt lat="43.3992778" lon="11.19491"><ele>210.0</ele><time>2026-05-02T16:29:45.676Z</time></trkpt><trkpt lat="43.3991304" lon="11.1952138"><ele>210.0</ele><time>2026-05-02T16:29:46.684Z</time></trkpt><trkpt lat="43.3989832" lon="11.1955168"><ele>210.0</ele><time>2026-05-02T16:29:47.683Z</time></trkpt><trkpt lat="43.3988359" lon="11.1958201"><ele>209.5</ele><time>2026-05-02T16:29:48.677Z</time></trkpt><trkpt lat="43.3986891" lon="11.1961241"><ele>209.0</ele><time>2026-05-02T16:29:49.673Z</time></trkpt><trkpt lat="43.3985426" lon="11.1964289"><ele>209.0</ele><time>2026-05-02T16:29:50.68Z</time></trkpt><trkpt lat="43.3983974" lon="11.1967325"><ele>209.0</ele><time>2026-05-02T16:29:51.683Z</time></trkpt><trkpt lat="43.3982521" lon="11.1970354"><ele>208.5</ele><time>2026-05-02T16:29:52.682Z</time></trkpt><trkpt lat="43.3981067" lon="11.1973359"><ele>208.0</ele><time>2026-05-02T16:29:53.673Z</time></trkpt><trkpt lat="43.3979601" lon="11.1976372"><ele>208.0</ele><time>2026-05-02T16:29:54.683Z</time></trkpt><trkpt lat="43.3978149" lon="11.1979359"><ele>208.0</ele><time>2026-05-02T16:29:55.681Z</time></trkpt><trkpt lat="43.3976705" lon="11.1982347"><ele>210.5</ele><time>2026-05-02T16:29:56.671Z</time></trkpt><trkpt lat="43.3975268" lon="11.1985355"><ele>213.0</ele><time>2026-05-02T16:29:57.667Z</time></trkpt><trkpt lat="43.3973827" lon="11.1988395"><ele>212.0</ele><time>2026-05-02T16:29:58.684Z</time></trkpt><trkpt lat="43.3972403" lon="11.1991387"><ele>211.0</ele><time>2026-05-02T16:29:59.676Z</time></trkpt><trkpt lat="43.3970959" lon="11.1994389"><ele>211.0</ele><time>2026-05-02T16:30:00.682Z</time></trkpt><trkpt lat="43.3969515" lon="11.199736"><ele>211.0</ele><time>2026-05-02T16:30:01.673Z</time></trkpt><trkpt lat="43.3968065" lon="11.2000344"><ele>214.0</ele><time>2026-05-02T16:30:02.673Z</time></trkpt><trkpt lat="43.3966624" lon="11.2003326"><ele>217.0</ele><time>2026-05-02T16:30:03.677Z</time></trkpt><trkpt lat="43.3965189" lon="11.2006299"><ele>218.0</ele><time>2026-05-02T16:30:04.675Z</time></trkpt><trkpt lat="43.3963749" lon="11.2009274"><ele>219.0</ele><time>2026-05-02T16:30:05.678Z</time></trkpt><trkpt lat="43.396231" lon="11.2012239"><ele>217.0</ele><time>2026-05-02T16:30:06.671Z</time></trkpt><trkpt lat="43.3960867" lon="11.201522"><ele>215.0</ele><time>2026-05-02T16:30:07.659Z</time></trkpt><trkpt lat="43.3959411" lon="11.2018239"><ele>215.0</ele><time>2026-05-02T16:30:08.674Z</time></trkpt><trkpt lat="43.3957989" lon="11.2021242"><ele>215.0</ele><time>2026-05-02T16:30:09.679Z</time></trkpt><trkpt lat="43.3956604" lon="11.2024047"><ele>215.5</ele><time>2026-05-02T16:30:10.673Z</time></trkpt><trkpt lat="43.3955295" lon="11.202695"><ele>216.0</ele><time>2026-05-02T16:30:11.676Z</time></trkpt><trkpt lat="43.3954091" lon="11.2030003"><ele>216.0</ele><time>2026-05-02T16:30:12.673Z</time></trkpt><trkpt lat="43.395301" lon="11.2033168"><ele>216.0</ele><time>2026-05-02T16:30:13.673Z</time></trkpt><trkpt lat="43.3952031" lon="11.2036437"><ele>216.0</ele><time>2026-05-02T16:30:14.68Z</time></trkpt><trkpt lat="43.3951184" lon="11.2039801"><ele>216.0</ele><time>2026-05-02T16:30:15.68Z</time></trkpt><trkpt lat="43.3950461" lon="11.2043202"><ele>216.0</ele><time>2026-05-02T16:30:16.67Z</time></trkpt><trkpt lat="43.3949872" lon="11.2046677"><ele>216.0</ele><time>2026-05-02T16:30:17.672Z</time></trkpt><trkpt lat="43.3949406" lon="11.2050182"><ele>214.5</ele><time>2026-05-02T16:30:18.671Z</time></trkpt><trkpt lat="43.3949045" lon="11.2053715"><ele>213.0</ele><time>2026-05-02T16:30:19.666Z</time></trkpt><trkpt lat="43.3948746" lon="11.2057274"><ele>213.0</ele><time>2026-05-02T16:30:20.67Z</time></trkpt><trkpt lat="43.394848" lon="11.2060858"><ele>213.0</ele><time>2026-05-02T16:30:21.668Z</time></trkpt><trkpt lat="43.3948189" lon="11.2064493"><ele>211.5</ele><time>2026-05-02T16:30:22.677Z</time></trkpt><trkpt lat="43.3947864" lon="11.2068124"><ele>210.0</ele><time>2026-05-02T16:30:23.677Z</time></trkpt><trkpt lat="43.3947516" lon="11.2071772"><ele>209.0</ele><time>2026-05-02T16:30:24.679Z</time></trkpt><trkpt lat="43.3947171" lon="11.2075437"><ele>208.0</ele><time>2026-05-02T16:30:25.681Z</time></trkpt><trkpt lat="43.3946848" lon="11.2079119"><ele>203.0</ele><time>2026-05-02T16:30:26.678Z</time></trkpt><trkpt lat="43.3946549" lon="11.2082828"><ele>198.0</ele><time>2026-05-02T16:30:27.681Z</time></trkpt><trkpt lat="43.3946243" lon="11.2086536"><ele>198.5</ele><time>2026-05-02T16:30:28.675Z</time></trkpt><trkpt lat="43.3945935" lon="11.2090271"><ele>199.0</ele><time>2026-05-02T16:30:29.681Z</time></trkpt><trkpt lat="43.3945626" lon="11.2093997"><ele>199.0</ele><time>2026-05-02T16:30:30.688Z</time></trkpt><trkpt lat="43.3945316" lon="11.2097717"><ele>199.0</ele><time>2026-05-02T16:30:31.69Z</time></trkpt><trkpt lat="43.3945003" lon="11.2101446"><ele>197.5</ele><time>2026-05-02T16:30:32.69Z</time></trkpt><trkpt lat="43.3944693" lon="11.210515"><ele>196.0</ele><time>2026-05-02T16:30:33.666Z</time></trkpt><trkpt lat="43.3944373" lon="11.2108909"><ele>195.0</ele><time>2026-05-02T16:30:34.686Z</time></trkpt><trkpt lat="43.3944062" lon="11.2112621"><ele>194.0</ele><time>2026-05-02T16:30:35.688Z</time></trkpt><trkpt lat="43.3943754" lon="11.2116342"><ele>194.0</ele><time>2026-05-02T16:30:36.699Z</time></trkpt><trkpt lat="43.3943452" lon="11.2120002"><ele>194.0</ele><time>2026-05-02T16:30:37.667Z</time></trkpt><trkpt lat="43.3943148" lon="11.2123711"><ele>195.0</ele><time>2026-05-02T16:30:38.678Z</time></trkpt><trkpt lat="43.3942847" lon="11.2127349"><ele>196.0</ele><time>2026-05-02T16:30:39.671Z</time></trkpt><trkpt lat="43.3942547" lon="11.2130976"><ele>196.0</ele><time>2026-05-02T16:30:40.676Z</time></trkpt><trkpt lat="43.3942249" lon="11.213457"><ele>196.0</ele><time>2026-05-02T16:30:41.689Z</time></trkpt><trkpt lat="43.3941957" lon="11.2138085"><ele>196.0</ele><time>2026-05-02T16:30:42.666Z</time></trkpt><trkpt lat="43.3941657" lon="11.214163"><ele>196.0</ele><time>2026-05-02T16:30:43.667Z</time></trkpt><trkpt lat="43.3941353" lon="11.214516"><ele>197.0</ele><time>2026-05-02T16:30:44.677Z</time></trkpt><trkpt lat="43.3941053" lon="11.2148654"><ele>198.0</ele><time>2026-05-02T16:30:45.677Z</time></trkpt><trkpt lat="43.3940761" lon="11.2152126"><ele>198.0</ele><time>2026-05-02T16:30:46.67Z</time></trkpt><trkpt lat="43.394047" lon="11.2155615"><ele>198.0</ele><time>2026-05-02T16:30:47.685Z</time></trkpt><trkpt lat="43.3940187" lon="11.2159036"><ele>197.5</ele><time>2026-05-02T16:30:48.664Z</time></trkpt><trkpt lat="43.393991" lon="11.2162492"><ele>197.0</ele><time>2026-05-02T16:30:49.669Z</time></trkpt><trkpt lat="43.3939637" lon="11.2165916"><ele>196.5</ele><time>2026-05-02T16:30:50.676Z</time></trkpt><trkpt lat="43.3939365" lon="11.2169315"><ele>196.0</ele><time>2026-05-02T16:30:51.678Z</time></trkpt><trkpt lat="43.3939094" lon="11.2172716"><ele>196.5</ele><time>2026-05-02T16:30:52.683Z</time></trkpt><trkpt lat="43.3938812" lon="11.2176111"><ele>197.0</ele><time>2026-05-02T16:30:53.687Z</time></trkpt><trkpt lat="43.3938523" lon="11.2179503"><ele>199.5</ele><time>2026-05-02T16:30:54.687Z</time></trkpt><trkpt lat="43.3938232" lon="11.2182909"><ele>202.0</ele><time>2026-05-02T16:30:55.692Z</time></trkpt><trkpt lat="43.3937947" lon="11.2186291"><ele>202.0</ele><time>2026-05-02T16:30:56.67Z</time></trkpt><trkpt lat="43.393766" lon="11.2189736"><ele>202.0</ele><time>2026-05-02T16:30:57.687Z</time></trkpt><trkpt lat="43.3937384" lon="11.219313"><ele>203.0</ele><time>2026-05-02T16:30:58.676Z</time></trkpt><trkpt lat="43.3937134" lon="11.219655"><ele>204.0</ele><time>2026-05-02T16:30:59.679Z</time></trkpt><trkpt lat="43.3936947" lon="11.2199961"><ele>207.0</ele><time>2026-05-02T16:31:00.684Z</time></trkpt><trkpt lat="43.3936833" lon="11.2203348"><ele>210.0</ele><time>2026-05-02T16:31:01.673Z</time></trkpt><trkpt lat="43.3936803" lon="11.2206765"><ele>214.5</ele><time>2026-05-02T16:31:02.678Z</time></trkpt><trkpt lat="43.3936852" lon="11.2210161"><ele>219.0</ele><time>2026-05-02T16:31:03.668Z</time></trkpt><trkpt lat="43.3936972" lon="11.2213597"><ele>220.5</ele><time>2026-05-02T16:31:04.679Z</time></trkpt><trkpt lat="43.3937147" lon="11.221702"><ele>222.0</ele><time>2026-05-02T16:31:05.685Z</time></trkpt><trkpt lat="43.3937395" lon="11.2220433"><ele>218.0</ele><time>2026-05-02T16:31:06.681Z</time></trkpt><trkpt lat="43.3937699" lon="11.2223853"><ele>214.0</ele><time>2026-05-02T16:31:07.673Z</time></trkpt><trkpt lat="43.3938071" lon="11.222731"><ele>209.5</ele><time>2026-05-02T16:31:08.691Z</time></trkpt><trkpt lat="43.3938464" lon="11.2230741"><ele>205.0</ele><time>2026-05-02T16:31:09.694Z</time></trkpt><trkpt lat="43.3938857" lon="11.223417"><ele>205.0</ele><time>2026-05-02T16:31:10.681Z</time></trkpt><trkpt lat="43.393925" lon="11.2237638"><ele>205.0</ele><time>2026-05-02T16:31:11.684Z</time></trkpt><trkpt lat="43.3939641" lon="11.2241112"><ele>206.0</ele><time>2026-05-02T16:31:12.691Z</time></trkpt><trkpt lat="43.3940027" lon="11.2244589"><ele>207.0</ele><time>2026-05-02T16:31:13.694Z</time></trkpt><trkpt lat="43.3940417" lon="11.2248049"><ele>207.0</ele><time>2026-05-02T16:31:14.679Z</time></trkpt><trkpt lat="43.394082" lon="11.2251555"><ele>207.0</ele><time>2026-05-02T16:31:15.697Z</time></trkpt><trkpt lat="43.394124" lon="11.2255"><ele>207.0</ele><time>2026-05-02T16:31:16.684Z</time></trkpt><trkpt lat="43.3941666" lon="11.2258471"><ele>207.0</ele><time>2026-05-02T16:31:17.677Z</time></trkpt><trkpt lat="43.394209" lon="11.2261957"><ele>208.5</ele><time>2026-05-02T16:31:18.687Z</time></trkpt><trkpt lat="43.3942502" lon="11.2265411"><ele>210.0</ele><time>2026-05-02T16:31:19.682Z</time></trkpt><trkpt lat="43.3942898" lon="11.2268875"><ele>210.0</ele><time>2026-05-02T16:31:20.684Z</time></trkpt><trkpt lat="43.3943267" lon="11.2272341"><ele>210.0</ele><time>2026-05-02T16:31:21.689Z</time></trkpt><trkpt lat="43.3943611" lon="11.2275783"><ele>211.0</ele><time>2026-05-02T16:31:22.675Z</time></trkpt><trkpt lat="43.3943911" lon="11.2279245"><ele>212.0</ele><time>2026-05-02T16:31:23.683Z</time></trkpt><trkpt lat="43.3944134" lon="11.2282652"><ele>215.0</ele><time>2026-05-02T16:31:24.676Z</time></trkpt><trkpt lat="43.3944248" lon="11.2286065"><ele>218.0</ele><time>2026-05-02T16:31:25.679Z</time></trkpt><trkpt lat="43.394422" lon="11.2289476"><ele>222.0</ele><time>2026-05-02T16:31:26.689Z</time></trkpt><trkpt lat="43.3944045" lon="11.2292866"><ele>226.0</ele><time>2026-05-02T16:31:27.675Z</time></trkpt><trkpt lat="43.3943718" lon="11.2296303"><ele>224.5</ele><time>2026-05-02T16:31:28.689Z</time></trkpt><trkpt lat="43.394325" lon="11.2299691"><ele>223.0</ele><time>2026-05-02T16:31:29.682Z</time></trkpt><trkpt lat="43.3942633" lon="11.2303056"><ele>219.5</ele><time>2026-05-02T16:31:30.665Z</time></trkpt><trkpt lat="43.3941876" lon="11.2306413"><ele>216.0</ele><time>2026-05-02T16:31:31.675Z</time></trkpt><trkpt lat="43.3941009" lon="11.2309712"><ele>216.0</ele><time>2026-05-02T16:31:32.683Z</time></trkpt><trkpt lat="43.394002" lon="11.2312934"><ele>216.0</ele><time>2026-05-02T16:31:33.677Z</time></trkpt><trkpt lat="43.3938959" lon="11.2316129"><ele>218.5</ele><time>2026-05-02T16:31:34.672Z</time></trkpt><trkpt lat="43.3937889" lon="11.2319346"><ele>221.0</ele><time>2026-05-02T16:31:35.685Z</time></trkpt><trkpt lat="43.3936817" lon="11.2322561"><ele>219.0</ele><time>2026-05-02T16:31:36.689Z</time></trkpt><trkpt lat="43.3935748" lon="11.2325782"><ele>217.0</ele><time>2026-05-02T16:31:37.675Z</time></trkpt><trkpt lat="43.3934668" lon="11.2329036"><ele>215.0</ele><time>2026-05-02T16:31:38.674Z</time></trkpt><trkpt lat="43.3933594" lon="11.2332288"><ele>213.0</ele><time>2026-05-02T16:31:39.668Z</time></trkpt><trkpt lat="43.3932517" lon="11.2335566"><ele>213.0</ele><time>2026-05-02T16:31:40.68Z</time></trkpt><trkpt lat="43.3931447" lon="11.2338811"><ele>213.0</ele><time>2026-05-02T16:31:41.672Z</time></trkpt><trkpt lat="43.3930366" lon="11.2342075"><ele>213.5</ele><time>2026-05-02T16:31:42.68Z</time></trkpt><trkpt lat="43.392929" lon="11.2345326"><ele>214.0</ele><time>2026-05-02T16:31:43.685Z</time></trkpt><trkpt lat="43.3928227" lon="11.2348544"><ele>214.0</ele><time>2026-05-02T16:31:44.666Z</time></trkpt><trkpt lat="43.3927144" lon="11.2351799"><ele>214.0</ele><time>2026-05-02T16:31:45.677Z</time></trkpt><trkpt lat="43.3926063" lon="11.2355022"><ele>212.0</ele><time>2026-05-02T16:31:46.684Z</time></trkpt><trkpt lat="43.3924984" lon="11.235822"><ele>210.0</ele><time>2026-05-02T16:31:47.678Z</time></trkpt><trkpt lat="43.3923925" lon="11.2361423"><ele>210.0</ele><time>2026-05-02T16:31:48.67Z</time></trkpt><trkpt lat="43.3922926" lon="11.2364664"><ele>210.0</ele><time>2026-05-02T16:31:49.679Z</time></trkpt><trkpt lat="43.3922039" lon="11.2367931"><ele>216.0</ele><time>2026-05-02T16:31:50.68Z</time></trkpt><trkpt lat="43.3921274" lon="11.2371227"><ele>222.0</ele><time>2026-05-02T16:31:51.67Z</time></trkpt><trkpt lat="43.3920627" lon="11.2374579"><ele>223.0</ele><time>2026-05-02T16:31:52.662Z</time></trkpt><trkpt lat="43.3920078" lon="11.237797"><ele>224.0</ele><time>2026-05-02T16:31:53.669Z</time></trkpt><trkpt lat="43.3919669" lon="11.2381366"><ele>226.0</ele><time>2026-05-02T16:31:54.679Z</time></trkpt><trkpt lat="43.3919375" lon="11.2384735"><ele>228.0</ele><time>2026-05-02T16:31:55.663Z</time></trkpt><trkpt lat="43.3919173" lon="11.2388135"><ele>227.5</ele><time>2026-05-02T16:31:56.669Z</time></trkpt><trkpt lat="43.3919087" lon="11.2391517"><ele>227.0</ele><time>2026-05-02T16:31:57.674Z</time></trkpt><trkpt lat="43.3919103" lon="11.2394878"><ele>227.5</ele><time>2026-05-02T16:31:58.671Z</time></trkpt><trkpt lat="43.3919239" lon="11.2398251"><ele>228.0</ele><time>2026-05-02T16:31:59.684Z</time></trkpt><trkpt lat="43.3919488" lon="11.2401572"><ele>228.0</ele><time>2026-05-02T16:32:00.679Z</time></trkpt><trkpt lat="43.3919833" lon="11.2404887"><ele>228.0</ele><time>2026-05-02T16:32:01.678Z</time></trkpt><trkpt lat="43.392026" lon="11.2408182"><ele>232.0</ele><time>2026-05-02T16:32:02.668Z</time></trkpt><trkpt lat="43.3920713" lon="11.2411523"><ele>236.0</ele><time>2026-05-02T16:32:03.687Z</time></trkpt><trkpt lat="43.3921161" lon="11.2414827"><ele>238.0</ele><time>2026-05-02T16:32:04.675Z</time></trkpt><trkpt lat="43.3921588" lon="11.241819"><ele>240.0</ele><time>2026-05-02T16:32:05.693Z</time></trkpt><trkpt lat="43.3921948" lon="11.242151"><ele>226.0</ele><time>2026-05-02T16:32:06.672Z</time></trkpt><trkpt lat="43.3922238" lon="11.2424911"><ele>212.0</ele><time>2026-05-02T16:32:07.689Z</time></trkpt><trkpt lat="43.3922408" lon="11.242828"><ele>211.0</ele><time>2026-05-02T16:32:08.675Z</time></trkpt><trkpt lat="43.3922433" lon="11.2431715"><ele>210.0</ele><time>2026-05-02T16:32:09.686Z</time></trkpt><trkpt lat="43.3922309" lon="11.2435115"><ele>210.0</ele><time>2026-05-02T16:32:10.679Z</time></trkpt><trkpt lat="43.3922026" lon="11.2438526"><ele>210.0</ele><time>2026-05-02T16:32:11.684Z</time></trkpt><trkpt lat="43.3921605" lon="11.2441928"><ele>209.5</ele><time>2026-05-02T16:32:12.685Z</time></trkpt><trkpt lat="43.3921056" lon="11.2445297"><ele>209.0</ele><time>2026-05-02T16:32:13.674Z</time></trkpt><trkpt lat="43.3920372" lon="11.244865"><ele>210.0</ele><time>2026-05-02T16:32:14.683Z</time></trkpt><trkpt lat="43.3919557" lon="11.245193"><ele>211.0</ele><time>2026-05-02T16:32:15.679Z</time></trkpt><trkpt lat="43.3918601" lon="11.2455172"><ele>214.5</ele><time>2026-05-02T16:32:16.689Z</time></trkpt><trkpt lat="43.3917501" lon="11.2458312"><ele>218.0</ele><time>2026-05-02T16:32:17.685Z</time></trkpt><trkpt lat="43.3916282" lon="11.2461392"><ele>218.0</ele><time>2026-05-02T16:32:18.688Z</time></trkpt><trkpt lat="43.3914989" lon="11.2464386"><ele>218.0</ele><time>2026-05-02T16:32:19.674Z</time></trkpt><trkpt lat="43.3913661" lon="11.2467374"><ele>217.5</ele><time>2026-05-02T16:32:20.678Z</time></trkpt><trkpt lat="43.3912362" lon="11.2470362"><ele>217.0</ele><time>2026-05-02T16:32:21.684Z</time></trkpt><trkpt lat="43.3911116" lon="11.2473356"><ele>217.0</ele><time>2026-05-02T16:32:22.686Z</time></trkpt><trkpt lat="43.3909978" lon="11.2476392"><ele>217.0</ele><time>2026-05-02T16:32:23.678Z</time></trkpt><trkpt lat="43.3908975" lon="11.2479524"><ele>219.0</ele><time>2026-05-02T16:32:24.675Z</time></trkpt><trkpt lat="43.3908104" lon="11.2482726"><ele>221.0</ele><time>2026-05-02T16:32:25.666Z</time></trkpt><trkpt lat="43.3907314" lon="11.2485785"><ele>221.0</ele><time>2026-05-02T16:32:26.68Z</time></trkpt><trkpt lat="43.3906738" lon="11.2488955"><ele>221.0</ele><time>2026-05-02T16:32:27.678Z</time></trkpt><trkpt lat="43.3906248" lon="11.2492242"><ele>222.5</ele><time>2026-05-02T16:32:28.698Z</time></trkpt><trkpt lat="43.3905901" lon="11.249555"><ele>224.0</ele><time>2026-05-02T16:32:29.664Z</time></trkpt><trkpt lat="43.3905616" lon="11.2498996"><ele>226.0</ele><time>2026-05-02T16:32:30.672Z</time></trkpt><trkpt lat="43.3905369" lon="11.2502455"><ele>228.0</ele><time>2026-05-02T16:32:31.682Z</time></trkpt><trkpt lat="43.390514" lon="11.2505892"><ele>225.5</ele><time>2026-05-02T16:32:32.671Z</time></trkpt><trkpt lat="43.3904892" lon="11.2509362"><ele>223.0</ele><time>2026-05-02T16:32:33.678Z</time></trkpt><trkpt lat="43.3904638" lon="11.2512826"><ele>224.0</ele><time>2026-05-02T16:32:34.68Z</time></trkpt><trkpt lat="43.3904381" lon="11.2516272"><ele>225.0</ele><time>2026-05-02T16:32:35.669Z</time></trkpt><trkpt lat="43.390413" lon="11.2519745"><ele>223.0</ele><time>2026-05-02T16:32:36.672Z</time></trkpt><trkpt lat="43.3903879" lon="11.2523234"><ele>221.0</ele><time>2026-05-02T16:32:37.694Z</time></trkpt><trkpt lat="43.390364" lon="11.2526667"><ele>221.0</ele><time>2026-05-02T16:32:38.682Z</time></trkpt><trkpt lat="43.3903394" lon="11.2530127"><ele>221.0</ele><time>2026-05-02T16:32:39.681Z</time></trkpt><trkpt lat="43.3903146" lon="11.2533585"><ele>221.0</ele><time>2026-05-02T16:32:40.681Z</time></trkpt><trkpt lat="43.3902889" lon="11.2537034"><ele>221.0</ele><time>2026-05-02T16:32:41.68Z</time></trkpt><trkpt lat="43.3902633" lon="11.2540483"><ele>221.0</ele><time>2026-05-02T16:32:42.681Z</time></trkpt><trkpt lat="43.3902383" lon="11.2543876"><ele>221.0</ele><time>2026-05-02T16:32:43.685Z</time></trkpt><trkpt lat="43.3902129" lon="11.2547257"><ele>221.0</ele><time>2026-05-02T16:32:44.679Z</time></trkpt><trkpt lat="43.3901878" lon="11.2550651"><ele>221.0</ele><time>2026-05-02T16:32:45.682Z</time></trkpt><trkpt lat="43.3901615" lon="11.2554041"><ele>221.5</ele><time>2026-05-02T16:32:46.673Z</time></trkpt><trkpt lat="43.3901387" lon="11.255748"><ele>222.0</ele><time>2026-05-02T16:32:47.658Z</time></trkpt><trkpt lat="43.3901186" lon="11.2560953"><ele>222.0</ele><time>2026-05-02T16:32:48.674Z</time></trkpt><trkpt lat="43.3901002" lon="11.2564382"><ele>222.0</ele><time>2026-05-02T16:32:49.676Z</time></trkpt><trkpt lat="43.390081" lon="11.2567802"><ele>222.5</ele><time>2026-05-02T16:32:50.669Z</time></trkpt><trkpt lat="43.3900606" lon="11.2571272"><ele>223.0</ele><time>2026-05-02T16:32:51.672Z</time></trkpt><trkpt lat="43.3900374" lon="11.2574752"><ele>226.0</ele><time>2026-05-02T16:32:52.669Z</time></trkpt><trkpt lat="43.3900105" lon="11.257827"><ele>229.0</ele><time>2026-05-02T16:32:53.673Z</time></trkpt><trkpt lat="43.3899808" lon="11.2581789"><ele>231.0</ele><time>2026-05-02T16:32:54.677Z</time></trkpt><trkpt lat="43.3899478" lon="11.25853"><ele>233.0</ele><time>2026-05-02T16:32:55.673Z</time></trkpt><trkpt lat="43.3899129" lon="11.2588818"><ele>235.0</ele><time>2026-05-02T16:32:56.678Z</time></trkpt><trkpt lat="43.3898793" lon="11.2592317"><ele>237.0</ele><time>2026-05-02T16:32:57.67Z</time></trkpt><trkpt lat="43.3898482" lon="11.2595844"><ele>237.5</ele><time>2026-05-02T16:32:58.679Z</time></trkpt><trkpt lat="43.3898217" lon="11.2599364"><ele>238.0</ele><time>2026-05-02T16:32:59.678Z</time></trkpt><trkpt lat="43.3897977" lon="11.2602876"><ele>238.0</ele><time>2026-05-02T16:33:00.662Z</time></trkpt><trkpt lat="43.3897727" lon="11.2606425"><ele>238.0</ele><time>2026-05-02T16:33:01.679Z</time></trkpt><trkpt lat="43.3897479" lon="11.2609939"><ele>238.0</ele><time>2026-05-02T16:33:02.686Z</time></trkpt><trkpt lat="43.3897233" lon="11.2613407"><ele>238.0</ele><time>2026-05-02T16:33:03.68Z</time></trkpt><trkpt lat="43.3896979" lon="11.2616845"><ele>231.0</ele><time>2026-05-02T16:33:04.678Z</time></trkpt><trkpt lat="43.3896721" lon="11.2620256"><ele>224.0</ele><time>2026-05-02T16:33:05.68Z</time></trkpt><trkpt lat="43.3896458" lon="11.2623643"><ele>224.0</ele><time>2026-05-02T16:33:06.669Z</time></trkpt><trkpt lat="43.3896193" lon="11.2627067"><ele>224.0</ele><time>2026-05-02T16:33:07.678Z</time></trkpt><trkpt lat="43.389594" lon="11.2630488"><ele>225.5</ele><time>2026-05-02T16:33:08.675Z</time></trkpt><trkpt lat="43.3895681" lon="11.2633934"><ele>227.0</ele><time>2026-05-02T16:33:09.68Z</time></trkpt><trkpt lat="43.389543" lon="11.2637363"><ele>227.0</ele><time>2026-05-02T16:33:10.671Z</time></trkpt><trkpt lat="43.3895182" lon="11.2640804"><ele>227.0</ele><time>2026-05-02T16:33:11.666Z</time></trkpt><trkpt lat="43.389494" lon="11.2644249"><ele>227.0</ele><time>2026-05-02T16:33:12.669Z</time></trkpt><trkpt lat="43.3894699" lon="11.2647687"><ele>227.0</ele><time>2026-05-02T16:33:13.679Z</time></trkpt><trkpt lat="43.3894459" lon="11.2651104"><ele>226.0</ele><time>2026-05-02T16:33:14.676Z</time></trkpt><trkpt lat="43.3894232" lon="11.2654517"><ele>225.0</ele><time>2026-05-02T16:33:15.671Z</time></trkpt><trkpt lat="43.389402" lon="11.2657927"><ele>224.5</ele><time>2026-05-02T16:33:16.675Z</time></trkpt><trkpt lat="43.3893832" lon="11.2661336"><ele>224.0</ele><time>2026-05-02T16:33:17.681Z</time></trkpt><trkpt lat="43.3893634" lon="11.2664747"><ele>223.5</ele><time>2026-05-02T16:33:18.69Z</time></trkpt><trkpt lat="43.3893397" lon="11.2668132"><ele>223.0</ele><time>2026-05-02T16:33:19.675Z</time></trkpt><trkpt lat="43.3893075" lon="11.2671555"><ele>222.0</ele><time>2026-05-02T16:33:20.684Z</time></trkpt><trkpt lat="43.3892643" lon="11.2674959"><ele>221.0</ele><time>2026-05-02T16:33:21.685Z</time></trkpt><trkpt lat="43.3892084" lon="11.2678318"><ele>221.0</ele><time>2026-05-02T16:33:22.662Z</time></trkpt><trkpt lat="43.3891383" lon="11.2681697"><ele>221.0</ele><time>2026-05-02T16:33:23.691Z</time></trkpt><trkpt lat="43.3890579" lon="11.268494"><ele>221.0</ele><time>2026-05-02T16:33:24.692Z</time></trkpt><trkpt lat="43.3889702" lon="11.2688133"><ele>221.0</ele><time>2026-05-02T16:33:25.684Z</time></trkpt><trkpt lat="43.3888778" lon="11.2691286"><ele>220.0</ele><time>2026-05-02T16:33:26.69Z</time></trkpt><trkpt lat="43.388782" lon="11.2694383"><ele>219.0</ele><time>2026-05-02T16:33:27.688Z</time></trkpt><trkpt lat="43.3886785" lon="11.2697443"><ele>220.5</ele><time>2026-05-02T16:33:28.672Z</time></trkpt><trkpt lat="43.3885607" lon="11.270049"><ele>222.0</ele><time>2026-05-02T16:33:29.686Z</time></trkpt><trkpt lat="43.3884307" lon="11.2703434"><ele>225.0</ele><time>2026-05-02T16:33:30.679Z</time></trkpt><trkpt lat="43.3882885" lon="11.2706329"><ele>228.0</ele><time>2026-05-02T16:33:31.688Z</time></trkpt><trkpt lat="43.3881355" lon="11.270916"><ele>225.5</ele><time>2026-05-02T16:33:32.673Z</time></trkpt><trkpt lat="43.3879685" lon="11.271202"><ele>223.0</ele><time>2026-05-02T16:33:33.69Z</time></trkpt><trkpt lat="43.3877933" lon="11.2714806"><ele>223.0</ele><time>2026-05-02T16:33:34.677Z</time></trkpt><trkpt lat="43.3876032" lon="11.2717533"><ele>223.0</ele><time>2026-05-02T16:33:35.68Z</time></trkpt><trkpt lat="43.3874039" lon="11.2720164"><ele>223.0</ele><time>2026-05-02T16:33:36.676Z</time></trkpt><trkpt lat="43.3871925" lon="11.2722657"><ele>223.0</ele><time>2026-05-02T16:33:37.677Z</time></trkpt><trkpt lat="43.3869715" lon="11.2724983"><ele>223.5</ele><time>2026-05-02T16:33:38.664Z</time></trkpt><trkpt lat="43.3867393" lon="11.2727161"><ele>224.0</ele><time>2026-05-02T16:33:39.676Z</time></trkpt><trkpt lat="43.3865016" lon="11.2729122"><ele>223.5</ele><time>2026-05-02T16:33:40.677Z</time></trkpt><trkpt lat="43.3862571" lon="11.2730906"><ele>223.0</ele><time>2026-05-02T16:33:41.683Z</time></trkpt><trkpt lat="43.3860122" lon="11.2732607"><ele>223.0</ele><time>2026-05-02T16:33:42.68Z</time></trkpt><trkpt lat="43.3857657" lon="11.2734278"><ele>223.0</ele><time>2026-05-02T16:33:43.696Z</time></trkpt><trkpt lat="43.3855233" lon="11.2735909"><ele>223.5</ele><time>2026-05-02T16:33:44.678Z</time></trkpt><trkpt lat="43.3852814" lon="11.2737596"><ele>224.0</ele><time>2026-05-02T16:33:45.665Z</time></trkpt><trkpt lat="43.3850421" lon="11.2739385"><ele>225.5</ele><time>2026-05-02T16:33:46.677Z</time></trkpt><trkpt lat="43.3848103" lon="11.2741276"><ele>227.0</ele><time>2026-05-02T16:33:47.687Z</time></trkpt><trkpt lat="43.3845877" lon="11.2743314"><ele>227.0</ele><time>2026-05-02T16:33:48.692Z</time></trkpt><trkpt lat="43.3843726" lon="11.2745462"><ele>227.0</ele><time>2026-05-02T16:33:49.685Z</time></trkpt><trkpt lat="43.384164" lon="11.2747749"><ele>227.5</ele><time>2026-05-02T16:33:50.683Z</time></trkpt><trkpt lat="43.3839621" lon="11.275014"><ele>228.0</ele><time>2026-05-02T16:33:51.683Z</time></trkpt><trkpt lat="43.3837677" lon="11.275264"><ele>228.0</ele><time>2026-05-02T16:33:52.688Z</time></trkpt><trkpt lat="43.3835843" lon="11.2755232"><ele>228.0</ele><time>2026-05-02T16:33:53.663Z</time></trkpt><trkpt lat="43.3834037" lon="11.2757977"><ele>230.5</ele><time>2026-05-02T16:33:54.693Z</time></trkpt><trkpt lat="43.383235" lon="11.276075"><ele>233.0</ele><time>2026-05-02T16:33:55.685Z</time></trkpt><trkpt lat="43.383074" lon="11.2763636"><ele>232.5</ele><time>2026-05-02T16:33:56.687Z</time></trkpt><trkpt lat="43.3829206" lon="11.2766582"><ele>232.0</ele><time>2026-05-02T16:33:57.686Z</time></trkpt><trkpt lat="43.3827738" lon="11.2769572"><ele>232.0</ele><time>2026-05-02T16:33:58.686Z</time></trkpt><trkpt lat="43.3826301" lon="11.2772576"><ele>232.0</ele><time>2026-05-02T16:33:59.686Z</time></trkpt><trkpt lat="43.3824878" lon="11.2775584"><ele>234.5</ele><time>2026-05-02T16:34:00.681Z</time></trkpt><trkpt lat="43.3823439" lon="11.2778575"><ele>237.0</ele><time>2026-05-02T16:34:01.673Z</time></trkpt><trkpt lat="43.3821991" lon="11.2781549"><ele>235.5</ele><time>2026-05-02T16:34:02.668Z</time></trkpt><trkpt lat="43.3820546" lon="11.2784528"><ele>234.0</ele><time>2026-05-02T16:34:03.678Z</time></trkpt><trkpt lat="43.3819127" lon="11.2787482"><ele>239.0</ele><time>2026-05-02T16:34:04.669Z</time></trkpt><trkpt lat="43.381771" lon="11.279046"><ele>244.0</ele><time>2026-05-02T16:34:05.677Z</time></trkpt><trkpt lat="43.3816303" lon="11.2793413"><ele>244.0</ele><time>2026-05-02T16:34:06.674Z</time></trkpt><trkpt lat="43.3814892" lon="11.2796348"><ele>244.0</ele><time>2026-05-02T16:34:07.658Z</time></trkpt><trkpt lat="43.3813454" lon="11.2799308"><ele>238.5</ele><time>2026-05-02T16:34:08.674Z</time></trkpt><trkpt lat="43.381203" lon="11.2802227"><ele>233.0</ele><time>2026-05-02T16:34:09.671Z</time></trkpt><trkpt lat="43.3810599" lon="11.2805158"><ele>235.0</ele><time>2026-05-02T16:34:10.681Z</time></trkpt><trkpt lat="43.3809174" lon="11.2808068"><ele>237.0</ele><time>2026-05-02T16:34:11.677Z</time></trkpt><trkpt lat="43.380775" lon="11.2810977"><ele>237.0</ele><time>2026-05-02T16:34:12.677Z</time></trkpt><trkpt lat="43.3806331" lon="11.2813882"><ele>237.0</ele><time>2026-05-02T16:34:13.685Z</time></trkpt><trkpt lat="43.3804928" lon="11.2816764"><ele>236.0</ele><time>2026-05-02T16:34:14.682Z</time></trkpt><trkpt lat="43.3803524" lon="11.2819646"><ele>235.0</ele><time>2026-05-02T16:34:15.687Z</time></trkpt><trkpt lat="43.3802119" lon="11.2822514"><ele>238.5</ele><time>2026-05-02T16:34:16.686Z</time></trkpt><trkpt lat="43.3800721" lon="11.2825372"><ele>242.0</ele><time>2026-05-02T16:34:17.671Z</time></trkpt><trkpt lat="43.379932" lon="11.2828242"><ele>240.5</ele><time>2026-05-02T16:34:18.666Z</time></trkpt><trkpt lat="43.3797901" lon="11.2831089"><ele>239.0</ele><time>2026-05-02T16:34:19.661Z</time></trkpt><trkpt lat="43.3796411" lon="11.2833881"><ele>239.0</ele><time>2026-05-02T16:34:20.682Z</time></trkpt><trkpt lat="43.379484" lon="11.283651"><ele>239.0</ele><time>2026-05-02T16:34:21.669Z</time></trkpt><trkpt lat="43.3793134" lon="11.2839016"><ele>242.5</ele><time>2026-05-02T16:34:22.665Z</time></trkpt><trkpt lat="43.3791298" lon="11.2841388"><ele>246.0</ele><time>2026-05-02T16:34:23.678Z</time></trkpt><trkpt lat="43.3789382" lon="11.2843607"><ele>243.5</ele><time>2026-05-02T16:34:24.666Z</time></trkpt><trkpt lat="43.3787362" lon="11.2845717"><ele>241.0</ele><time>2026-05-02T16:34:25.672Z</time></trkpt><trkpt lat="43.3785265" lon="11.2847684"><ele>241.0</ele><time>2026-05-02T16:34:26.684Z</time></trkpt><trkpt lat="43.3783118" lon="11.2849479"><ele>241.0</ele><time>2026-05-02T16:34:27.666Z</time></trkpt><trkpt lat="43.3780882" lon="11.2851107"><ele>238.5</ele><time>2026-05-02T16:34:28.662Z</time></trkpt><trkpt lat="43.3778572" lon="11.2852549"><ele>236.0</ele><time>2026-05-02T16:34:29.68Z</time></trkpt><trkpt lat="43.3776225" lon="11.2853798"><ele>236.0</ele><time>2026-05-02T16:34:30.679Z</time></trkpt><trkpt lat="43.3773804" lon="11.2854861"><ele>236.0</ele><time>2026-05-02T16:34:31.688Z</time></trkpt><trkpt lat="43.377135" lon="11.2855732"><ele>244.5</ele><time>2026-05-02T16:34:32.689Z</time></trkpt><trkpt lat="43.3768892" lon="11.2856476"><ele>253.0</ele><time>2026-05-02T16:34:33.68Z</time></trkpt><trkpt lat="43.3766439" lon="11.2857192"><ele>253.0</ele><time>2026-05-02T16:34:34.666Z</time></trkpt><trkpt lat="43.3763964" lon="11.2857944"><ele>253.0</ele><time>2026-05-02T16:34:35.696Z</time></trkpt><trkpt lat="43.3761527" lon="11.2858699"><ele>252.0</ele><time>2026-05-02T16:34:36.69Z</time></trkpt><trkpt lat="43.3759062" lon="11.285946"><ele>251.0</ele><time>2026-05-02T16:34:37.688Z</time></trkpt><trkpt lat="43.3756589" lon="11.2860211"><ele>250.5</ele><time>2026-05-02T16:34:38.689Z</time></trkpt><trkpt lat="43.3754116" lon="11.2860947"><ele>250.0</ele><time>2026-05-02T16:34:39.683Z</time></trkpt><trkpt lat="43.3751641" lon="11.2861681"><ele>250.0</ele><time>2026-05-02T16:34:40.684Z</time></trkpt><trkpt lat="43.3749192" lon="11.2862417"><ele>250.0</ele><time>2026-05-02T16:34:41.669Z</time></trkpt><trkpt lat="43.3746717" lon="11.2863173"><ele>248.0</ele><time>2026-05-02T16:34:42.692Z</time></trkpt><trkpt lat="43.3744275" lon="11.2863931"><ele>246.0</ele><time>2026-05-02T16:34:43.697Z</time></trkpt><trkpt lat="43.3741835" lon="11.28647"><ele>250.0</ele><time>2026-05-02T16:34:44.699Z</time></trkpt><trkpt lat="43.3739423" lon="11.2865473"><ele>254.0</ele><time>2026-05-02T16:34:45.673Z</time></trkpt><trkpt lat="43.3736956" lon="11.2866225"><ele>254.0</ele><time>2026-05-02T16:34:46.69Z</time></trkpt><trkpt lat="43.3734541" lon="11.2866959"><ele>254.0</ele><time>2026-05-02T16:34:47.663Z</time></trkpt><trkpt lat="43.3732069" lon="11.2867731"><ele>252.5</ele><time>2026-05-02T16:34:48.673Z</time></trkpt><trkpt lat="43.3729582" lon="11.2868553"><ele>251.0</ele><time>2026-05-02T16:34:49.685Z</time></trkpt><trkpt lat="43.3727085" lon="11.2869434"><ele>251.0</ele><time>2026-05-02T16:34:50.693Z</time></trkpt><trkpt lat="43.3724588" lon="11.287036"><ele>251.0</ele><time>2026-05-02T16:34:51.692Z</time></trkpt><trkpt lat="43.3722079" lon="11.2871325"><ele>249.5</ele><time>2026-05-02T16:34:52.695Z</time></trkpt><trkpt lat="43.3719604" lon="11.2872377"><ele>248.0</ele><time>2026-05-02T16:34:53.677Z</time></trkpt><trkpt lat="43.3717139" lon="11.2873577"><ele>252.0</ele><time>2026-05-02T16:34:54.669Z</time></trkpt><trkpt lat="43.3714704" lon="11.287493"><ele>256.0</ele><time>2026-05-02T16:34:55.676Z</time></trkpt><trkpt lat="43.3712327" lon="11.2876433"><ele>256.0</ele><time>2026-05-02T16:34:56.686Z</time></trkpt><trkpt lat="43.3710028" lon="11.2878046"><ele>256.0</ele><time>2026-05-02T16:34:57.663Z</time></trkpt><trkpt lat="43.3707748" lon="11.2879842"><ele>257.5</ele><time>2026-05-02T16:34:58.681Z</time></trkpt><trkpt lat="43.3705561" lon="11.2881741"><ele>259.0</ele><time>2026-05-02T16:34:59.671Z</time></trkpt><trkpt lat="43.3703419" lon="11.2883808"><ele>259.0</ele><time>2026-05-02T16:35:00.678Z</time></trkpt><trkpt lat="43.370136" lon="11.2886006"><ele>259.0</ele><time>2026-05-02T16:35:01.673Z</time></trkpt><trkpt lat="43.3699355" lon="11.2888335"><ele>259.5</ele><time>2026-05-02T16:35:02.676Z</time></trkpt><trkpt lat="43.3697447" lon="11.2890795"><ele>260.0</ele><time>2026-05-02T16:35:03.669Z</time></trkpt><trkpt lat="43.3695613" lon="11.2893396"><ele>260.0</ele><time>2026-05-02T16:35:04.682Z</time></trkpt><trkpt lat="43.3693867" lon="11.2896076"><ele>260.0</ele><time>2026-05-02T16:35:05.683Z</time></trkpt><trkpt lat="43.3692211" lon="11.2898851"><ele>262.0</ele><time>2026-05-02T16:35:06.673Z</time></trkpt><trkpt lat="43.3690614" lon="11.2901726"><ele>264.0</ele><time>2026-05-02T16:35:07.676Z</time></trkpt><trkpt lat="43.3689103" lon="11.2904664"><ele>260.5</ele><time>2026-05-02T16:35:08.674Z</time></trkpt><trkpt lat="43.3687672" lon="11.2907701"><ele>257.0</ele><time>2026-05-02T16:35:09.682Z</time></trkpt><trkpt lat="43.3686362" lon="11.2910811"><ele>257.0</ele><time>2026-05-02T16:35:10.669Z</time></trkpt><trkpt lat="43.3685142" lon="11.2914028"><ele>257.0</ele><time>2026-05-02T16:35:11.677Z</time></trkpt><trkpt lat="43.368406" lon="11.2917319"><ele>260.5</ele><time>2026-05-02T16:35:12.684Z</time></trkpt><trkpt lat="43.368313" lon="11.2920666"><ele>264.0</ele><time>2026-05-02T16:35:13.672Z</time></trkpt><trkpt lat="43.3682341" lon="11.2924132"><ele>269.0</ele><time>2026-05-02T16:35:14.679Z</time></trkpt><trkpt lat="43.3681658" lon="11.2927639"><ele>274.0</ele><time>2026-05-02T16:35:15.683Z</time></trkpt><trkpt lat="43.3681042" lon="11.2931163"><ele>273.5</ele><time>2026-05-02T16:35:16.674Z</time></trkpt><trkpt lat="43.3680424" lon="11.2934727"><ele>273.0</ele><time>2026-05-02T16:35:17.68Z</time></trkpt><trkpt lat="43.3679777" lon="11.2938263"><ele>273.5</ele><time>2026-05-02T16:35:18.676Z</time></trkpt><trkpt lat="43.3679105" lon="11.2941791"><ele>274.0</ele><time>2026-05-02T16:35:19.673Z</time></trkpt><trkpt lat="43.3678443" lon="11.2945305"><ele>271.5</ele><time>2026-05-02T16:35:20.673Z</time></trkpt><trkpt lat="43.3677812" lon="11.2948801"><ele>269.0</ele><time>2026-05-02T16:35:21.676Z</time></trkpt><trkpt lat="43.367723" lon="11.2952275"><ele>269.0</ele><time>2026-05-02T16:35:22.662Z</time></trkpt><trkpt lat="43.3676667" lon="11.2955803"><ele>269.0</ele><time>2026-05-02T16:35:23.693Z</time></trkpt><trkpt lat="43.3676125" lon="11.2959262"><ele>269.0</ele><time>2026-05-02T16:35:24.68Z</time></trkpt><trkpt lat="43.367558" lon="11.2962774"><ele>269.0</ele><time>2026-05-02T16:35:25.692Z</time></trkpt><trkpt lat="43.3675031" lon="11.296625"><ele>269.0</ele><time>2026-05-02T16:35:26.684Z</time></trkpt><trkpt lat="43.3674452" lon="11.296973"><ele>269.0</ele><time>2026-05-02T16:35:27.688Z</time></trkpt><trkpt lat="43.3673822" lon="11.2973174"><ele>271.0</ele><time>2026-05-02T16:35:28.69Z</time></trkpt><trkpt lat="43.3673121" lon="11.2976568"><ele>273.0</ele><time>2026-05-02T16:35:29.688Z</time></trkpt><trkpt lat="43.3672313" lon="11.2979898"><ele>275.0</ele><time>2026-05-02T16:35:30.685Z</time></trkpt><trkpt lat="43.3671446" lon="11.2983005"><ele>277.0</ele><time>2026-05-02T16:35:31.694Z</time></trkpt><trkpt lat="43.3670362" lon="11.2986049"><ele>277.0</ele><time>2026-05-02T16:35:32.699Z</time></trkpt><trkpt lat="43.3669135" lon="11.2989042"><ele>277.0</ele><time>2026-05-02T16:35:33.679Z</time></trkpt><trkpt lat="43.3667814" lon="11.299201"><ele>281.5</ele><time>2026-05-02T16:35:34.677Z</time></trkpt><trkpt lat="43.3666433" lon="11.2994975"><ele>286.0</ele><time>2026-05-02T16:35:35.693Z</time></trkpt><trkpt lat="43.3665037" lon="11.2997881"><ele>286.0</ele><time>2026-05-02T16:35:36.676Z</time></trkpt><trkpt lat="43.3663599" lon="11.3000748"><ele>286.0</ele><time>2026-05-02T16:35:37.678Z</time></trkpt><trkpt lat="43.3662114" lon="11.300356"><ele>287.0</ele><time>2026-05-02T16:35:38.692Z</time></trkpt><trkpt lat="43.3660604" lon="11.3006276"><ele>288.0</ele><time>2026-05-02T16:35:39.675Z</time></trkpt><trkpt lat="43.3658997" lon="11.3008932"><ele>288.0</ele><time>2026-05-02T16:35:40.675Z</time></trkpt><trkpt lat="43.3657336" lon="11.3011518"><ele>288.0</ele><time>2026-05-02T16:35:41.7Z</time></trkpt><trkpt lat="43.3655653" lon="11.3013984"><ele>285.5</ele><time>2026-05-02T16:35:42.665Z</time></trkpt><trkpt lat="43.3653862" lon="11.3016405"><ele>283.0</ele><time>2026-05-02T16:35:43.679Z</time></trkpt><trkpt lat="43.3651986" lon="11.3018648"><ele>283.0</ele><time>2026-05-02T16:35:44.686Z</time></trkpt><trkpt lat="43.3650017" lon="11.3020717"><ele>283.0</ele><time>2026-05-02T16:35:45.678Z</time></trkpt><trkpt lat="43.3647945" lon="11.3022674"><ele>286.5</ele><time>2026-05-02T16:35:46.683Z</time></trkpt><trkpt lat="43.3645809" lon="11.3024509"><ele>290.0</ele><time>2026-05-02T16:35:47.668Z</time></trkpt><trkpt lat="43.3643617" lon="11.3026272"><ele>290.0</ele><time>2026-05-02T16:35:48.671Z</time></trkpt><trkpt lat="43.3641363" lon="11.3027936"><ele>290.0</ele><time>2026-05-02T16:35:49.685Z</time></trkpt><trkpt lat="43.3639073" lon="11.3029482"><ele>291.5</ele><time>2026-05-02T16:35:50.682Z</time></trkpt><trkpt lat="43.3636711" lon="11.3030874"><ele>293.0</ele><time>2026-05-02T16:35:51.677Z</time></trkpt><trkpt lat="43.3634297" lon="11.3032132"><ele>293.0</ele><time>2026-05-02T16:35:52.673Z</time></trkpt><trkpt lat="43.3631812" lon="11.3033235"><ele>293.0</ele><time>2026-05-02T16:35:53.687Z</time></trkpt><trkpt lat="43.3629322" lon="11.3034159"><ele>288.5</ele><time>2026-05-02T16:35:54.671Z</time></trkpt><trkpt lat="43.3626775" lon="11.3034966"><ele>284.0</ele><time>2026-05-02T16:35:55.682Z</time></trkpt><trkpt lat="43.3624216" lon="11.3035674"><ele>282.5</ele><time>2026-05-02T16:35:56.697Z</time></trkpt><trkpt lat="43.3621677" lon="11.3036307"><ele>281.0</ele><time>2026-05-02T16:35:57.684Z</time></trkpt><trkpt lat="43.3619136" lon="11.3036926"><ele>281.0</ele><time>2026-05-02T16:35:58.677Z</time></trkpt><trkpt lat="43.3616612" lon="11.3037544"><ele>281.0</ele><time>2026-05-02T16:35:59.675Z</time></trkpt><trkpt lat="43.361409" lon="11.3038168"><ele>280.0</ele><time>2026-05-02T16:36:00.699Z</time></trkpt><trkpt lat="43.3611617" lon="11.3038778"><ele>279.0</ele><time>2026-05-02T16:36:01.703Z</time></trkpt><trkpt lat="43.3609154" lon="11.3039392"><ele>283.5</ele><time>2026-05-02T16:36:02.691Z</time></trkpt><trkpt lat="43.3606675" lon="11.3040006"><ele>288.0</ele><time>2026-05-02T16:36:03.697Z</time></trkpt><trkpt lat="43.3604232" lon="11.3040611"><ele>288.0</ele><time>2026-05-02T16:36:04.678Z</time></trkpt><trkpt lat="43.3601757" lon="11.304122"><ele>288.0</ele><time>2026-05-02T16:36:05.689Z</time></trkpt><trkpt lat="43.35993" lon="11.3041822"><ele>288.0</ele><time>2026-05-02T16:36:06.69Z</time></trkpt><trkpt lat="43.359687" lon="11.304241"><ele>288.0</ele><time>2026-05-02T16:36:07.672Z</time></trkpt><trkpt lat="43.359441" lon="11.3043003"><ele>288.0</ele><time>2026-05-02T16:36:08.682Z</time></trkpt><trkpt lat="43.3591965" lon="11.3043597"><ele>288.0</ele><time>2026-05-02T16:36:09.678Z</time></trkpt><trkpt lat="43.3589509" lon="11.3044199"><ele>287.5</ele><time>2026-05-02T16:36:10.683Z</time></trkpt><trkpt lat="43.3587057" lon="11.30448"><ele>287.0</ele><time>2026-05-02T16:36:11.679Z</time></trkpt><trkpt lat="43.3584613" lon="11.3045391"><ele>287.0</ele><time>2026-05-02T16:36:12.661Z</time></trkpt><trkpt lat="43.3582131" lon="11.3045983"><ele>287.0</ele><time>2026-05-02T16:36:13.682Z</time></trkpt><trkpt lat="43.3579671" lon="11.3046549"><ele>287.5</ele><time>2026-05-02T16:36:14.701Z</time></trkpt><trkpt lat="43.3577256" lon="11.3047111"><ele>288.0</ele><time>2026-05-02T16:36:15.686Z</time></trkpt><trkpt lat="43.3574816" lon="11.3047672"><ele>292.5</ele><time>2026-05-02T16:36:16.698Z</time></trkpt><trkpt lat="43.3572405" lon="11.3048176"><ele>297.0</ele><time>2026-05-02T16:36:17.686Z</time></trkpt><trkpt lat="43.3569967" lon="11.3048596"><ele>299.5</ele><time>2026-05-02T16:36:18.687Z</time></trkpt><trkpt lat="43.3567535" lon="11.3048903"><ele>302.0</ele><time>2026-05-02T16:36:19.67Z</time></trkpt><trkpt lat="43.3565064" lon="11.3049112"><ele>300.5</ele><time>2026-05-02T16:36:20.68Z</time></trkpt><trkpt lat="43.3562592" lon="11.3049192"><ele>299.0</ele><time>2026-05-02T16:36:21.688Z</time></trkpt><trkpt lat="43.3560105" lon="11.3049141"><ele>299.0</ele><time>2026-05-02T16:36:22.694Z</time></trkpt><trkpt lat="43.3557613" lon="11.3048961"><ele>299.0</ele><time>2026-05-02T16:36:23.693Z</time></trkpt><trkpt lat="43.3555121" lon="11.3048637"><ele>298.0</ele><time>2026-05-02T16:36:24.691Z</time></trkpt><trkpt lat="43.3552657" lon="11.30483"><ele>297.0</ele><time>2026-05-02T16:36:25.686Z</time></trkpt><trkpt lat="43.3550209" lon="11.304764"><ele>293.5</ele><time>2026-05-02T16:36:26.678Z</time></trkpt><trkpt lat="43.3547709" lon="11.3046864"><ele>290.0</ele><time>2026-05-02T16:36:27.688Z</time></trkpt><trkpt lat="43.3545217" lon="11.3045982"><ele>290.0</ele><time>2026-05-02T16:36:28.683Z</time></trkpt><trkpt lat="43.3542716" lon="11.3044966"><ele>290.0</ele><time>2026-05-02T16:36:29.693Z</time></trkpt><trkpt lat="43.3540289" lon="11.3043841"><ele>292.0</ele><time>2026-05-02T16:36:30.683Z</time></trkpt><trkpt lat="43.353786" lon="11.3042589"><ele>294.0</ele><time>2026-05-02T16:36:31.688Z</time></trkpt><trkpt lat="43.3535445" lon="11.3041268"><ele>294.0</ele><time>2026-05-02T16:36:32.692Z</time></trkpt><trkpt lat="43.3533037" lon="11.3039875"><ele>294.0</ele><time>2026-05-02T16:36:33.708Z</time></trkpt><trkpt lat="43.3530668" lon="11.3038511"><ele>296.5</ele><time>2026-05-02T16:36:34.681Z</time></trkpt><trkpt lat="43.352825" lon="11.3037122"><ele>299.0</ele><time>2026-05-02T16:36:35.698Z</time></trkpt><trkpt lat="43.352585" lon="11.3035739"><ele>299.0</ele><time>2026-05-02T16:36:36.707Z</time></trkpt><trkpt lat="43.3523479" lon="11.3034368"><ele>299.0</ele><time>2026-05-02T16:36:37.682Z</time></trkpt><trkpt lat="43.3521062" lon="11.3032968"><ele>297.5</ele><time>2026-05-02T16:36:38.693Z</time></trkpt><trkpt lat="43.3518664" lon="11.3031584"><ele>296.0</ele><time>2026-05-02T16:36:39.694Z</time></trkpt><trkpt lat="43.3516267" lon="11.3030213"><ele>300.5</ele><time>2026-05-02T16:36:40.691Z</time></trkpt><trkpt lat="43.351388" lon="11.3028849"><ele>305.0</ele><time>2026-05-02T16:36:41.681Z</time></trkpt><trkpt lat="43.3511481" lon="11.3027471"><ele>308.0</ele><time>2026-05-02T16:36:42.684Z</time></trkpt><trkpt lat="43.3509097" lon="11.302609"><ele>311.0</ele><time>2026-05-02T16:36:43.684Z</time></trkpt><trkpt lat="43.3506724" lon="11.3024718"><ele>313.0</ele><time>2026-05-02T16:36:44.675Z</time></trkpt><trkpt lat="43.3504356" lon="11.3023354"><ele>315.0</ele><time>2026-05-02T16:36:45.666Z</time></trkpt><trkpt lat="43.350198" lon="11.3021995"><ele>317.0</ele><time>2026-05-02T16:36:46.669Z</time></trkpt><trkpt lat="43.3499616" lon="11.3020656"><ele>319.0</ele><time>2026-05-02T16:36:47.673Z</time></trkpt><trkpt lat="43.3497279" lon="11.3019327"><ele>315.0</ele><time>2026-05-02T16:36:48.665Z</time></trkpt><trkpt lat="43.3494948" lon="11.3017985"><ele>311.0</ele><time>2026-05-02T16:36:49.664Z</time></trkpt><trkpt lat="43.3492638" lon="11.301663"><ele>311.0</ele><time>2026-05-02T16:36:50.661Z</time></trkpt><trkpt lat="43.3490335" lon="11.3015256"><ele>311.0</ele><time>2026-05-02T16:36:51.679Z</time></trkpt><trkpt lat="43.3488059" lon="11.301392"><ele>318.5</ele><time>2026-05-02T16:36:52.676Z</time></trkpt><trkpt lat="43.3485779" lon="11.3012592"><ele>326.0</ele><time>2026-05-02T16:36:53.683Z</time></trkpt><trkpt lat="43.3483519" lon="11.3011317"><ele>326.0</ele><time>2026-05-02T16:36:54.663Z</time></trkpt><trkpt lat="43.3481239" lon="11.3010032"><ele>326.0</ele><time>2026-05-02T16:36:55.67Z</time></trkpt><trkpt lat="43.3478987" lon="11.3008745"><ele>325.0</ele><time>2026-05-02T16:36:56.676Z</time></trkpt><trkpt lat="43.3476759" lon="11.300742"><ele>324.0</ele><time>2026-05-02T16:36:57.687Z</time></trkpt><trkpt lat="43.3474574" lon="11.3006028"><ele>326.5</ele><time>2026-05-02T16:36:58.689Z</time></trkpt><trkpt lat="43.3472427" lon="11.3004535"><ele>329.0</ele><time>2026-05-02T16:36:59.69Z</time></trkpt><trkpt lat="43.3470322" lon="11.3002957"><ele>329.0</ele><time>2026-05-02T16:37:00.686Z</time></trkpt><trkpt lat="43.3468256" lon="11.3001251"><ele>329.0</ele><time>2026-05-02T16:37:01.691Z</time></trkpt><trkpt lat="43.3466243" lon="11.2999411"><ele>329.0</ele><time>2026-05-02T16:37:02.699Z</time></trkpt><trkpt lat="43.3464285" lon="11.2997504"><ele>329.0</ele><time>2026-05-02T16:37:03.673Z</time></trkpt><trkpt lat="43.3462297" lon="11.2995524"><ele>330.0</ele><time>2026-05-02T16:37:04.681Z</time></trkpt><trkpt lat="43.3460307" lon="11.2993597"><ele>331.0</ele><time>2026-05-02T16:37:05.686Z</time></trkpt><trkpt lat="43.3427318" lon="11.296166"><ele>331.0</ele><time>2026-05-02T16:37:21.655Z</time></trkpt><trkpt lat="43.3424988" lon="11.2959077"><ele>331.0</ele><time>2026-05-02T16:37:22.694Z</time></trkpt><trkpt lat="43.3422832" lon="11.2957209"><ele>335.5</ele><time>2026-05-02T16:37:23.664Z</time></trkpt><trkpt lat="43.3420634" lon="11.2955384"><ele>340.0</ele><time>2026-05-02T16:37:24.652Z</time></trkpt><trkpt lat="43.3418385" lon="11.2953689"><ele>340.0</ele><time>2026-05-02T16:37:25.663Z</time></trkpt><trkpt lat="43.3416109" lon="11.2952131"><ele>340.0</ele><time>2026-05-02T16:37:26.668Z</time></trkpt><trkpt lat="43.3413823" lon="11.2950657"><ele>340.0</ele><time>2026-05-02T16:37:27.666Z</time></trkpt><trkpt lat="43.3411497" lon="11.2949271"><ele>340.0</ele><time>2026-05-02T16:37:28.666Z</time></trkpt><trkpt lat="43.3409136" lon="11.2947904"><ele>344.0</ele><time>2026-05-02T16:37:29.661Z</time></trkpt><trkpt lat="43.3406746" lon="11.2946504"><ele>348.0</ele><time>2026-05-02T16:37:30.665Z</time></trkpt><trkpt lat="43.3394954" lon="11.2939662"><ele>334.5</ele><time>2026-05-02T16:37:35.656Z</time></trkpt><trkpt lat="43.3392604" lon="11.2938363"><ele>321.0</ele><time>2026-05-02T16:37:36.667Z</time></trkpt><trkpt lat="43.3390295" lon="11.293703"><ele>319.0</ele><time>2026-05-02T16:37:37.664Z</time></trkpt><trkpt lat="43.3387926" lon="11.293561"><ele>317.0</ele><time>2026-05-02T16:37:38.68Z</time></trkpt><trkpt lat="43.338559" lon="11.2934215"><ele>317.0</ele><time>2026-05-02T16:37:39.677Z</time></trkpt><trkpt lat="43.3383211" lon="11.2932825"><ele>317.0</ele><time>2026-05-02T16:37:40.683Z</time></trkpt><trkpt lat="43.3380834" lon="11.2931286"><ele>311.0</ele><time>2026-05-02T16:37:41.679Z</time></trkpt><trkpt lat="43.3378346" lon="11.2929799"><ele>305.0</ele><time>2026-05-02T16:37:42.678Z</time></trkpt><trkpt lat="43.3375814" lon="11.2928366"><ele>305.0</ele><time>2026-05-02T16:37:43.68Z</time></trkpt><trkpt lat="43.3373283" lon="11.2926963"><ele>305.0</ele><time>2026-05-02T16:37:44.669Z</time></trkpt><trkpt lat="43.3370721" lon="11.2925435"><ele>304.0</ele><time>2026-05-02T16:37:45.695Z</time></trkpt><trkpt lat="43.3368298" lon="11.2924055"><ele>303.0</ele><time>2026-05-02T16:37:46.677Z</time></trkpt><trkpt lat="43.3365842" lon="11.2922681"><ele>301.5</ele><time>2026-05-02T16:37:47.669Z</time></trkpt><trkpt lat="43.3363362" lon="11.2921264"><ele>300.0</ele><time>2026-05-02T16:37:48.687Z</time></trkpt><trkpt lat="43.3360918" lon="11.2919878"><ele>300.0</ele><time>2026-05-02T16:37:49.681Z</time></trkpt><trkpt lat="43.335845" lon="11.2918489"><ele>300.0</ele><time>2026-05-02T16:37:50.694Z</time></trkpt><trkpt lat="43.3355958" lon="11.291719"><ele>299.0</ele><time>2026-05-02T16:37:51.684Z</time></trkpt><trkpt lat="43.3353412" lon="11.2916083"><ele>298.0</ele><time>2026-05-02T16:37:52.678Z</time></trkpt><trkpt lat="43.335083" lon="11.291512"><ele>298.0</ele><time>2026-05-02T16:37:53.679Z</time></trkpt><trkpt lat="43.334822" lon="11.2914314"><ele>298.0</ele><time>2026-05-02T16:37:54.677Z</time></trkpt><trkpt lat="43.3345586" lon="11.2913696"><ele>291.0</ele><time>2026-05-02T16:37:55.684Z</time></trkpt><trkpt lat="43.3342953" lon="11.2913248"><ele>284.0</ele><time>2026-05-02T16:37:56.653Z</time></trkpt><trkpt lat="43.3340223" lon="11.2912924"><ele>281.5</ele><time>2026-05-02T16:37:57.669Z</time></trkpt><trkpt lat="43.3337531" lon="11.2912754"><ele>279.0</ele><time>2026-05-02T16:37:58.666Z</time></trkpt><trkpt lat="43.3334807" lon="11.2912757"><ele>279.0</ele><time>2026-05-02T16:37:59.685Z</time></trkpt><trkpt lat="43.333213" lon="11.2912876"><ele>279.0</ele><time>2026-05-02T16:38:00.663Z</time></trkpt><trkpt lat="43.3329408" lon="11.2913166"><ele>277.0</ele><time>2026-05-02T16:38:01.678Z</time></trkpt><trkpt lat="43.3326731" lon="11.2913622"><ele>275.0</ele><time>2026-05-02T16:38:02.666Z</time></trkpt><trkpt lat="43.3324011" lon="11.2914275"><ele>274.5</ele><time>2026-05-02T16:38:03.668Z</time></trkpt><trkpt lat="43.3321324" lon="11.2915104"><ele>274.0</ele><time>2026-05-02T16:38:04.666Z</time></trkpt><trkpt lat="43.3318638" lon="11.2916063"><ele>274.0</ele><time>2026-05-02T16:38:05.688Z</time></trkpt><trkpt lat="43.3316048" lon="11.2917193"><ele>274.0</ele><time>2026-05-02T16:38:06.669Z</time></trkpt><trkpt lat="43.3313453" lon="11.2918475"><ele>271.0</ele><time>2026-05-02T16:38:07.668Z</time></trkpt><trkpt lat="43.3310925" lon="11.2919933"><ele>268.0</ele><time>2026-05-02T16:38:08.674Z</time></trkpt><trkpt lat="43.3308447" lon="11.2921523"><ele>268.0</ele><time>2026-05-02T16:38:09.66Z</time></trkpt><trkpt lat="43.3305945" lon="11.2923236"><ele>268.0</ele><time>2026-05-02T16:38:10.677Z</time></trkpt><trkpt lat="43.3303528" lon="11.2925094"><ele>268.0</ele><time>2026-05-02T16:38:11.661Z</time></trkpt><trkpt lat="43.3301143" lon="11.2927109"><ele>268.0</ele><time>2026-05-02T16:38:12.666Z</time></trkpt><trkpt lat="43.3298829" lon="11.2929234"><ele>268.5</ele><time>2026-05-02T16:38:13.672Z</time></trkpt><trkpt lat="43.3296545" lon="11.2931405"><ele>269.0</ele><time>2026-05-02T16:38:14.665Z</time></trkpt><trkpt lat="43.3294258" lon="11.2933605"><ele>269.0</ele><time>2026-05-02T16:38:15.668Z</time></trkpt><trkpt lat="43.3291993" lon="11.2935791"><ele>269.0</ele><time>2026-05-02T16:38:16.663Z</time></trkpt><trkpt lat="43.3289723" lon="11.2937927"><ele>267.5</ele><time>2026-05-02T16:38:17.658Z</time></trkpt><trkpt lat="43.3287423" lon="11.2940002"><ele>266.0</ele><time>2026-05-02T16:38:18.666Z</time></trkpt><trkpt lat="43.3285147" lon="11.2942037"><ele>266.0</ele><time>2026-05-02T16:38:19.658Z</time></trkpt><trkpt lat="43.3282835" lon="11.2944049"><ele>266.0</ele><time>2026-05-02T16:38:20.665Z</time></trkpt><trkpt lat="43.3280535" lon="11.2946072"><ele>266.5</ele><time>2026-05-02T16:38:21.677Z</time></trkpt><trkpt lat="43.3278276" lon="11.2948127"><ele>267.0</ele><time>2026-05-02T16:38:22.667Z</time></trkpt><trkpt lat="43.3275959" lon="11.2950211"><ele>267.0</ele><time>2026-05-02T16:38:23.658Z</time></trkpt><trkpt lat="43.3273619" lon="11.2952302"><ele>267.0</ele><time>2026-05-02T16:38:24.673Z</time></trkpt><trkpt lat="43.3271281" lon="11.2954326"><ele>265.5</ele><time>2026-05-02T16:38:25.683Z</time></trkpt><trkpt lat="43.3268939" lon="11.2956265"><ele>264.0</ele><time>2026-05-02T16:38:26.652Z</time></trkpt><trkpt lat="43.3266497" lon="11.2958157"><ele>264.0</ele><time>2026-05-02T16:38:27.672Z</time></trkpt><trkpt lat="43.3264087" lon="11.295995"><ele>264.0</ele><time>2026-05-02T16:38:28.653Z</time></trkpt><trkpt lat="43.3261633" lon="11.296171"><ele>264.0</ele><time>2026-05-02T16:38:29.654Z</time></trkpt><trkpt lat="43.3259198" lon="11.2963418"><ele>264.0</ele><time>2026-05-02T16:38:30.677Z</time></trkpt><trkpt lat="43.3256839" lon="11.2965072"><ele>262.0</ele><time>2026-05-02T16:38:31.673Z</time></trkpt><trkpt lat="43.325454" lon="11.2966708"><ele>260.0</ele><time>2026-05-02T16:38:32.673Z</time></trkpt><trkpt lat="43.3252318" lon="11.2968293"><ele>260.0</ele><time>2026-05-02T16:38:33.674Z</time></trkpt><trkpt lat="43.3250176" lon="11.2969823"><ele>260.0</ele><time>2026-05-02T16:38:34.67Z</time></trkpt><trkpt lat="43.3248047" lon="11.2971332"><ele>261.0</ele><time>2026-05-02T16:38:35.658Z</time></trkpt><trkpt lat="43.3245841" lon="11.2972876"><ele>262.0</ele><time>2026-05-02T16:38:36.669Z</time></trkpt><trkpt lat="43.3243572" lon="11.2974434"><ele>262.0</ele><time>2026-05-02T16:38:37.662Z</time></trkpt><trkpt lat="43.324122" lon="11.2976038"><ele>262.0</ele><time>2026-05-02T16:38:38.676Z</time></trkpt><trkpt lat="43.3238834" lon="11.2977647"><ele>262.5</ele><time>2026-05-02T16:38:39.672Z</time></trkpt><trkpt lat="43.32364" lon="11.2979275"><ele>263.0</ele><time>2026-05-02T16:38:40.663Z</time></trkpt><trkpt lat="43.3233923" lon="11.2980932"><ele>263.0</ele><time>2026-05-02T16:38:41.654Z</time></trkpt><trkpt lat="43.3231419" lon="11.2982653"><ele>263.0</ele><time>2026-05-02T16:38:42.664Z</time></trkpt><trkpt lat="43.3228935" lon="11.2984392"><ele>260.0</ele><time>2026-05-02T16:38:43.676Z</time></trkpt><trkpt lat="43.3226498" lon="11.298612"><ele>257.0</ele><time>2026-05-02T16:38:44.678Z</time></trkpt><trkpt lat="43.3224073" lon="11.2987843"><ele>259.0</ele><time>2026-05-02T16:38:45.661Z</time></trkpt><trkpt lat="43.3221607" lon="11.2989577"><ele>261.0</ele><time>2026-05-02T16:38:46.673Z</time></trkpt><trkpt lat="43.3219156" lon="11.2991293"><ele>261.0</ele><time>2026-05-02T16:38:47.668Z</time></trkpt><trkpt lat="43.3216682" lon="11.2993007"><ele>261.0</ele><time>2026-05-02T16:38:48.664Z</time></trkpt><trkpt lat="43.3214195" lon="11.2994753"><ele>259.0</ele><time>2026-05-02T16:38:49.663Z</time></trkpt><trkpt lat="43.32117" lon="11.2996529"><ele>257.0</ele><time>2026-05-02T16:38:50.666Z</time></trkpt><trkpt lat="43.3209204" lon="11.2998302"><ele>257.0</ele><time>2026-05-02T16:38:51.664Z</time></trkpt><trkpt lat="43.3206709" lon="11.3000068"><ele>257.0</ele><time>2026-05-02T16:38:52.66Z</time></trkpt><trkpt lat="43.3204232" lon="11.3001816"><ele>257.0</ele><time>2026-05-02T16:38:53.647Z</time></trkpt><trkpt lat="43.3201738" lon="11.3003586"><ele>257.0</ele><time>2026-05-02T16:38:54.682Z</time></trkpt><trkpt lat="43.3199314" lon="11.3005308"><ele>257.5</ele><time>2026-05-02T16:38:55.68Z</time></trkpt><trkpt lat="43.31969" lon="11.3007015"><ele>258.0</ele><time>2026-05-02T16:38:56.677Z</time></trkpt><trkpt lat="43.3194516" lon="11.3008703"><ele>258.0</ele><time>2026-05-02T16:38:57.66Z</time></trkpt><trkpt lat="43.3192122" lon="11.3010394"><ele>258.0</ele><time>2026-05-02T16:38:58.66Z</time></trkpt><trkpt lat="43.3189728" lon="11.3012072"><ele>260.5</ele><time>2026-05-02T16:38:59.669Z</time></trkpt><trkpt lat="43.3187366" lon="11.3013743"><ele>263.0</ele><time>2026-05-02T16:39:00.667Z</time></trkpt><trkpt lat="43.3185025" lon="11.301545"><ele>258.5</ele><time>2026-05-02T16:39:01.673Z</time></trkpt><trkpt lat="43.318275" lon="11.3017224"><ele>254.0</ele><time>2026-05-02T16:39:02.666Z</time></trkpt><trkpt lat="43.3180524" lon="11.3019089"><ele>254.0</ele><time>2026-05-02T16:39:03.655Z</time></trkpt><trkpt lat="43.317834" lon="11.3021056"><ele>254.0</ele><time>2026-05-02T16:39:04.658Z</time></trkpt><trkpt lat="43.3176215" lon="11.3023097"><ele>256.0</ele><time>2026-05-02T16:39:05.653Z</time></trkpt><trkpt lat="43.3174125" lon="11.3025227"><ele>258.0</ele><time>2026-05-02T16:39:06.655Z</time></trkpt><trkpt lat="43.3172079" lon="11.3027459"><ele>258.0</ele><time>2026-05-02T16:39:07.667Z</time></trkpt><trkpt lat="43.3170091" lon="11.3029774"><ele>258.0</ele><time>2026-05-02T16:39:08.663Z</time></trkpt><trkpt lat="43.3168129" lon="11.3032185"><ele>253.5</ele><time>2026-05-02T16:39:09.663Z</time></trkpt><trkpt lat="43.3166187" lon="11.3034663"><ele>249.0</ele><time>2026-05-02T16:39:10.673Z</time></trkpt><trkpt lat="43.3164324" lon="11.3037149"><ele>250.5</ele><time>2026-05-02T16:39:11.653Z</time></trkpt><trkpt lat="43.3162551" lon="11.3039665"><ele>252.0</ele><time>2026-05-02T16:39:12.664Z</time></trkpt><trkpt lat="43.3160906" lon="11.3042148"><ele>252.0</ele><time>2026-05-02T16:39:13.682Z</time></trkpt><trkpt lat="43.3159386" lon="11.3044574"><ele>252.0</ele><time>2026-05-02T16:39:14.671Z</time></trkpt><trkpt lat="43.3157952" lon="11.3046999"><ele>253.66666666666669</ele><time>2026-05-02T16:39:15.673Z</time></trkpt><trkpt lat="43.3156586" lon="11.3049408"><ele>255.33333333333334</ele><time>2026-05-02T16:39:16.658Z</time></trkpt><trkpt lat="43.3155266" lon="11.3051872"><ele>257.0</ele><time>2026-05-02T16:39:17.668Z</time></trkpt><trkpt lat="43.3153984" lon="11.3054321"><ele>255.0</ele><time>2026-05-02T16:39:18.662Z</time></trkpt><trkpt lat="43.3152707" lon="11.3056798"><ele>253.0</ele><time>2026-05-02T16:39:19.668Z</time></trkpt><trkpt lat="43.3151423" lon="11.3059269"><ele>251.0</ele><time>2026-05-02T16:39:20.674Z</time></trkpt><trkpt lat="43.3150142" lon="11.3061714"><ele>250.0</ele><time>2026-05-02T16:39:21.664Z</time></trkpt><trkpt lat="43.3148847" lon="11.3064166"><ele>249.0</ele><time>2026-05-02T16:39:22.67Z</time></trkpt><trkpt lat="43.3147556" lon="11.3066582"><ele>248.0</ele><time>2026-05-02T16:39:23.67Z</time></trkpt><trkpt lat="43.3146286" lon="11.3068983"><ele>247.0</ele><time>2026-05-02T16:39:24.656Z</time></trkpt><trkpt lat="43.3145014" lon="11.3071417"><ele>246.0</ele><time>2026-05-02T16:39:25.677Z</time></trkpt><trkpt lat="43.3143737" lon="11.3073817"><ele>245.0</ele><time>2026-05-02T16:39:26.677Z</time></trkpt><trkpt lat="43.3142416" lon="11.3076217"><ele>245.0</ele><time>2026-05-02T16:39:27.675Z</time></trkpt><trkpt lat="43.3141056" lon="11.3078586"><ele>245.0</ele><time>2026-05-02T16:39:28.652Z</time></trkpt><trkpt lat="43.3139641" lon="11.3080948"><ele>245.0</ele><time>2026-05-02T16:39:29.662Z</time></trkpt><trkpt lat="43.3138203" lon="11.3083263"><ele>244.33333333333334</ele><time>2026-05-02T16:39:30.672Z</time></trkpt><trkpt lat="43.3136739" lon="11.3085544"><ele>243.66666666666669</ele><time>2026-05-02T16:39:31.673Z</time></trkpt><trkpt lat="43.3135256" lon="11.3087791"><ele>243.0</ele><time>2026-05-02T16:39:32.669Z</time></trkpt><trkpt lat="43.3133745" lon="11.3090004"><ele>243.0</ele><time>2026-05-02T16:39:33.655Z</time></trkpt><trkpt lat="43.3132188" lon="11.3092193"><ele>243.0</ele><time>2026-05-02T16:39:34.643Z</time></trkpt><trkpt lat="43.3130569" lon="11.3094381"><ele>241.66666666666669</ele><time>2026-05-02T16:39:35.672Z</time></trkpt><trkpt lat="43.3128937" lon="11.3096506"><ele>240.33333333333334</ele><time>2026-05-02T16:39:36.676Z</time></trkpt><trkpt lat="43.3127286" lon="11.3098598"><ele>239.0</ele><time>2026-05-02T16:39:37.65Z</time></trkpt><trkpt lat="43.3125575" lon="11.3100705"><ele>239.0</ele><time>2026-05-02T16:39:38.673Z</time></trkpt><trkpt lat="43.3123882" lon="11.3102723"><ele>239.0</ele><time>2026-05-02T16:39:39.663Z</time></trkpt><trkpt lat="43.312216" lon="11.3104732"><ele>239.33333333333334</ele><time>2026-05-02T16:39:40.676Z</time></trkpt><trkpt lat="43.3120427" lon="11.3106661"><ele>239.66666666666669</ele><time>2026-05-02T16:39:41.673Z</time></trkpt><trkpt lat="43.3118661" lon="11.3108509"><ele>240.0</ele><time>2026-05-02T16:39:42.66Z</time></trkpt><trkpt lat="43.3116868" lon="11.31103"><ele>240.0</ele><time>2026-05-02T16:39:43.658Z</time></trkpt><trkpt lat="43.3115049" lon="11.3112018"><ele>240.0</ele><time>2026-05-02T16:39:44.664Z</time></trkpt><trkpt lat="43.3113221" lon="11.3113702"><ele>240.0</ele><time>2026-05-02T16:39:45.675Z</time></trkpt><trkpt lat="43.3111383" lon="11.3115377"><ele>239.66666666666669</ele><time>2026-05-02T16:39:46.687Z</time></trkpt><trkpt lat="43.3109524" lon="11.3116989"><ele>239.33333333333334</ele><time>2026-05-02T16:39:47.673Z</time></trkpt><trkpt lat="43.3107588" lon="11.3118568"><ele>239.0</ele><time>2026-05-02T16:39:48.668Z</time></trkpt><trkpt lat="43.3105705" lon="11.3120252"><ele>238.33333333333334</ele><time>2026-05-02T16:39:49.677Z</time></trkpt><trkpt lat="43.3103872" lon="11.3121868"><ele>237.66666666666669</ele><time>2026-05-02T16:39:50.69Z</time></trkpt><trkpt lat="43.3102095" lon="11.3123491"><ele>237.0</ele><time>2026-05-02T16:39:51.682Z</time></trkpt><trkpt lat="43.3100231" lon="11.3125158"><ele>236.66666666666669</ele><time>2026-05-02T16:39:52.677Z</time></trkpt><trkpt lat="43.3098345" lon="11.3126782"><ele>236.33333333333334</ele><time>2026-05-02T16:39:53.668Z</time></trkpt><trkpt lat="43.3096439" lon="11.3128392"><ele>236.0</ele><time>2026-05-02T16:39:54.676Z</time></trkpt><trkpt lat="43.3094552" lon="11.3130002"><ele>235.66666666666669</ele><time>2026-05-02T16:39:55.679Z</time></trkpt><trkpt lat="43.3092676" lon="11.3131613"><ele>235.33333333333331</ele><time>2026-05-02T16:39:56.652Z</time></trkpt><trkpt lat="43.3090811" lon="11.3133294"><ele>235.0</ele><time>2026-05-02T16:39:57.674Z</time></trkpt><trkpt lat="43.308894" lon="11.3134909"><ele>234.66666666666666</ele><time>2026-05-02T16:39:58.663Z</time></trkpt><trkpt lat="43.3087061" lon="11.3136541"><ele>234.33333333333331</ele><time>2026-05-02T16:39:59.678Z</time></trkpt><trkpt lat="43.3085195" lon="11.3138197"><ele>234.0</ele><time>2026-05-02T16:40:00.666Z</time></trkpt><trkpt lat="43.3083317" lon="11.3139822"><ele>234.0</ele><time>2026-05-02T16:40:01.67Z</time></trkpt><trkpt lat="43.3081448" lon="11.3141499"><ele>234.0</ele><time>2026-05-02T16:40:02.686Z</time></trkpt><trkpt lat="43.3079589" lon="11.3143123"><ele>234.0</ele><time>2026-05-02T16:40:03.686Z</time></trkpt><trkpt lat="43.3077764" lon="11.3144796"><ele>233.33333333333331</ele><time>2026-05-02T16:40:04.679Z</time></trkpt><trkpt lat="43.3075957" lon="11.3146436"><ele>232.66666666666666</ele><time>2026-05-02T16:40:05.691Z</time></trkpt><trkpt lat="43.3074194" lon="11.3148127"><ele>232.0</ele><time>2026-05-02T16:40:06.672Z</time></trkpt><trkpt lat="43.3072472" lon="11.3149875"><ele>233.0</ele><time>2026-05-02T16:40:07.683Z</time></trkpt><trkpt lat="43.307073" lon="11.3151647"><ele>234.0</ele><time>2026-05-02T16:40:08.697Z</time></trkpt><trkpt lat="43.3069057" lon="11.3153539"><ele>235.0</ele><time>2026-05-02T16:40:09.687Z</time></trkpt><trkpt lat="43.3067398" lon="11.3155465"><ele>234.33333333333331</ele><time>2026-05-02T16:40:10.676Z</time></trkpt><trkpt lat="43.3065771" lon="11.3157437"><ele>233.66666666666669</ele><time>2026-05-02T16:40:11.682Z</time></trkpt><trkpt lat="43.3064186" lon="11.3159455"><ele>233.0</ele><time>2026-05-02T16:40:12.676Z</time></trkpt><trkpt lat="43.3062609" lon="11.3161512"><ele>233.33333333333334</ele><time>2026-05-02T16:40:13.67Z</time></trkpt><trkpt lat="43.3061058" lon="11.3163595"><ele>233.66666666666669</ele><time>2026-05-02T16:40:14.666Z</time></trkpt><trkpt lat="43.305952" lon="11.3165736"><ele>234.0</ele><time>2026-05-02T16:40:15.67Z</time></trkpt><trkpt lat="43.3058006" lon="11.3167893"><ele>234.0</ele><time>2026-05-02T16:40:16.662Z</time></trkpt><trkpt lat="43.3056492" lon="11.317013"><ele>234.0</ele><time>2026-05-02T16:40:17.666Z</time></trkpt><trkpt lat="43.3054999" lon="11.3172375"><ele>234.0</ele><time>2026-05-02T16:40:18.649Z</time></trkpt><trkpt lat="43.3053505" lon="11.3174633"><ele>231.66666666666669</ele><time>2026-05-02T16:40:19.676Z</time></trkpt><trkpt lat="43.3052024" lon="11.3176922"><ele>229.33333333333334</ele><time>2026-05-02T16:40:20.684Z</time></trkpt><trkpt lat="43.3050535" lon="11.3179186"><ele>227.0</ele><time>2026-05-02T16:40:21.684Z</time></trkpt><trkpt lat="43.3049029" lon="11.3181435"><ele>226.33333333333334</ele><time>2026-05-02T16:40:22.668Z</time></trkpt><trkpt lat="43.3047542" lon="11.3183661"><ele>225.66666666666669</ele><time>2026-05-02T16:40:23.679Z</time></trkpt><trkpt lat="43.3046109" lon="11.3185856"><ele>225.0</ele><time>2026-05-02T16:40:24.678Z</time></trkpt><trkpt lat="43.3044699" lon="11.3188018"><ele>225.66666666666669</ele><time>2026-05-02T16:40:25.662Z</time></trkpt><trkpt lat="43.3043277" lon="11.3190202"><ele>226.33333333333334</ele><time>2026-05-02T16:40:26.674Z</time></trkpt><trkpt lat="43.3041822" lon="11.3192447"><ele>227.0</ele><time>2026-05-02T16:40:27.674Z</time></trkpt><trkpt lat="43.3040337" lon="11.3194755"><ele>230.0</ele><time>2026-05-02T16:40:28.679Z</time></trkpt><trkpt lat="43.303882" lon="11.3197148"><ele>233.0</ele><time>2026-05-02T16:40:29.672Z</time></trkpt><trkpt lat="43.303726" lon="11.3199592"><ele>233.0</ele><time>2026-05-02T16:40:30.672Z</time></trkpt><trkpt lat="43.3035655" lon="11.3202085"><ele>233.0</ele><time>2026-05-02T16:40:31.67Z</time></trkpt><trkpt lat="43.3034013" lon="11.3204587"><ele>229.5</ele><time>2026-05-02T16:40:32.681Z</time></trkpt><trkpt lat="43.3032338" lon="11.3207133"><ele>226.0</ele><time>2026-05-02T16:40:33.687Z</time></trkpt><trkpt lat="43.3030641" lon="11.3209698"><ele>227.0</ele><time>2026-05-02T16:40:34.693Z</time></trkpt><trkpt lat="43.3028918" lon="11.321229"><ele>228.0</ele><time>2026-05-02T16:40:35.688Z</time></trkpt><trkpt lat="43.302716" lon="11.3214885"><ele>228.0</ele><time>2026-05-02T16:40:36.673Z</time></trkpt><trkpt lat="43.3025364" lon="11.3217467"><ele>228.0</ele><time>2026-05-02T16:40:37.684Z</time></trkpt><trkpt lat="43.3023571" lon="11.3220016"><ele>227.5</ele><time>2026-05-02T16:40:38.683Z</time></trkpt><trkpt lat="43.3021821" lon="11.3222568"><ele>227.0</ele><time>2026-05-02T16:40:39.683Z</time></trkpt><trkpt lat="43.3020109" lon="11.3225142"><ele>227.0</ele><time>2026-05-02T16:40:40.679Z</time></trkpt><trkpt lat="43.3018412" lon="11.3227725"><ele>227.0</ele><time>2026-05-02T16:40:41.685Z</time></trkpt><trkpt lat="43.3016725" lon="11.3230333"><ele>227.0</ele><time>2026-05-02T16:40:42.677Z</time></trkpt><trkpt lat="43.3015053" lon="11.3232959"><ele>227.0</ele><time>2026-05-02T16:40:43.678Z</time></trkpt><trkpt lat="43.3013414" lon="11.3235648"><ele>227.0</ele><time>2026-05-02T16:40:44.689Z</time></trkpt><trkpt lat="43.3011805" lon="11.3238399"><ele>227.0</ele><time>2026-05-02T16:40:45.683Z</time></trkpt><trkpt lat="43.301019" lon="11.3241181"><ele>225.5</ele><time>2026-05-02T16:40:46.68Z</time></trkpt><trkpt lat="43.3008548" lon="11.3243953"><ele>224.0</ele><time>2026-05-02T16:40:47.669Z</time></trkpt><trkpt lat="43.3006867" lon="11.3246694"><ele>223.0</ele><time>2026-05-02T16:40:48.66Z</time></trkpt><trkpt lat="43.3005191" lon="11.3249438"><ele>222.0</ele><time>2026-05-02T16:40:49.657Z</time></trkpt><trkpt lat="43.3003557" lon="11.3252228"><ele>222.0</ele><time>2026-05-02T16:40:50.67Z</time></trkpt><trkpt lat="43.3001964" lon="11.3255056"><ele>222.0</ele><time>2026-05-02T16:40:51.66Z</time></trkpt><trkpt lat="43.3000387" lon="11.3257899"><ele>221.5</ele><time>2026-05-02T16:40:52.666Z</time></trkpt><trkpt lat="43.2998812" lon="11.3260746"><ele>221.0</ele><time>2026-05-02T16:40:53.668Z</time></trkpt><trkpt lat="43.2997253" lon="11.326359"><ele>220.0</ele><time>2026-05-02T16:40:54.654Z</time></trkpt><trkpt lat="43.2995696" lon="11.3266413"><ele>219.0</ele><time>2026-05-02T16:40:55.668Z</time></trkpt><trkpt lat="43.2994144" lon="11.3269233"><ele>219.0</ele><time>2026-05-02T16:40:56.673Z</time></trkpt><trkpt lat="43.2992614" lon="11.3272007"><ele>219.0</ele><time>2026-05-02T16:40:57.658Z</time></trkpt><trkpt lat="43.2991101" lon="11.3274755"><ele>218.0</ele><time>2026-05-02T16:40:58.645Z</time></trkpt><trkpt lat="43.2989587" lon="11.327751"><ele>217.0</ele><time>2026-05-02T16:40:59.668Z</time></trkpt><trkpt lat="43.2988114" lon="11.328022"><ele>217.5</ele><time>2026-05-02T16:41:00.664Z</time></trkpt><trkpt lat="43.2986624" lon="11.3282931"><ele>218.0</ele><time>2026-05-02T16:41:01.668Z</time></trkpt><trkpt lat="43.2985121" lon="11.3285619"><ele>218.0</ele><time>2026-05-02T16:41:02.671Z</time></trkpt><trkpt lat="43.2983624" lon="11.3288294"><ele>218.0</ele><time>2026-05-02T16:41:03.668Z</time></trkpt><trkpt lat="43.2982134" lon="11.3290956"><ele>216.5</ele><time>2026-05-02T16:41:04.656Z</time></trkpt><trkpt lat="43.2980626" lon="11.3293639"><ele>215.0</ele><time>2026-05-02T16:41:05.678Z</time></trkpt><trkpt lat="43.2979144" lon="11.329626"><ele>215.0</ele><time>2026-05-02T16:41:06.664Z</time></trkpt><trkpt lat="43.2977643" lon="11.3298896"><ele>215.0</ele><time>2026-05-02T16:41:07.672Z</time></trkpt><trkpt lat="43.2976142" lon="11.3301485"><ele>215.0</ele><time>2026-05-02T16:41:08.664Z</time></trkpt><trkpt lat="43.2974645" lon="11.3304091"><ele>215.0</ele><time>2026-05-02T16:41:09.67Z</time></trkpt><trkpt lat="43.2973168" lon="11.3306682"><ele>214.5</ele><time>2026-05-02T16:41:10.66Z</time></trkpt><trkpt lat="43.2971688" lon="11.3309309"><ele>214.0</ele><time>2026-05-02T16:41:11.67Z</time></trkpt><trkpt lat="43.29702" lon="11.3311891"><ele>215.0</ele><time>2026-05-02T16:41:12.662Z</time></trkpt><trkpt lat="43.2968707" lon="11.3314487"><ele>216.0</ele><time>2026-05-02T16:41:13.669Z</time></trkpt><trkpt lat="43.2967242" lon="11.3317063"><ele>216.0</ele><time>2026-05-02T16:41:14.669Z</time></trkpt><trkpt lat="43.2965804" lon="11.3319638"><ele>216.0</ele><time>2026-05-02T16:41:15.661Z</time></trkpt><trkpt lat="43.296437" lon="11.3322189"><ele>214.0</ele><time>2026-05-02T16:41:16.64Z</time></trkpt><trkpt lat="43.296291" lon="11.3324781"><ele>212.0</ele><time>2026-05-02T16:41:17.677Z</time></trkpt><trkpt lat="43.2961505" lon="11.3327292"><ele>212.0</ele><time>2026-05-02T16:41:18.661Z</time></trkpt><trkpt lat="43.2960094" lon="11.3329835"><ele>212.0</ele><time>2026-05-02T16:41:19.682Z</time></trkpt><trkpt lat="43.2958724" lon="11.33323"><ele>212.0</ele><time>2026-05-02T16:41:20.66Z</time></trkpt><trkpt lat="43.2957337" lon="11.3334762"><ele>212.0</ele><time>2026-05-02T16:41:21.664Z</time></trkpt><trkpt lat="43.2955957" lon="11.3337168"><ele>211.66666666666669</ele><time>2026-05-02T16:41:22.669Z</time></trkpt><trkpt lat="43.2954581" lon="11.3339531"><ele>211.33333333333331</ele><time>2026-05-02T16:41:23.68Z</time></trkpt><trkpt lat="43.2953226" lon="11.3341821"><ele>211.0</ele><time>2026-05-02T16:41:24.65Z</time></trkpt><trkpt lat="43.2951805" lon="11.3344087"><ele>211.0</ele><time>2026-05-02T16:41:25.666Z</time></trkpt><trkpt lat="43.2950327" lon="11.3346213"><ele>211.0</ele><time>2026-05-02T16:41:26.686Z</time></trkpt><trkpt lat="43.2948776" lon="11.3348145"><ele>211.0</ele><time>2026-05-02T16:41:27.684Z</time></trkpt><trkpt lat="43.2947127" lon="11.3349876"><ele>211.33333333333331</ele><time>2026-05-02T16:41:28.684Z</time></trkpt><trkpt lat="43.2945402" lon="11.3351395"><ele>211.66666666666669</ele><time>2026-05-02T16:41:29.682Z</time></trkpt><trkpt lat="43.2943598" lon="11.3352696"><ele>212.0</ele><time>2026-05-02T16:41:30.679Z</time></trkpt><trkpt lat="43.2941718" lon="11.3353808"><ele>212.0</ele><time>2026-05-02T16:41:31.677Z</time></trkpt><trkpt lat="43.2939772" lon="11.3354769"><ele>212.0</ele><time>2026-05-02T16:41:32.677Z</time></trkpt><trkpt lat="43.2937771" lon="11.3355619"><ele>212.0</ele><time>2026-05-02T16:41:33.677Z</time></trkpt><trkpt lat="43.2935714" lon="11.3356333"><ele>211.66666666666669</ele><time>2026-05-02T16:41:34.681Z</time></trkpt><trkpt lat="43.293363" lon="11.3356902"><ele>211.33333333333331</ele><time>2026-05-02T16:41:35.669Z</time></trkpt><trkpt lat="43.2931503" lon="11.3357335"><ele>211.0</ele><time>2026-05-02T16:41:36.681Z</time></trkpt><trkpt lat="43.2929384" lon="11.3357622"><ele>211.0</ele><time>2026-05-02T16:41:37.669Z</time></trkpt><trkpt lat="43.2927244" lon="11.3357709"><ele>211.0</ele><time>2026-05-02T16:41:38.66Z</time></trkpt><trkpt lat="43.2925098" lon="11.33575"><ele>211.0</ele><time>2026-05-02T16:41:39.664Z</time></trkpt><trkpt lat="43.2923002" lon="11.3356928"><ele>210.66666666666666</ele><time>2026-05-02T16:41:40.665Z</time></trkpt><trkpt lat="43.292098" lon="11.3356061"><ele>210.33333333333331</ele><time>2026-05-02T16:41:41.664Z</time></trkpt><trkpt lat="43.2919073" lon="11.3354999"><ele>210.0</ele><time>2026-05-02T16:41:42.687Z</time></trkpt><trkpt lat="43.2917344" lon="11.3353914"><ele>211.0</ele><time>2026-05-02T16:41:43.681Z</time></trkpt><trkpt lat="43.2915714" lon="11.335292"><ele>212.0</ele><time>2026-05-02T16:41:44.664Z</time></trkpt><trkpt lat="43.2914138" lon="11.3352144"><ele>213.0</ele><time>2026-05-02T16:41:45.666Z</time></trkpt><trkpt lat="43.2912636" lon="11.3351712"><ele>213.0</ele><time>2026-05-02T16:41:46.658Z</time></trkpt><trkpt lat="43.2911204" lon="11.3351682"><ele>213.0</ele><time>2026-05-02T16:41:47.677Z</time></trkpt><trkpt lat="43.2909901" lon="11.3352036"><ele>213.0</ele><time>2026-05-02T16:41:48.685Z</time></trkpt><trkpt lat="43.2908746" lon="11.3352751"><ele>213.0</ele><time>2026-05-02T16:41:49.664Z</time></trkpt><trkpt lat="43.2907758" lon="11.3353828"><ele>213.0</ele><time>2026-05-02T16:41:50.672Z</time></trkpt><trkpt lat="43.290699" lon="11.3355184"><ele>213.0</ele><time>2026-05-02T16:41:51.672Z</time></trkpt><trkpt lat="43.2906467" lon="11.3356763"><ele>213.0</ele><time>2026-05-02T16:41:52.659Z</time></trkpt><trkpt lat="43.290615" lon="11.3358503"><ele>213.0</ele><time>2026-05-02T16:41:53.668Z</time></trkpt><trkpt lat="43.2905994" lon="11.3360308"><ele>211.5</ele><time>2026-05-02T16:41:54.686Z</time></trkpt><trkpt lat="43.2906042" lon="11.3362048"><ele>210.0</ele><time>2026-05-02T16:41:55.679Z</time></trkpt><trkpt lat="43.2906429" lon="11.3363689"><ele>208.5</ele><time>2026-05-02T16:41:56.677Z</time></trkpt><trkpt lat="43.2907154" lon="11.3365136"><ele>207.0</ele><time>2026-05-02T16:41:57.677Z</time></trkpt><trkpt lat="43.2908188" lon="11.3366273"><ele>207.0</ele><time>2026-05-02T16:41:58.683Z</time></trkpt><trkpt lat="43.2909479" lon="11.3367049"><ele>207.0</ele><time>2026-05-02T16:41:59.678Z</time></trkpt><trkpt lat="43.2910963" lon="11.3367451"><ele>207.0</ele><time>2026-05-02T16:42:00.679Z</time></trkpt><trkpt lat="43.2912573" lon="11.336743"><ele>207.0</ele><time>2026-05-02T16:42:01.69Z</time></trkpt><trkpt lat="43.2914235" lon="11.3367051"><ele>207.0</ele><time>2026-05-02T16:42:02.671Z</time></trkpt><trkpt lat="43.2915965" lon="11.3366427"><ele>207.0</ele><time>2026-05-02T16:42:03.663Z</time></trkpt><trkpt lat="43.2917762" lon="11.3365706"><ele>207.33333333333331</ele><time>2026-05-02T16:42:04.665Z</time></trkpt><trkpt lat="43.2919623" lon="11.3364986"><ele>207.66666666666666</ele><time>2026-05-02T16:42:05.679Z</time></trkpt><trkpt lat="43.2921517" lon="11.3364347"><ele>208.0</ele><time>2026-05-02T16:42:06.66Z</time></trkpt><trkpt lat="43.2923491" lon="11.3363749"><ele>209.0</ele><time>2026-05-02T16:42:07.68Z</time></trkpt><trkpt lat="43.2925481" lon="11.3363205"><ele>210.0</ele><time>2026-05-02T16:42:08.689Z</time></trkpt><trkpt lat="43.2927475" lon="11.33627"><ele>211.0</ele><time>2026-05-02T16:42:09.671Z</time></trkpt><trkpt lat="43.2929499" lon="11.3362213"><ele>212.0</ele><time>2026-05-02T16:42:10.673Z</time></trkpt><trkpt lat="43.2931519" lon="11.3361699"><ele>213.0</ele><time>2026-05-02T16:42:11.681Z</time></trkpt><trkpt lat="43.293352" lon="11.3361133"><ele>214.0</ele><time>2026-05-02T16:42:12.664Z</time></trkpt><trkpt lat="43.2935547" lon="11.3360499"><ele>214.0</ele><time>2026-05-02T16:42:13.667Z</time></trkpt><trkpt lat="43.2937584" lon="11.3359915"><ele>214.0</ele><time>2026-05-02T16:42:14.683Z</time></trkpt><trkpt lat="43.2939625" lon="11.3359477"><ele>214.0</ele><time>2026-05-02T16:42:15.679Z</time></trkpt><trkpt lat="43.2941683" lon="11.3359254"><ele>213.33333333333331</ele><time>2026-05-02T16:42:16.679Z</time></trkpt><trkpt lat="43.2943737" lon="11.335928"><ele>212.66666666666669</ele><time>2026-05-02T16:42:17.682Z</time></trkpt><trkpt lat="43.2945778" lon="11.3359515"><ele>212.0</ele><time>2026-05-02T16:42:18.684Z</time></trkpt><trkpt lat="43.2947793" lon="11.335996"><ele>212.0</ele><time>2026-05-02T16:42:19.683Z</time></trkpt><trkpt lat="43.2949784" lon="11.3360608"><ele>212.0</ele><time>2026-05-02T16:42:20.676Z</time></trkpt><trkpt lat="43.2951761" lon="11.3361414"><ele>212.0</ele><time>2026-05-02T16:42:21.683Z</time></trkpt><trkpt lat="43.2953674" lon="11.3362402"><ele>212.0</ele><time>2026-05-02T16:42:22.673Z</time></trkpt><trkpt lat="43.2955536" lon="11.3363606"><ele>212.0</ele><time>2026-05-02T16:42:23.682Z</time></trkpt><trkpt lat="43.2957305" lon="11.3365006"><ele>212.0</ele><time>2026-05-02T16:42:24.672Z</time></trkpt><trkpt lat="43.2959007" lon="11.336659"><ele>213.66666666666669</ele><time>2026-05-02T16:42:25.674Z</time></trkpt><trkpt lat="43.2960621" lon="11.3368297"><ele>215.33333333333331</ele><time>2026-05-02T16:42:26.655Z</time></trkpt><trkpt lat="43.2962204" lon="11.3370012"><ele>217.0</ele><time>2026-05-02T16:42:27.653Z</time></trkpt><trkpt lat="43.2963735" lon="11.3371668"><ele>220.0</ele><time>2026-05-02T16:42:28.675Z</time></trkpt><trkpt lat="43.2965193" lon="11.3373289"><ele>223.0</ele><time>2026-05-02T16:42:29.673Z</time></trkpt><trkpt lat="43.2966593" lon="11.3375023"><ele>226.0</ele><time>2026-05-02T16:42:30.674Z</time></trkpt><trkpt lat="43.2967901" lon="11.3376903"><ele>226.0</ele><time>2026-05-02T16:42:31.657Z</time></trkpt><trkpt lat="43.2969137" lon="11.3378959"><ele>226.0</ele><time>2026-05-02T16:42:32.673Z</time></trkpt><trkpt lat="43.2970319" lon="11.3380988"><ele>226.0</ele><time>2026-05-02T16:42:33.656Z</time></trkpt><trkpt lat="43.2971447" lon="11.3383151"><ele>229.66666666666666</ele><time>2026-05-02T16:42:34.655Z</time></trkpt><trkpt lat="43.297262" lon="11.3385348"><ele>233.33333333333331</ele><time>2026-05-02T16:42:35.671Z</time></trkpt><trkpt lat="43.2973769" lon="11.3387501"><ele>237.0</ele><time>2026-05-02T16:42:36.658Z</time></trkpt><trkpt lat="43.297486" lon="11.338972"><ele>237.0</ele><time>2026-05-02T16:42:37.651Z</time></trkpt><trkpt lat="43.2975738" lon="11.3392166"><ele>237.0</ele><time>2026-05-02T16:42:38.657Z</time></trkpt><trkpt lat="43.2976681" lon="11.3394562"><ele>237.0</ele><time>2026-05-02T16:42:39.655Z</time></trkpt><trkpt lat="43.2977453" lon="11.3397044"><ele>235.0</ele><time>2026-05-02T16:42:40.653Z</time></trkpt><trkpt lat="43.2978359" lon="11.3399589"><ele>233.0</ele><time>2026-05-02T16:42:41.66Z</time></trkpt><trkpt lat="43.2979309" lon="11.3402124"><ele>231.0</ele><time>2026-05-02T16:42:42.66Z</time></trkpt><trkpt lat="43.2980163" lon="11.34047"><ele>229.33333333333331</ele><time>2026-05-02T16:42:43.653Z</time></trkpt><trkpt lat="43.298099" lon="11.3407038"><ele>227.66666666666666</ele><time>2026-05-02T16:42:44.657Z</time></trkpt><trkpt lat="43.2981768" lon="11.3409333"><ele>226.0</ele><time>2026-05-02T16:42:45.677Z</time></trkpt><trkpt lat="43.2982577" lon="11.3411573"><ele>226.0</ele><time>2026-05-02T16:42:46.676Z</time></trkpt><trkpt lat="43.2983316" lon="11.3413791"><ele>226.0</ele><time>2026-05-02T16:42:47.657Z</time></trkpt><trkpt lat="43.2984028" lon="11.341598"><ele>226.0</ele><time>2026-05-02T16:42:48.639Z</time></trkpt><trkpt lat="43.2984735" lon="11.3418187"><ele>225.33333333333331</ele><time>2026-05-02T16:42:49.659Z</time></trkpt><trkpt lat="43.2985403" lon="11.3420348"><ele>224.66666666666669</ele><time>2026-05-02T16:42:50.669Z</time></trkpt><trkpt lat="43.2986038" lon="11.3422497"><ele>224.0</ele><time>2026-05-02T16:42:51.664Z</time></trkpt><trkpt lat="43.2986652" lon="11.3424667"><ele>221.66666666666669</ele><time>2026-05-02T16:42:52.663Z</time></trkpt><trkpt lat="43.2987199" lon="11.3426857"><ele>219.33333333333331</ele><time>2026-05-02T16:42:53.676Z</time></trkpt><trkpt lat="43.298771" lon="11.3429038"><ele>217.0</ele><time>2026-05-02T16:42:54.681Z</time></trkpt><trkpt lat="43.2988188" lon="11.3431208"><ele>217.66666666666666</ele><time>2026-05-02T16:42:55.668Z</time></trkpt><trkpt lat="43.2988658" lon="11.3433376"><ele>218.33333333333331</ele><time>2026-05-02T16:42:56.651Z</time></trkpt><trkpt lat="43.2989112" lon="11.343557"><ele>219.0</ele><time>2026-05-02T16:42:57.675Z</time></trkpt><trkpt lat="43.2989524" lon="11.3437728"><ele>216.33333333333331</ele><time>2026-05-02T16:42:58.658Z</time></trkpt><trkpt lat="43.2989926" lon="11.3439894"><ele>213.66666666666666</ele><time>2026-05-02T16:42:59.691Z</time></trkpt><trkpt lat="43.299029" lon="11.3441952"><ele>211.0</ele><time>2026-05-02T16:43:00.682Z</time></trkpt><trkpt lat="43.2990647" lon="11.3444015"><ele>211.0</ele><time>2026-05-02T16:43:01.679Z</time></trkpt><trkpt lat="43.2990991" lon="11.3446097"><ele>211.0</ele><time>2026-05-02T16:43:02.685Z</time></trkpt><trkpt lat="43.2991325" lon="11.3448202"><ele>211.0</ele><time>2026-05-02T16:43:03.674Z</time></trkpt><trkpt lat="43.2991665" lon="11.3450365"><ele>211.0</ele><time>2026-05-02T16:43:04.674Z</time></trkpt><trkpt lat="43.299201" lon="11.3452563"><ele>211.0</ele><time>2026-05-02T16:43:05.662Z</time></trkpt><trkpt lat="43.2992369" lon="11.3454851"><ele>211.0</ele><time>2026-05-02T16:43:06.681Z</time></trkpt><trkpt lat="43.2992733" lon="11.3457188"><ele>210.66666666666666</ele><time>2026-05-02T16:43:07.684Z</time></trkpt><trkpt lat="43.2993105" lon="11.3459593"><ele>210.33333333333331</ele><time>2026-05-02T16:43:08.683Z</time></trkpt><trkpt lat="43.2993476" lon="11.3462053"><ele>210.0</ele><time>2026-05-02T16:43:09.666Z</time></trkpt><trkpt lat="43.2993865" lon="11.346455"><ele>208.33333333333331</ele><time>2026-05-02T16:43:10.678Z</time></trkpt><trkpt lat="43.2994243" lon="11.3466967"><ele>206.66666666666666</ele><time>2026-05-02T16:43:11.681Z</time></trkpt><trkpt lat="43.2994606" lon="11.3469309"><ele>205.0</ele><time>2026-05-02T16:43:12.688Z</time></trkpt><trkpt lat="43.2994956" lon="11.3471583"><ele>205.0</ele><time>2026-05-02T16:43:13.693Z</time></trkpt><trkpt lat="43.2995318" lon="11.3473846"><ele>205.0</ele><time>2026-05-02T16:43:14.675Z</time></trkpt><trkpt lat="43.299569" lon="11.3476174"><ele>205.0</ele><time>2026-05-02T16:43:15.676Z</time></trkpt><trkpt lat="43.2996053" lon="11.3478464"><ele>204.0</ele><time>2026-05-02T16:43:16.671Z</time></trkpt><trkpt lat="43.2996399" lon="11.3480681"><ele>203.0</ele><time>2026-05-02T16:43:17.687Z</time></trkpt><trkpt lat="43.2996717" lon="11.3482817"><ele>202.0</ele><time>2026-05-02T16:43:18.678Z</time></trkpt><trkpt lat="43.2997032" lon="11.3484956"><ele>202.0</ele><time>2026-05-02T16:43:19.692Z</time></trkpt><trkpt lat="43.2997344" lon="11.3487063"><ele>202.0</ele><time>2026-05-02T16:43:20.666Z</time></trkpt><trkpt lat="43.2997671" lon="11.3489216"><ele>202.0</ele><time>2026-05-02T16:43:21.673Z</time></trkpt><trkpt lat="43.2998014" lon="11.3491379"><ele>204.0</ele><time>2026-05-02T16:43:22.674Z</time></trkpt><trkpt lat="43.2998375" lon="11.3493563"><ele>206.0</ele><time>2026-05-02T16:43:23.676Z</time></trkpt><trkpt lat="43.2998734" lon="11.3495751"><ele>208.0</ele><time>2026-05-02T16:43:24.654Z</time></trkpt><trkpt lat="43.2999095" lon="11.3497992"><ele>208.0</ele><time>2026-05-02T16:43:25.672Z</time></trkpt><trkpt lat="43.2999446" lon="11.3500221"><ele>208.0</ele><time>2026-05-02T16:43:26.67Z</time></trkpt><trkpt lat="43.2999788" lon="11.3502451"><ele>208.0</ele><time>2026-05-02T16:43:27.669Z</time></trkpt><trkpt lat="43.3000124" lon="11.3504651"><ele>206.0</ele><time>2026-05-02T16:43:28.678Z</time></trkpt><trkpt lat="43.3000452" lon="11.3506811"><ele>204.0</ele><time>2026-05-02T16:43:29.669Z</time></trkpt><trkpt lat="43.3000788" lon="11.3508988"><ele>202.0</ele><time>2026-05-02T16:43:30.695Z</time></trkpt><trkpt lat="43.3001126" lon="11.3511118"><ele>202.0</ele><time>2026-05-02T16:43:31.687Z</time></trkpt><trkpt lat="43.3001463" lon="11.3513238"><ele>202.0</ele><time>2026-05-02T16:43:32.669Z</time></trkpt><trkpt lat="43.3001804" lon="11.3515358"><ele>202.0</ele><time>2026-05-02T16:43:33.656Z</time></trkpt><trkpt lat="43.3002145" lon="11.3517495"><ele>201.33333333333331</ele><time>2026-05-02T16:43:34.682Z</time></trkpt><trkpt lat="43.3002476" lon="11.3519616"><ele>200.66666666666669</ele><time>2026-05-02T16:43:35.668Z</time></trkpt><trkpt lat="43.3002804" lon="11.3521785"><ele>200.0</ele><time>2026-05-02T16:43:36.683Z</time></trkpt><trkpt lat="43.3003127" lon="11.3523944"><ele>199.33333333333334</ele><time>2026-05-02T16:43:37.678Z</time></trkpt><trkpt lat="43.3003451" lon="11.3526116"><ele>198.66666666666669</ele><time>2026-05-02T16:43:38.682Z</time></trkpt><trkpt lat="43.3003769" lon="11.352823"><ele>198.0</ele><time>2026-05-02T16:43:39.692Z</time></trkpt><trkpt lat="43.3004085" lon="11.3530263"><ele>197.66666666666669</ele><time>2026-05-02T16:43:40.681Z</time></trkpt><trkpt lat="43.3004416" lon="11.3532308"><ele>197.33333333333334</ele><time>2026-05-02T16:43:41.676Z</time></trkpt><trkpt lat="43.3004755" lon="11.3534397"><ele>197.0</ele><time>2026-05-02T16:43:42.671Z</time></trkpt><trkpt lat="43.3005098" lon="11.3536522"><ele>197.0</ele><time>2026-05-02T16:43:43.67Z</time></trkpt><trkpt lat="43.3005445" lon="11.3538661"><ele>197.0</ele><time>2026-05-02T16:43:44.687Z</time></trkpt><trkpt lat="43.3005791" lon="11.354078"><ele>197.0</ele><time>2026-05-02T16:43:45.666Z</time></trkpt><trkpt lat="43.3006139" lon="11.3542962"><ele>200.0</ele><time>2026-05-02T16:43:46.679Z</time></trkpt><trkpt lat="43.3006472" lon="11.3545158"><ele>203.0</ele><time>2026-05-02T16:43:47.689Z</time></trkpt><trkpt lat="43.3006768" lon="11.3547364"><ele>206.0</ele><time>2026-05-02T16:43:48.664Z</time></trkpt><trkpt lat="43.3007029" lon="11.3549644"><ele>206.33333333333334</ele><time>2026-05-02T16:43:49.681Z</time></trkpt><trkpt lat="43.3007235" lon="11.3551933"><ele>206.66666666666669</ele><time>2026-05-02T16:43:50.663Z</time></trkpt><trkpt lat="43.3007396" lon="11.3554284"><ele>207.0</ele><time>2026-05-02T16:43:51.666Z</time></trkpt><trkpt lat="43.3007495" lon="11.3556653"><ele>207.0</ele><time>2026-05-02T16:43:52.668Z</time></trkpt><trkpt lat="43.3007535" lon="11.3559016"><ele>207.0</ele><time>2026-05-02T16:43:53.674Z</time></trkpt><trkpt lat="43.3007523" lon="11.3561365"><ele>207.0</ele><time>2026-05-02T16:43:54.695Z</time></trkpt><trkpt lat="43.3007452" lon="11.3563685"><ele>206.0</ele><time>2026-05-02T16:43:55.68Z</time></trkpt><trkpt lat="43.3007322" lon="11.3566055"><ele>205.0</ele><time>2026-05-02T16:43:56.687Z</time></trkpt><trkpt lat="43.3007129" lon="11.3568422"><ele>204.0</ele><time>2026-05-02T16:43:57.674Z</time></trkpt><trkpt lat="43.3006888" lon="11.3570802"><ele>202.66666666666669</ele><time>2026-05-02T16:43:58.681Z</time></trkpt><trkpt lat="43.3006615" lon="11.3573133"><ele>201.33333333333334</ele><time>2026-05-02T16:43:59.687Z</time></trkpt><trkpt lat="43.3006294" lon="11.3575407"><ele>200.0</ele><time>2026-05-02T16:44:00.659Z</time></trkpt><trkpt lat="43.3005929" lon="11.3577718"><ele>198.66666666666669</ele><time>2026-05-02T16:44:01.694Z</time></trkpt><trkpt lat="43.3005514" lon="11.3579947"><ele>197.33333333333331</ele><time>2026-05-02T16:44:02.659Z</time></trkpt><trkpt lat="43.3005028" lon="11.3582231"><ele>196.0</ele><time>2026-05-02T16:44:03.679Z</time></trkpt><trkpt lat="43.3004493" lon="11.3584441"><ele>196.0</ele><time>2026-05-02T16:44:04.658Z</time></trkpt><trkpt lat="43.300391" lon="11.3586618"><ele>196.0</ele><time>2026-05-02T16:44:05.678Z</time></trkpt><trkpt lat="43.3003309" lon="11.3588688"><ele>196.0</ele><time>2026-05-02T16:44:06.678Z</time></trkpt><trkpt lat="43.3002701" lon="11.3590684"><ele>197.0</ele><time>2026-05-02T16:44:07.677Z</time></trkpt><trkpt lat="43.3002098" lon="11.3592608"><ele>198.0</ele><time>2026-05-02T16:44:08.661Z</time></trkpt><trkpt lat="43.3001501" lon="11.3594519"><ele>199.0</ele><time>2026-05-02T16:44:09.668Z</time></trkpt><trkpt lat="43.3000914" lon="11.3596447"><ele>200.0</ele><time>2026-05-02T16:44:10.69Z</time></trkpt><trkpt lat="43.3000335" lon="11.3598362"><ele>201.0</ele><time>2026-05-02T16:44:11.661Z</time></trkpt><trkpt lat="43.2999742" lon="11.3600325"><ele>202.0</ele><time>2026-05-02T16:44:12.671Z</time></trkpt><trkpt lat="43.299916" lon="11.3602238"><ele>202.0</ele><time>2026-05-02T16:44:13.667Z</time></trkpt><trkpt lat="43.2998587" lon="11.3604112"><ele>202.0</ele><time>2026-05-02T16:44:14.67Z</time></trkpt><trkpt lat="43.2998028" lon="11.360594"><ele>202.0</ele><time>2026-05-02T16:44:15.671Z</time></trkpt><trkpt lat="43.2997467" lon="11.3607765"><ele>202.0</ele><time>2026-05-02T16:44:16.68Z</time></trkpt><trkpt lat="43.2996894" lon="11.3609609"><ele>201.33333333333331</ele><time>2026-05-02T16:44:17.677Z</time></trkpt><trkpt lat="43.2996303" lon="11.3611483"><ele>200.66666666666669</ele><time>2026-05-02T16:44:18.659Z</time></trkpt><trkpt lat="43.2995703" lon="11.3613426"><ele>200.0</ele><time>2026-05-02T16:44:19.675Z</time></trkpt><trkpt lat="43.2995116" lon="11.3615393"><ele>200.0</ele><time>2026-05-02T16:44:20.672Z</time></trkpt><trkpt lat="43.2994513" lon="11.3617415"><ele>200.0</ele><time>2026-05-02T16:44:21.69Z</time></trkpt><trkpt lat="43.2993913" lon="11.3619442"><ele>200.0</ele><time>2026-05-02T16:44:22.672Z</time></trkpt><trkpt lat="43.2993326" lon="11.3621544"><ele>200.33333333333334</ele><time>2026-05-02T16:44:23.674Z</time></trkpt><trkpt lat="43.2992768" lon="11.3623691"><ele>200.66666666666669</ele><time>2026-05-02T16:44:24.674Z</time></trkpt><trkpt lat="43.2992232" lon="11.3625886"><ele>201.0</ele><time>2026-05-02T16:44:25.68Z</time></trkpt><trkpt lat="43.2991723" lon="11.3628115"><ele>203.0</ele><time>2026-05-02T16:44:26.678Z</time></trkpt><trkpt lat="43.2991243" lon="11.3630366"><ele>205.0</ele><time>2026-05-02T16:44:27.684Z</time></trkpt><trkpt lat="43.2990806" lon="11.363257"><ele>207.0</ele><time>2026-05-02T16:44:28.687Z</time></trkpt><trkpt lat="43.2990419" lon="11.3634696"><ele>207.0</ele><time>2026-05-02T16:44:29.695Z</time></trkpt><trkpt lat="43.2990089" lon="11.3636719"><ele>207.0</ele><time>2026-05-02T16:44:30.679Z</time></trkpt><trkpt lat="43.298979" lon="11.3638694"><ele>207.0</ele><time>2026-05-02T16:44:31.659Z</time></trkpt><trkpt lat="43.2989513" lon="11.3640704"><ele>207.0</ele><time>2026-05-02T16:44:32.679Z</time></trkpt><trkpt lat="43.2989255" lon="11.3642723"><ele>207.33333333333331</ele><time>2026-05-02T16:44:33.677Z</time></trkpt><trkpt lat="43.2989017" lon="11.3644785"><ele>207.66666666666666</ele><time>2026-05-02T16:44:34.68Z</time></trkpt><trkpt lat="43.2988788" lon="11.3646867"><ele>208.0</ele><time>2026-05-02T16:44:35.673Z</time></trkpt><trkpt lat="43.2988579" lon="11.3648995"><ele>208.66666666666666</ele><time>2026-05-02T16:44:36.676Z</time></trkpt><trkpt lat="43.2988392" lon="11.3651153"><ele>209.33333333333331</ele><time>2026-05-02T16:44:37.678Z</time></trkpt><trkpt lat="43.2988228" lon="11.3653331"><ele>210.0</ele><time>2026-05-02T16:44:38.662Z</time></trkpt><trkpt lat="43.2988079" lon="11.3655566"><ele>212.0</ele><time>2026-05-02T16:44:39.666Z</time></trkpt><trkpt lat="43.2987949" lon="11.3657824"><ele>214.0</ele><time>2026-05-02T16:44:40.669Z</time></trkpt><trkpt lat="43.2987867" lon="11.3660102"><ele>216.0</ele><time>2026-05-02T16:44:41.661Z</time></trkpt><trkpt lat="43.298784" lon="11.3662431"><ele>218.66666666666669</ele><time>2026-05-02T16:44:42.683Z</time></trkpt><trkpt lat="43.2987855" lon="11.3664746"><ele>221.33333333333334</ele><time>2026-05-02T16:44:43.679Z</time></trkpt><trkpt lat="43.2987864" lon="11.3667021"><ele>224.0</ele><time>2026-05-02T16:44:44.651Z</time></trkpt><trkpt lat="43.2987859" lon="11.3669348"><ele>235.0</ele><time>2026-05-02T16:44:45.651Z</time></trkpt><trkpt lat="43.2988231" lon="11.3681108"><ele>230.0</ele><time>2026-05-02T16:44:50.784Z</time></trkpt><trkpt lat="43.2988479" lon="11.3690294"><ele>230.0</ele><time>2026-05-02T16:44:54.664Z</time></trkpt><trkpt lat="43.29884" lon="11.369275"><ele>230.0</ele><time>2026-05-02T16:44:55.665Z</time></trkpt><trkpt lat="43.2988217" lon="11.3695115"><ele>230.0</ele><time>2026-05-02T16:44:56.658Z</time></trkpt><trkpt lat="43.2988086" lon="11.3697263"><ele>227.33333333333334</ele><time>2026-05-02T16:44:57.668Z</time></trkpt><trkpt lat="43.2987951" lon="11.3699486"><ele>224.66666666666669</ele><time>2026-05-02T16:44:58.656Z</time></trkpt><trkpt lat="43.2987842" lon="11.3701794"><ele>222.0</ele><time>2026-05-02T16:44:59.67Z</time></trkpt><trkpt lat="43.2987731" lon="11.3704058"><ele>219.0</ele><time>2026-05-02T16:45:00.658Z</time></trkpt><trkpt lat="43.29876" lon="11.3706352"><ele>216.0</ele><time>2026-05-02T16:45:01.673Z</time></trkpt><trkpt lat="43.2987516" lon="11.370868"><ele>213.0</ele><time>2026-05-02T16:45:02.659Z</time></trkpt><trkpt lat="43.2987432" lon="11.3711048"><ele>213.0</ele><time>2026-05-02T16:45:03.668Z</time></trkpt><trkpt lat="43.2987397" lon="11.3713443"><ele>213.0</ele><time>2026-05-02T16:45:04.662Z</time></trkpt><trkpt lat="43.2987432" lon="11.3715854"><ele>213.0</ele><time>2026-05-02T16:45:05.668Z</time></trkpt><trkpt lat="43.2987548" lon="11.3718236"><ele>212.33333333333331</ele><time>2026-05-02T16:45:06.669Z</time></trkpt><trkpt lat="43.2987712" lon="11.3720593"><ele>211.66666666666666</ele><time>2026-05-02T16:45:07.666Z</time></trkpt><trkpt lat="43.2987927" lon="11.3722954"><ele>211.0</ele><time>2026-05-02T16:45:08.671Z</time></trkpt><trkpt lat="43.298824" lon="11.3725274"><ele>210.33333333333331</ele><time>2026-05-02T16:45:09.663Z</time></trkpt><trkpt lat="43.2988633" lon="11.3727594"><ele>209.66666666666669</ele><time>2026-05-02T16:45:10.675Z</time></trkpt><trkpt lat="43.2989092" lon="11.3729892"><ele>209.0</ele><time>2026-05-02T16:45:11.673Z</time></trkpt><trkpt lat="43.2989639" lon="11.3732162"><ele>207.33333333333334</ele><time>2026-05-02T16:45:12.681Z</time></trkpt><trkpt lat="43.2990259" lon="11.3734414"><ele>205.66666666666669</ele><time>2026-05-02T16:45:13.69Z</time></trkpt><trkpt lat="43.2990947" lon="11.3736608"><ele>204.0</ele><time>2026-05-02T16:45:14.686Z</time></trkpt><trkpt lat="43.2991702" lon="11.3738779"><ele>202.0</ele><time>2026-05-02T16:45:15.685Z</time></trkpt><trkpt lat="43.2992549" lon="11.3740904"><ele>200.0</ele><time>2026-05-02T16:45:16.684Z</time></trkpt><trkpt lat="43.2993438" lon="11.3743002"><ele>198.0</ele><time>2026-05-02T16:45:17.683Z</time></trkpt><trkpt lat="43.2994356" lon="11.3745129"><ele>197.33333333333331</ele><time>2026-05-02T16:45:18.69Z</time></trkpt><trkpt lat="43.2995376" lon="11.3747196"><ele>196.66666666666666</ele><time>2026-05-02T16:45:19.679Z</time></trkpt><trkpt lat="43.2996454" lon="11.3749257"><ele>196.0</ele><time>2026-05-02T16:45:20.672Z</time></trkpt><trkpt lat="43.2997584" lon="11.37513"><ele>196.0</ele><time>2026-05-02T16:45:21.678Z</time></trkpt><trkpt lat="43.2998745" lon="11.375328"><ele>196.0</ele><time>2026-05-02T16:45:22.682Z</time></trkpt><trkpt lat="43.2999935" lon="11.375519"><ele>196.0</ele><time>2026-05-02T16:45:23.691Z</time></trkpt><trkpt lat="43.300113" lon="11.3757051"><ele>196.66666666666666</ele><time>2026-05-02T16:45:24.663Z</time></trkpt><trkpt lat="43.3002286" lon="11.3758825"><ele>197.33333333333331</ele><time>2026-05-02T16:45:25.677Z</time></trkpt><trkpt lat="43.3003483" lon="11.3760402"><ele>198.0</ele><time>2026-05-02T16:45:26.669Z</time></trkpt><trkpt lat="43.300462" lon="11.376207"><ele>198.0</ele><time>2026-05-02T16:45:27.688Z</time></trkpt><trkpt lat="43.3005703" lon="11.3763686"><ele>198.0</ele><time>2026-05-02T16:45:28.691Z</time></trkpt><trkpt lat="43.3006777" lon="11.3765304"><ele>198.0</ele><time>2026-05-02T16:45:29.685Z</time></trkpt><trkpt lat="43.3007826" lon="11.3766926"><ele>198.0</ele><time>2026-05-02T16:45:30.698Z</time></trkpt><trkpt lat="43.300883" lon="11.3768563"><ele>198.0</ele><time>2026-05-02T16:45:31.686Z</time></trkpt><trkpt lat="43.3009803" lon="11.3770178"><ele>198.0</ele><time>2026-05-02T16:45:32.684Z</time></trkpt><trkpt lat="43.3010708" lon="11.3771821"><ele>197.0</ele><time>2026-05-02T16:45:33.669Z</time></trkpt><trkpt lat="43.3011517" lon="11.377355"><ele>196.0</ele><time>2026-05-02T16:45:34.661Z</time></trkpt><trkpt lat="43.3012206" lon="11.3775374"><ele>195.0</ele><time>2026-05-02T16:45:35.67Z</time></trkpt><trkpt lat="43.3012763" lon="11.3777349"><ele>195.0</ele><time>2026-05-02T16:45:36.677Z</time></trkpt><trkpt lat="43.3013289" lon="11.3779275"><ele>195.0</ele><time>2026-05-02T16:45:37.67Z</time></trkpt><trkpt lat="43.3013707" lon="11.3781302"><ele>195.0</ele><time>2026-05-02T16:45:38.683Z</time></trkpt><trkpt lat="43.3013999" lon="11.378336"><ele>195.0</ele><time>2026-05-02T16:45:39.684Z</time></trkpt><trkpt lat="43.30142" lon="11.3785441"><ele>195.0</ele><time>2026-05-02T16:45:40.672Z</time></trkpt><trkpt lat="43.3014286" lon="11.3787654"><ele>195.0</ele><time>2026-05-02T16:45:41.678Z</time></trkpt><trkpt lat="43.3014329" lon="11.3789988"><ele>195.0</ele><time>2026-05-02T16:45:42.674Z</time></trkpt><trkpt lat="43.3014397" lon="11.379241"><ele>195.0</ele><time>2026-05-02T16:45:43.684Z</time></trkpt><trkpt lat="43.3014526" lon="11.3794867"><ele>195.0</ele><time>2026-05-02T16:45:44.674Z</time></trkpt><trkpt lat="43.3014667" lon="11.3797423"><ele>196.0</ele><time>2026-05-02T16:45:45.674Z</time></trkpt><trkpt lat="43.3014771" lon="11.3800031"><ele>197.0</ele><time>2026-05-02T16:45:46.686Z</time></trkpt><trkpt lat="43.3014874" lon="11.3802686"><ele>198.0</ele><time>2026-05-02T16:45:47.685Z</time></trkpt><trkpt lat="43.3014951" lon="11.3805364"><ele>198.66666666666669</ele><time>2026-05-02T16:45:48.69Z</time></trkpt><trkpt lat="43.3015039" lon="11.380804"><ele>199.33333333333334</ele><time>2026-05-02T16:45:49.662Z</time></trkpt><trkpt lat="43.3015045" lon="11.3810672"><ele>200.0</ele><time>2026-05-02T16:45:50.664Z</time></trkpt><trkpt lat="43.3015096" lon="11.3813178"><ele>199.66666666666669</ele><time>2026-05-02T16:45:51.68Z</time></trkpt><trkpt lat="43.3015062" lon="11.3815694"><ele>199.33333333333331</ele><time>2026-05-02T16:45:52.673Z</time></trkpt><trkpt lat="43.3014999" lon="11.3818242"><ele>199.0</ele><time>2026-05-02T16:45:53.658Z</time></trkpt><trkpt lat="43.3014833" lon="11.3820822"><ele>198.0</ele><time>2026-05-02T16:45:54.68Z</time></trkpt><trkpt lat="43.3014482" lon="11.3823441"><ele>197.0</ele><time>2026-05-02T16:45:55.671Z</time></trkpt><trkpt lat="43.3013952" lon="11.3826085"><ele>196.0</ele><time>2026-05-02T16:45:56.666Z</time></trkpt><trkpt lat="43.3013254" lon="11.3828731"><ele>194.0</ele><time>2026-05-02T16:45:57.68Z</time></trkpt><trkpt lat="43.3012401" lon="11.3831311"><ele>192.0</ele><time>2026-05-02T16:45:58.669Z</time></trkpt><trkpt lat="43.3011396" lon="11.383382"><ele>190.0</ele><time>2026-05-02T16:45:59.657Z</time></trkpt><trkpt lat="43.3010204" lon="11.3836271"><ele>189.33333333333334</ele><time>2026-05-02T16:46:00.675Z</time></trkpt><trkpt lat="43.3008871" lon="11.3838661"><ele>188.66666666666666</ele><time>2026-05-02T16:46:01.693Z</time></trkpt><trkpt lat="43.3007421" lon="11.3840944"><ele>188.0</ele><time>2026-05-02T16:46:02.656Z</time></trkpt><trkpt lat="43.3005862" lon="11.3843265"><ele>188.0</ele><time>2026-05-02T16:46:03.691Z</time></trkpt><trkpt lat="43.3004308" lon="11.3845547"><ele>188.0</ele><time>2026-05-02T16:46:04.671Z</time></trkpt><trkpt lat="43.3002727" lon="11.3847933"><ele>187.5</ele><time>2026-05-02T16:46:05.677Z</time></trkpt><trkpt lat="43.3001152" lon="11.3850398"><ele>187.0</ele><time>2026-05-02T16:46:06.68Z</time></trkpt><trkpt lat="43.2999543" lon="11.3852958"><ele>185.5</ele><time>2026-05-02T16:46:07.67Z</time></trkpt><trkpt lat="43.299785" lon="11.3855539"><ele>184.0</ele><time>2026-05-02T16:46:08.68Z</time></trkpt><trkpt lat="43.2996114" lon="11.3858146"><ele>183.5</ele><time>2026-05-02T16:46:09.683Z</time></trkpt><trkpt lat="43.2994397" lon="11.3860754"><ele>183.0</ele><time>2026-05-02T16:46:10.678Z</time></trkpt><trkpt lat="43.2992694" lon="11.3863363"><ele>183.5</ele><time>2026-05-02T16:46:11.683Z</time></trkpt><trkpt lat="43.2990964" lon="11.3865948"><ele>184.0</ele><time>2026-05-02T16:46:12.694Z</time></trkpt><trkpt lat="43.2989255" lon="11.3868519"><ele>184.0</ele><time>2026-05-02T16:46:13.68Z</time></trkpt><trkpt lat="43.2987561" lon="11.3871112"><ele>184.0</ele><time>2026-05-02T16:46:14.68Z</time></trkpt><trkpt lat="43.2985846" lon="11.3873696"><ele>186.0</ele><time>2026-05-02T16:46:15.665Z</time></trkpt><trkpt lat="43.2984124" lon="11.3876261"><ele>188.0</ele><time>2026-05-02T16:46:16.682Z</time></trkpt><trkpt lat="43.2982411" lon="11.387875"><ele>192.0</ele><time>2026-05-02T16:46:17.672Z</time></trkpt><trkpt lat="43.298068" lon="11.3881213"><ele>196.0</ele><time>2026-05-02T16:46:18.674Z</time></trkpt><trkpt lat="43.2978953" lon="11.388367"><ele>196.0</ele><time>2026-05-02T16:46:19.681Z</time></trkpt><trkpt lat="43.2977273" lon="11.3886115"><ele>196.0</ele><time>2026-05-02T16:46:20.65Z</time></trkpt><trkpt lat="43.2975576" lon="11.3888648"><ele>198.5</ele><time>2026-05-02T16:46:21.687Z</time></trkpt><trkpt lat="43.297393" lon="11.3891119"><ele>201.0</ele><time>2026-05-02T16:46:22.677Z</time></trkpt><trkpt lat="43.2972286" lon="11.3893576"><ele>202.5</ele><time>2026-05-02T16:46:23.659Z</time></trkpt><trkpt lat="43.2970652" lon="11.3895998"><ele>204.0</ele><time>2026-05-02T16:46:24.659Z</time></trkpt><trkpt lat="43.296905" lon="11.3898368"><ele>204.5</ele><time>2026-05-02T16:46:25.662Z</time></trkpt><trkpt lat="43.2967487" lon="11.390069"><ele>205.0</ele><time>2026-05-02T16:46:26.648Z</time></trkpt><trkpt lat="43.2965945" lon="11.3903041"><ele>204.5</ele><time>2026-05-02T16:46:27.667Z</time></trkpt><trkpt lat="43.296448" lon="11.3905408"><ele>204.0</ele><time>2026-05-02T16:46:28.672Z</time></trkpt><trkpt lat="43.2963107" lon="11.3907846"><ele>202.0</ele><time>2026-05-02T16:46:29.666Z</time></trkpt><trkpt lat="43.2961837" lon="11.3910407"><ele>200.0</ele><time>2026-05-02T16:46:30.663Z</time></trkpt><trkpt lat="43.2960687" lon="11.3913115"><ele>197.5</ele><time>2026-05-02T16:46:31.677Z</time></trkpt><trkpt lat="43.2959675" lon="11.3915915"><ele>195.0</ele><time>2026-05-02T16:46:32.657Z</time></trkpt><trkpt lat="43.295879" lon="11.3918871"><ele>195.0</ele><time>2026-05-02T16:46:33.676Z</time></trkpt><trkpt lat="43.2958074" lon="11.3921865"><ele>195.0</ele><time>2026-05-02T16:46:34.658Z</time></trkpt><trkpt lat="43.29575" lon="11.3924987"><ele>195.0</ele><time>2026-05-02T16:46:35.677Z</time></trkpt><trkpt lat="43.2957092" lon="11.3928141"><ele>195.0</ele><time>2026-05-02T16:46:36.677Z</time></trkpt><trkpt lat="43.295682" lon="11.3931357"><ele>195.5</ele><time>2026-05-02T16:46:37.675Z</time></trkpt><trkpt lat="43.2956665" lon="11.3934594"><ele>196.0</ele><time>2026-05-02T16:46:38.656Z</time></trkpt><trkpt lat="43.2956567" lon="11.3937896"><ele>195.5</ele><time>2026-05-02T16:46:39.673Z</time></trkpt><trkpt lat="43.2956505" lon="11.3941173"><ele>195.0</ele><time>2026-05-02T16:46:40.665Z</time></trkpt><trkpt lat="43.2956451" lon="11.3944487"><ele>195.0</ele><time>2026-05-02T16:46:41.668Z</time></trkpt><trkpt lat="43.2956376" lon="11.3947821"><ele>195.0</ele><time>2026-05-02T16:46:42.677Z</time></trkpt><trkpt lat="43.2956288" lon="11.3951154"><ele>195.0</ele><time>2026-05-02T16:46:43.679Z</time></trkpt><trkpt lat="43.2956201" lon="11.3954493"><ele>195.0</ele><time>2026-05-02T16:46:44.688Z</time></trkpt><trkpt lat="43.2956171" lon="11.3957802"><ele>196.5</ele><time>2026-05-02T16:46:45.672Z</time></trkpt><trkpt lat="43.2956234" lon="11.3961139"><ele>198.0</ele><time>2026-05-02T16:46:46.671Z</time></trkpt><trkpt lat="43.2956427" lon="11.396447"><ele>199.5</ele><time>2026-05-02T16:46:47.684Z</time></trkpt><trkpt lat="43.2956776" lon="11.3967755"><ele>201.0</ele><time>2026-05-02T16:46:48.677Z</time></trkpt><trkpt lat="43.2957287" lon="11.3971023"><ele>199.0</ele><time>2026-05-02T16:46:49.687Z</time></trkpt><trkpt lat="43.2957959" lon="11.3974204"><ele>197.0</ele><time>2026-05-02T16:46:50.673Z</time></trkpt><trkpt lat="43.2958795" lon="11.397734"><ele>195.0</ele><time>2026-05-02T16:46:51.677Z</time></trkpt><trkpt lat="43.2959801" lon="11.3980369"><ele>193.0</ele><time>2026-05-02T16:46:52.681Z</time></trkpt><trkpt lat="43.2960964" lon="11.3983251"><ele>193.0</ele><time>2026-05-02T16:46:53.651Z</time></trkpt><trkpt lat="43.2962313" lon="11.3986067"><ele>193.0</ele><time>2026-05-02T16:46:54.676Z</time></trkpt><trkpt lat="43.2963773" lon="11.3988731"><ele>195.5</ele><time>2026-05-02T16:46:55.677Z</time></trkpt><trkpt lat="43.2965327" lon="11.3991335"><ele>198.0</ele><time>2026-05-02T16:46:56.684Z</time></trkpt><trkpt lat="43.2966929" lon="11.3993875"><ele>198.0</ele><time>2026-05-02T16:46:57.662Z</time></trkpt><trkpt lat="43.2968576" lon="11.3996457"><ele>198.0</ele><time>2026-05-02T16:46:58.68Z</time></trkpt><trkpt lat="43.29702" lon="11.3999031"><ele>197.5</ele><time>2026-05-02T16:46:59.68Z</time></trkpt><trkpt lat="43.2971837" lon="11.400163"><ele>197.0</ele><time>2026-05-02T16:47:00.695Z</time></trkpt><trkpt lat="43.2973462" lon="11.400422"><ele>193.5</ele><time>2026-05-02T16:47:01.689Z</time></trkpt><trkpt lat="43.2975095" lon="11.4006824"><ele>190.0</ele><time>2026-05-02T16:47:02.685Z</time></trkpt><trkpt lat="43.2976717" lon="11.4009405"><ele>190.0</ele><time>2026-05-02T16:47:03.686Z</time></trkpt><trkpt lat="43.2978285" lon="11.4011875"><ele>190.0</ele><time>2026-05-02T16:47:04.666Z</time></trkpt><trkpt lat="43.297982" lon="11.4014263"><ele>190.33333333333334</ele><time>2026-05-02T16:47:05.664Z</time></trkpt><trkpt lat="43.2981311" lon="11.4016595"><ele>190.66666666666666</ele><time>2026-05-02T16:47:06.662Z</time></trkpt><trkpt lat="43.2982763" lon="11.4018905"><ele>191.0</ele><time>2026-05-02T16:47:07.681Z</time></trkpt><trkpt lat="43.2984119" lon="11.4021141"><ele>188.66666666666666</ele><time>2026-05-02T16:47:08.661Z</time></trkpt><trkpt lat="43.2985418" lon="11.4023363"><ele>186.33333333333334</ele><time>2026-05-02T16:47:09.69Z</time></trkpt><trkpt lat="43.2986631" lon="11.4025448"><ele>184.0</ele><time>2026-05-02T16:47:10.664Z</time></trkpt><trkpt lat="43.2987836" lon="11.4027457"><ele>184.0</ele><time>2026-05-02T16:47:11.697Z</time></trkpt><trkpt lat="43.2988969" lon="11.4029273"><ele>184.0</ele><time>2026-05-02T16:47:12.67Z</time></trkpt><trkpt lat="43.2990078" lon="11.4031006"><ele>184.0</ele><time>2026-05-02T16:47:13.666Z</time></trkpt><trkpt lat="43.2991113" lon="11.4032611"><ele>183.75</ele><time>2026-05-02T16:47:14.673Z</time></trkpt><trkpt lat="43.2992014" lon="11.4034105"><ele>183.5</ele><time>2026-05-02T16:47:15.682Z</time></trkpt><trkpt lat="43.2992698" lon="11.4035612"><ele>183.25</ele><time>2026-05-02T16:47:16.683Z</time></trkpt><trkpt lat="43.2993057" lon="11.4037185"><ele>183.0</ele><time>2026-05-02T16:47:17.658Z</time></trkpt><trkpt lat="43.2993106" lon="11.4038823"><ele>182.5</ele><time>2026-05-02T16:47:18.689Z</time></trkpt><trkpt lat="43.2992814" lon="11.4040378"><ele>182.0</ele><time>2026-05-02T16:47:19.654Z</time></trkpt><trkpt lat="43.299221" lon="11.4041835"><ele>181.5</ele><time>2026-05-02T16:47:20.678Z</time></trkpt><trkpt lat="43.2991328" lon="11.4043001"><ele>181.0</ele><time>2026-05-02T16:47:21.676Z</time></trkpt><trkpt lat="43.2990235" lon="11.4043799"><ele>180.75</ele><time>2026-05-02T16:47:22.677Z</time></trkpt><trkpt lat="43.298905" lon="11.4044195"><ele>180.5</ele><time>2026-05-02T16:47:23.672Z</time></trkpt><trkpt lat="43.2987822" lon="11.4044065"><ele>180.25</ele><time>2026-05-02T16:47:24.686Z</time></trkpt><trkpt lat="43.2986683" lon="11.4043323"><ele>180.0</ele><time>2026-05-02T16:47:25.662Z</time></trkpt><trkpt lat="43.2985695" lon="11.4042292"><ele>180.0</ele><time>2026-05-02T16:47:26.661Z</time></trkpt><trkpt lat="43.2984897" lon="11.4040904"><ele>180.0</ele><time>2026-05-02T16:47:27.66Z</time></trkpt><trkpt lat="43.2984305" lon="11.4039333"><ele>180.0</ele><time>2026-05-02T16:47:28.67Z</time></trkpt><trkpt lat="43.2983966" lon="11.4037796"><ele>180.0</ele><time>2026-05-02T16:47:29.677Z</time></trkpt><trkpt lat="43.2983859" lon="11.4036351"><ele>180.16666666666666</ele><time>2026-05-02T16:47:30.672Z</time></trkpt><trkpt lat="43.2983967" lon="11.4035055"><ele>180.33333333333334</ele><time>2026-05-02T16:47:31.679Z</time></trkpt><trkpt lat="43.2984302" lon="11.4033923"><ele>180.5</ele><time>2026-05-02T16:47:32.66Z</time></trkpt><trkpt lat="43.2984736" lon="11.4032912"><ele>180.66666666666669</ele><time>2026-05-02T16:47:33.666Z</time></trkpt><trkpt lat="43.298508" lon="11.4031978"><ele>180.83333333333334</ele><time>2026-05-02T16:47:34.678Z</time></trkpt><trkpt lat="43.2985138" lon="11.4031076"><ele>181.0</ele><time>2026-05-02T16:47:35.66Z</time></trkpt><trkpt lat="43.2984865" lon="11.4030264"><ele>181.0</ele><time>2026-05-02T16:47:36.665Z</time></trkpt><trkpt lat="43.2984287" lon="11.4029706"><ele>181.0</ele><time>2026-05-02T16:47:37.652Z</time></trkpt><trkpt lat="43.2983518" lon="11.4029464"><ele>181.0</ele><time>2026-05-02T16:47:38.67Z</time></trkpt><trkpt lat="43.2982606" lon="11.4029453"><ele>181.0</ele><time>2026-05-02T16:47:39.676Z</time></trkpt><trkpt lat="43.2981574" lon="11.4029378"><ele>181.0</ele><time>2026-05-02T16:47:40.668Z</time></trkpt><trkpt lat="43.2980428" lon="11.4029049"><ele>181.0</ele><time>2026-05-02T16:47:41.662Z</time></trkpt><trkpt lat="43.2979153" lon="11.4028513"><ele>181.0</ele><time>2026-05-02T16:47:42.672Z</time></trkpt><trkpt lat="43.2977754" lon="11.4027999"><ele>181.0</ele><time>2026-05-02T16:47:43.672Z</time></trkpt><trkpt lat="43.2976205" lon="11.402771"><ele>181.0</ele><time>2026-05-02T16:47:44.687Z</time></trkpt><trkpt lat="43.2974556" lon="11.4027617"><ele>181.0</ele><time>2026-05-02T16:47:45.678Z</time></trkpt><trkpt lat="43.2972815" lon="11.4027574"><ele>181.0</ele><time>2026-05-02T16:47:46.674Z</time></trkpt><trkpt lat="43.297108" lon="11.4027518"><ele>181.0</ele><time>2026-05-02T16:47:47.651Z</time></trkpt><trkpt lat="43.2969401" lon="11.4027448"><ele>181.0</ele><time>2026-05-02T16:47:48.684Z</time></trkpt><trkpt lat="43.2967856" lon="11.4027375"><ele>181.0</ele><time>2026-05-02T16:47:49.686Z</time></trkpt><trkpt lat="43.2966392" lon="11.4027284"><ele>181.0</ele><time>2026-05-02T16:47:50.69Z</time></trkpt><trkpt lat="43.2965028" lon="11.402719"><ele>181.0</ele><time>2026-05-02T16:47:51.676Z</time></trkpt><trkpt lat="43.2963773" lon="11.4027046"><ele>181.0</ele><time>2026-05-02T16:47:52.681Z</time></trkpt><trkpt lat="43.2962631" lon="11.4026746"><ele>181.0</ele><time>2026-05-02T16:47:53.682Z</time></trkpt><trkpt lat="43.2961627" lon="11.4026231"><ele>181.0</ele><time>2026-05-02T16:47:54.657Z</time></trkpt><trkpt lat="43.2960777" lon="11.4025454"><ele>181.0</ele><time>2026-05-02T16:47:55.664Z</time></trkpt><trkpt lat="43.2960114" lon="11.4024414"><ele>181.0</ele><time>2026-05-02T16:47:56.682Z</time></trkpt><trkpt lat="43.2959647" lon="11.4023207"><ele>181.0</ele><time>2026-05-02T16:47:57.69Z</time></trkpt><trkpt lat="43.2959338" lon="11.4022008"><ele>181.0</ele><time>2026-05-02T16:47:58.676Z</time></trkpt><trkpt lat="43.2959041" lon="11.4020887"><ele>181.0</ele><time>2026-05-02T16:47:59.684Z</time></trkpt><trkpt lat="43.2958592" lon="11.4020048"><ele>181.0</ele><time>2026-05-02T16:48:00.684Z</time></trkpt><trkpt lat="43.2957972" lon="11.4019584"><ele>181.0</ele><time>2026-05-02T16:48:01.688Z</time></trkpt><trkpt lat="43.2957271" lon="11.4019686"><ele>181.0</ele><time>2026-05-02T16:48:02.672Z</time></trkpt><trkpt lat="43.2956622" lon="11.4020163"><ele>180.4</ele><time>2026-05-02T16:48:03.646Z</time></trkpt><trkpt lat="43.2956125" lon="11.4021033"><ele>179.8</ele><time>2026-05-02T16:48:04.678Z</time></trkpt><trkpt lat="43.2955735" lon="11.4022188"><ele>179.20000000000002</ele><time>2026-05-02T16:48:05.682Z</time></trkpt><trkpt lat="43.2955287" lon="11.4023452"><ele>178.60000000000002</ele><time>2026-05-02T16:48:06.689Z</time></trkpt><trkpt lat="43.2954713" lon="11.4024563"><ele>178.0</ele><time>2026-05-02T16:48:07.657Z</time></trkpt><trkpt lat="43.2954051" lon="11.4025472"><ele>178.0</ele><time>2026-05-02T16:48:08.666Z</time></trkpt><trkpt lat="43.295331" lon="11.402628"><ele>178.0</ele><time>2026-05-02T16:48:09.665Z</time></trkpt><trkpt lat="43.2952499" lon="11.4027172"><ele>178.0</ele><time>2026-05-02T16:48:10.663Z</time></trkpt><trkpt lat="43.2951678" lon="11.4028138"><ele>178.0</ele><time>2026-05-02T16:48:11.656Z</time></trkpt><trkpt lat="43.2950857" lon="11.4029108"><ele>178.0</ele><time>2026-05-02T16:48:12.669Z</time></trkpt><trkpt lat="43.2950082" lon="11.4030027"><ele>178.2</ele><time>2026-05-02T16:48:13.675Z</time></trkpt><trkpt lat="43.2949378" lon="11.4030931"><ele>178.4</ele><time>2026-05-02T16:48:14.663Z</time></trkpt><trkpt lat="43.2948789" lon="11.4031918"><ele>178.6</ele><time>2026-05-02T16:48:15.679Z</time></trkpt><trkpt lat="43.2948416" lon="11.4033057"><ele>178.79999999999998</ele><time>2026-05-02T16:48:16.685Z</time></trkpt><trkpt lat="43.2948286" lon="11.4034327"><ele>179.0</ele><time>2026-05-02T16:48:17.675Z</time></trkpt><trkpt lat="43.2948401" lon="11.4035642"><ele>179.0</ele><time>2026-05-02T16:48:18.681Z</time></trkpt><trkpt lat="43.2948744" lon="11.4036909"><ele>179.0</ele><time>2026-05-02T16:48:19.673Z</time></trkpt><trkpt lat="43.2949246" lon="11.4038128"><ele>179.0</ele><time>2026-05-02T16:48:20.665Z</time></trkpt><trkpt lat="43.2949837" lon="11.4039338"><ele>179.0</ele><time>2026-05-02T16:48:21.656Z</time></trkpt><trkpt lat="43.2950442" lon="11.404059"><ele>179.0</ele><time>2026-05-02T16:48:22.682Z</time></trkpt><trkpt lat="43.2951017" lon="11.4041857"><ele>179.25</ele><time>2026-05-02T16:48:23.656Z</time></trkpt><trkpt lat="43.2951612" lon="11.404318"><ele>179.5</ele><time>2026-05-02T16:48:24.68Z</time></trkpt><trkpt lat="43.2952219" lon="11.4044538"><ele>179.75</ele><time>2026-05-02T16:48:25.672Z</time></trkpt><trkpt lat="43.2952835" lon="11.4045922"><ele>180.0</ele><time>2026-05-02T16:48:26.671Z</time></trkpt><trkpt lat="43.2953439" lon="11.4047266"><ele>180.0</ele><time>2026-05-02T16:48:27.676Z</time></trkpt><trkpt lat="43.2954021" lon="11.4048544"><ele>180.0</ele><time>2026-05-02T16:48:28.667Z</time></trkpt><trkpt lat="43.2954585" lon="11.4049762"><ele>180.0</ele><time>2026-05-02T16:48:29.667Z</time></trkpt><trkpt lat="43.2955124" lon="11.4050948"><ele>180.0</ele><time>2026-05-02T16:48:30.678Z</time></trkpt><trkpt lat="43.2955629" lon="11.4052103"><ele>180.0</ele><time>2026-05-02T16:48:31.673Z</time></trkpt><trkpt lat="43.2956104" lon="11.4053177"><ele>180.0</ele><time>2026-05-02T16:48:32.649Z</time></trkpt><trkpt lat="43.2956524" lon="11.4054162"><ele>180.0</ele><time>2026-05-02T16:48:33.68Z</time></trkpt><trkpt lat="43.2956873" lon="11.405503"><ele>180.0</ele><time>2026-05-02T16:48:34.676Z</time></trkpt><trkpt lat="43.295716" lon="11.4055802"><ele>180.0</ele><time>2026-05-02T16:48:35.673Z</time></trkpt><trkpt lat="43.2957542" lon="11.4057026"><ele>180.0</ele><time>2026-05-02T16:48:37.663Z</time></trkpt><trkpt lat="43.2957776" lon="11.4058108"><ele>180.0</ele><time>2026-05-02T16:48:39.675Z</time></trkpt><trkpt lat="43.2958043" lon="11.4059718"><ele>180.4</ele><time>2026-05-02T16:48:41.676Z</time></trkpt><trkpt lat="43.2958201" lon="11.4060778"><ele>180.8</ele><time>2026-05-02T16:48:42.673Z</time></trkpt><trkpt lat="43.2958366" lon="11.406204"><ele>181.2</ele><time>2026-05-02T16:48:43.681Z</time></trkpt><trkpt lat="43.2958527" lon="11.4063496"><ele>181.6</ele><time>2026-05-02T16:48:44.649Z</time></trkpt><trkpt lat="43.2958617" lon="11.4065163"><ele>182.0</ele><time>2026-05-02T16:48:45.672Z</time></trkpt><trkpt lat="43.2958483" lon="11.4066897"><ele>182.5</ele><time>2026-05-02T16:48:46.68Z</time></trkpt><trkpt lat="43.2958057" lon="11.4068527"><ele>183.0</ele><time>2026-05-02T16:48:47.696Z</time></trkpt><trkpt lat="43.2957492" lon="11.4069952"><ele>183.5</ele><time>2026-05-02T16:48:48.674Z</time></trkpt><trkpt lat="43.2956875" lon="11.4071274"><ele>184.0</ele><time>2026-05-02T16:48:49.672Z</time></trkpt><trkpt lat="43.2956272" lon="11.4072535"><ele>184.2</ele><time>2026-05-02T16:48:50.669Z</time></trkpt><trkpt lat="43.2955713" lon="11.4073764"><ele>184.39999999999998</ele><time>2026-05-02T16:48:51.661Z</time></trkpt><trkpt lat="43.2955184" lon="11.4074955"><ele>184.6</ele><time>2026-05-02T16:48:52.675Z</time></trkpt><trkpt lat="43.2954685" lon="11.4076073"><ele>184.8</ele><time>2026-05-02T16:48:53.663Z</time></trkpt><trkpt lat="43.2954189" lon="11.4077152"><ele>185.0</ele><time>2026-05-02T16:48:54.676Z</time></trkpt><trkpt lat="43.2953719" lon="11.4078145"><ele>185.0</ele><time>2026-05-02T16:48:55.656Z</time></trkpt><trkpt lat="43.2953286" lon="11.4079067"><ele>185.0</ele><time>2026-05-02T16:48:56.673Z</time></trkpt><trkpt lat="43.2952903" lon="11.4079913"><ele>185.0</ele><time>2026-05-02T16:48:57.671Z</time></trkpt><trkpt lat="43.2952539" lon="11.4080748"><ele>185.0</ele><time>2026-05-02T16:48:58.673Z</time></trkpt><trkpt lat="43.2952169" lon="11.4081634"><ele>185.0</ele><time>2026-05-02T16:48:59.663Z</time></trkpt><trkpt lat="43.2951771" lon="11.4082607"><ele>185.0</ele><time>2026-05-02T16:49:00.673Z</time></trkpt><trkpt lat="43.2951343" lon="11.4083642"><ele>185.4</ele><time>2026-05-02T16:49:01.66Z</time></trkpt><trkpt lat="43.2950882" lon="11.4084748"><ele>185.8</ele><time>2026-05-02T16:49:02.675Z</time></trkpt><trkpt lat="43.2950425" lon="11.4085886"><ele>186.2</ele><time>2026-05-02T16:49:03.682Z</time></trkpt><trkpt lat="43.2949976" lon="11.4087036"><ele>186.6</ele><time>2026-05-02T16:49:04.676Z</time></trkpt><trkpt lat="43.2949494" lon="11.4088179"><ele>187.0</ele><time>2026-05-02T16:49:05.682Z</time></trkpt><trkpt lat="43.2948979" lon="11.40893"><ele>187.16666666666669</ele><time>2026-05-02T16:49:06.673Z</time></trkpt><trkpt lat="43.2948458" lon="11.4090449"><ele>187.33333333333334</ele><time>2026-05-02T16:49:07.688Z</time></trkpt><trkpt lat="43.2947965" lon="11.4091604"><ele>187.5</ele><time>2026-05-02T16:49:08.695Z</time></trkpt><trkpt lat="43.294752" lon="11.4092673"><ele>187.66666666666666</ele><time>2026-05-02T16:49:09.671Z</time></trkpt><trkpt lat="43.294711" lon="11.4093643"><ele>187.83333333333331</ele><time>2026-05-02T16:49:10.66Z</time></trkpt><trkpt lat="43.2946709" lon="11.4094553"><ele>188.0</ele><time>2026-05-02T16:49:11.664Z</time></trkpt><trkpt lat="43.2946278" lon="11.4095516"><ele>188.2</ele><time>2026-05-02T16:49:12.682Z</time></trkpt><trkpt lat="43.294581" lon="11.409659"><ele>188.4</ele><time>2026-05-02T16:49:13.678Z</time></trkpt><trkpt lat="43.2945302" lon="11.4097757"><ele>188.6</ele><time>2026-05-02T16:49:14.682Z</time></trkpt><trkpt lat="43.2944755" lon="11.4098968"><ele>188.79999999999998</ele><time>2026-05-02T16:49:15.67Z</time></trkpt><trkpt lat="43.2944186" lon="11.4100223"><ele>189.0</ele><time>2026-05-02T16:49:16.694Z</time></trkpt><trkpt lat="43.2943639" lon="11.4101447"><ele>189.0</ele><time>2026-05-02T16:49:17.677Z</time></trkpt><trkpt lat="43.2943107" lon="11.4102638"><ele>189.0</ele><time>2026-05-02T16:49:18.645Z</time></trkpt><trkpt lat="43.2942572" lon="11.4103802"><ele>189.0</ele><time>2026-05-02T16:49:19.682Z</time></trkpt><trkpt lat="43.2942064" lon="11.410488"><ele>189.0</ele><time>2026-05-02T16:49:20.681Z</time></trkpt><trkpt lat="43.2941595" lon="11.4105918"><ele>189.0</ele><time>2026-05-02T16:49:21.678Z</time></trkpt><trkpt lat="43.2941198" lon="11.4106903"><ele>189.2</ele><time>2026-05-02T16:49:22.683Z</time></trkpt><trkpt lat="43.2940846" lon="11.410786"><ele>189.39999999999998</ele><time>2026-05-02T16:49:23.675Z</time></trkpt><trkpt lat="43.2940517" lon="11.4108722"><ele>189.6</ele><time>2026-05-02T16:49:24.681Z</time></trkpt><trkpt lat="43.2939795" lon="11.4110071"><ele>189.8</ele><time>2026-05-02T16:49:26.686Z</time></trkpt><trkpt lat="43.2939036" lon="11.411123"><ele>190.0</ele><time>2026-05-02T16:49:28.705Z</time></trkpt><trkpt lat="43.2938499" lon="11.4112598"><ele>190.4</ele><time>2026-05-02T16:49:30.681Z</time></trkpt><trkpt lat="43.2938175" lon="11.4113561"><ele>190.8</ele><time>2026-05-02T16:49:31.675Z</time></trkpt><trkpt lat="43.2937691" lon="11.4114679"><ele>191.2</ele><time>2026-05-02T16:49:32.677Z</time></trkpt><trkpt lat="43.2937044" lon="11.4115913"><ele>191.6</ele><time>2026-05-02T16:49:33.676Z</time></trkpt><trkpt lat="43.2936315" lon="11.4117265"><ele>192.0</ele><time>2026-05-02T16:49:34.655Z</time></trkpt><trkpt lat="43.2935588" lon="11.4118784"><ele>192.0</ele><time>2026-05-02T16:49:35.661Z</time></trkpt><trkpt lat="43.2934881" lon="11.4120463"><ele>192.0</ele><time>2026-05-02T16:49:36.682Z</time></trkpt><trkpt lat="43.2934168" lon="11.4122257"><ele>192.0</ele><time>2026-05-02T16:49:37.657Z</time></trkpt><trkpt lat="43.2933448" lon="11.4124104"><ele>192.0</ele><time>2026-05-02T16:49:38.676Z</time></trkpt><trkpt lat="43.2932714" lon="11.4126011"><ele>193.0</ele><time>2026-05-02T16:49:39.676Z</time></trkpt><trkpt lat="43.293198" lon="11.4127931"><ele>194.0</ele><time>2026-05-02T16:49:40.667Z</time></trkpt><trkpt lat="43.2931239" lon="11.4129834"><ele>195.0</ele><time>2026-05-02T16:49:41.674Z</time></trkpt><trkpt lat="43.2930541" lon="11.4131611"><ele>196.2</ele><time>2026-05-02T16:49:42.682Z</time></trkpt><trkpt lat="43.2929906" lon="11.4133233"><ele>197.4</ele><time>2026-05-02T16:49:43.677Z</time></trkpt><trkpt lat="43.2929355" lon="11.4134683"><ele>198.60000000000002</ele><time>2026-05-02T16:49:44.675Z</time></trkpt><trkpt lat="43.292885" lon="11.4135924"><ele>199.8</ele><time>2026-05-02T16:49:45.68Z</time></trkpt><trkpt lat="43.2928274" lon="11.4136849"><ele>201.0</ele><time>2026-05-02T16:49:46.666Z</time></trkpt><trkpt lat="43.2927614" lon="11.41373"><ele>201.0</ele><time>2026-05-02T16:49:47.668Z</time></trkpt><trkpt lat="43.2926908" lon="11.41373"><ele>201.0</ele><time>2026-05-02T16:49:48.663Z</time></trkpt><trkpt lat="43.2926155" lon="11.4136867"><ele>201.0</ele><time>2026-05-02T16:49:49.68Z</time></trkpt><trkpt lat="43.292545" lon="11.413602"><ele>201.0</ele><time>2026-05-02T16:49:50.663Z</time></trkpt><trkpt lat="43.292481" lon="11.4134834"><ele>201.0</ele><time>2026-05-02T16:49:51.666Z</time></trkpt><trkpt lat="43.2924196" lon="11.4133439"><ele>201.0</ele><time>2026-05-02T16:49:52.668Z</time></trkpt><trkpt lat="43.2923542" lon="11.413186"><ele>201.0</ele><time>2026-05-02T16:49:53.657Z</time></trkpt><trkpt lat="43.2922898" lon="11.4130202"><ele>201.0</ele><time>2026-05-02T16:49:54.667Z</time></trkpt><trkpt lat="43.292222" lon="11.4128503"><ele>201.0</ele><time>2026-05-02T16:49:55.657Z</time></trkpt><trkpt lat="43.2921447" lon="11.4126791"><ele>202.33333333333331</ele><time>2026-05-02T16:49:56.678Z</time></trkpt><trkpt lat="43.2920646" lon="11.4125"><ele>203.66666666666666</ele><time>2026-05-02T16:49:57.666Z</time></trkpt><trkpt lat="43.2919805" lon="11.4123173"><ele>205.0</ele><time>2026-05-02T16:49:58.654Z</time></trkpt><trkpt lat="43.2918952" lon="11.4121419"><ele>205.0</ele><time>2026-05-02T16:49:59.662Z</time></trkpt><trkpt lat="43.2918126" lon="11.4119742"><ele>205.0</ele><time>2026-05-02T16:50:00.67Z</time></trkpt><trkpt lat="43.2917339" lon="11.4118178"><ele>205.0</ele><time>2026-05-02T16:50:01.674Z</time></trkpt><trkpt lat="43.2916609" lon="11.4116712"><ele>205.0</ele><time>2026-05-02T16:50:02.666Z</time></trkpt><trkpt lat="43.2915941" lon="11.4115322"><ele>205.0</ele><time>2026-05-02T16:50:03.664Z</time></trkpt><trkpt lat="43.2915394" lon="11.4114133"><ele>205.0</ele><time>2026-05-02T16:50:04.667Z</time></trkpt><trkpt lat="43.2914938" lon="11.4113189"><ele>205.0</ele><time>2026-05-02T16:50:05.671Z</time></trkpt><trkpt lat="43.2914308" lon="11.4111933"><ele>205.0</ele><time>2026-05-02T16:50:07.658Z</time></trkpt><trkpt lat="43.2913553" lon="11.411152"><ele>205.0</ele><time>2026-05-02T16:50:09.67Z</time></trkpt><trkpt lat="43.2912717" lon="11.4112185"><ele>207.0</ele><time>2026-05-02T16:50:11.67Z</time></trkpt><trkpt lat="43.2912134" lon="11.411359"><ele>209.0</ele><time>2026-05-02T16:50:13.669Z</time></trkpt><trkpt lat="43.2911946" lon="11.4115207"><ele>211.0</ele><time>2026-05-02T16:50:15.677Z</time></trkpt><trkpt lat="43.291241" lon="11.4116697"><ele>213.0</ele><time>2026-05-02T16:50:17.667Z</time></trkpt><trkpt lat="43.2912807" lon="11.4117394"><ele>215.0</ele><time>2026-05-02T16:50:18.663Z</time></trkpt><trkpt lat="43.2913424" lon="11.4118667"><ele>215.0</ele><time>2026-05-02T16:50:20.662Z</time></trkpt><trkpt lat="43.2913786" lon="11.411949"><ele>215.0</ele><time>2026-05-02T16:50:22.679Z</time></trkpt></trkseg></trk></gpx>